[[{"header":{"parameterUnit":"m.s-1","parameterCategory":1,"la1":30.6,"la2":28.766,"lo1":-90.7593,"lo2":-88.6598,"dy":0.0162,"dx":0.0183,"nx":116,"ny":114,"refTime":"2023-06-21T12:00:00:Z","depth":0,"parameterNumber":2,"parameterNumberName":"U-component_of_WINDS"},"data":[0.0,0.0,0.0,0.0,0.0,0.0,0.0,0.0,0.0,0.0,0.0,0.0,0.0,0.0,0.0,0.0,0.0,0.0,0.0,0.0,0.0,0.0,0.0,0.0,0.0,0.0,0.0,0.0,0.0,0.0,0.0,0.0,0.0,0.0,0.0,0.0,0.0,0.0,0.0,0.0,0.0,0.0,0.0,0.0,0.0,0.0,0.0,0.0,0.0,0.0,0.0,0.0,0.0,0.0,0.0,0.0,0.0,0.0,0.0,0.0,0.0,0.0,0.0,0.0,0.0,0.0,0.0,0.0,0.0,0.0,0.0,0.0,0.0,0.0,0.0,0.0,0.0,0.0,0.0,0.0,0.0,0.0,0.0,0.0,0.0,0.0,0.0,0.0,0.0,0.0,0.0,0.0,0.0,0.0,0.0,0.0,0.0,0.0,0.0,0.0,0.0,0.0,0.0,0.0,0.0,0.0,0.0,0.0,0.0,0.0,0.0,0.0,0.0,0.0,0.0,0.0,0.0,0.0,0.0,0.0,0.0,0.0,0.0,0.0,0.0,0.0,0.0,0.0,0.0,0.0,0.0,0.0,0.0,0.0,0.0,0.0,0.0,0.0,0.0,0.0,0.0,0.0,0.0,0.0,0.0,0.0,0.0,0.0,0.0,0.0,0.0,0.0,0.0,0.0,0.0,0.0,0.0,0.0,0.0,0.0,0.0,0.0,0.0,0.0,0.0,0.0,0.0,0.0,0.0,0.0,0.0,0.0,0.0,0.0,0.0,0.0,0.0,0.0,0.0,0.0,0.0,0.0,0.0,0.0,0.0,0.0,0.0,0.0,0.0,0.0,0.0,0.0,0.0,0.0,0.0,0.0,0.0,0.0,0.0,0.0,0.0,0.0,0.0,0.0,0.0,0.0,0.0,0.0,0.0,0.0,0.0,0.0,0.0,0.0,0.0,0.0,0.0,0.0,0.0,0.0,0.0,0.0,0.0,0.0,0.0,0.0,0.0,0.0,0.0,0.0,0.0,0.0,0.0,0.0,0.0,0.0,0.0,0.0,0.0,0.0,0.0,0.0,0.0,0.0,0.0,0.0,0.0,0.0,0.0,0.0,0.0,0.0,0.0,0.0,0.0,0.0,0.0,0.0,0.0,0.0,0.0,0.0,0.0,0.0,0.0,0.0,0.0,0.0,0.0,0.0,0.0,0.0,0.0,0.0,0.0,0.0,0.0,0.0,0.0,0.0,0.0,0.0,0.0,0.0,0.0,0.0,0.0,0.0,0.0,0.0,0.0,0.0,0.0,0.0,0.0,0.0,0.0,0.0,0.0,0.0,0.0,0.0,0.0,0.0,0.0,0.0,0.0,0.0,0.0,0.0,0.0,0.0,0.0,0.0,0.0,0.0,0.0,0.0,0.0,0.0,0.0,0.0,0.0,0.0,0.0,0.0,0.0,0.0,0.0,0.0,0.0,0.0,0.0,0.0,0.0,0.0,0.0,0.0,0.0,0.0,0.0,0.0,0.0,0.0,0.0,0.0,0.0,0.0,0.0,0.0,0.0,0.0,0.0,0.0,0.0,0.0,0.0,0.0,0.0,0.0,0.0,0.0,0.0,0.0,0.0,0.0,0.0,0.0,0.0,0.0,0.0,0.0,0.0,0.0,0.0,0.0,0.0,0.0,0.0,0.0,0.0,0.0,0.0,0.0,0.0,0.0,0.0,0.0,0.0,0.0,0.0,0.0,0.0,0.0,0.0,0.0,0.0,0.0,0.0,0.0,0.0,0.0,0.0,0.0,0.0,0.0,0.0,0.0,0.0,0.0,0.0,0.0,0.0,0.0,0.0,0.0,0.0,0.0,0.0,0.0,0.0,0.0,0.0,0.0,0.0,0.0,0.0,0.0,0.0,0.0,0.0,0.0,0.0,0.0,0.0,0.0,0.0,0.0,0.0,0.0,0.0,0.0,0.0,0.0,0.0,0.0,0.0,0.0,0.0,0.0,0.0,0.0,0.0,0.0,0.0,0.0,0.0,0.0,0.0,0.0,0.0,0.0,0.0,0.0,0.0,0.0,0.0,0.0,0.0,0.0,0.0,0.0,0.0,0.0,0.0,0.0,0.0,0.0,0.0,0.0,0.0,0.0,0.0,0.0,0.0,0.0,0.0,0.0,0.0,0.0,0.0,0.0,0.0,0.0,0.0,0.0,0.0,0.0,0.0,0.0,0.0,0.0,0.0,0.0,0.0,0.0,0.0,0.0,0.0,0.0,0.0,0.0,0.0,0.0,0.0,0.0,0.0,0.0,0.0,0.0,0.0,0.0,0.0,0.0,0.0,0.0,0.0,0.0,0.0,0.0,0.0,0.0,0.0,0.0,0.0,0.0,0.0,0.0,0.0,0.0,0.0,0.0,0.0,0.0,0.0,0.0,0.0,0.0,0.0,0.0,0.0,0.0,0.0,0.0,0.0,0.0,0.0,0.0,0.0,0.0,0.0,0.0,0.0,0.0,0.0,0.0,0.0,0.0,0.0,0.0,0.0,0.0,0.0,0.0,0.0,0.0,0.0,0.0,0.0,0.0,0.0,0.0,0.0,0.0,0.0,0.0,0.0,0.0,0.0,0.0,0.0,0.0,0.0,0.0,0.0,0.0,0.0,0.0,0.0,0.0,0.0,0.0,0.0,0.0,0.0,0.0,0.0,0.0,0.0,0.0,0.0,0.0,0.0,0.0,0.0,0.0,0.0,0.0,0.0,0.0,0.0,0.0,0.0,0.0,0.0,0.0,0.0,0.0,0.0,0.0,0.0,0.0,0.0,0.0,0.0,0.0,0.0,0.0,0.0,0.0,0.0,0.0,0.0,0.0,0.0,0.0,0.0,0.0,0.0,0.0,0.0,0.0,0.0,0.0,0.0,0.0,0.0,0.0,0.0,0.0,0.0,0.0,0.0,0.0,0.0,0.0,0.0,0.0,0.0,0.0,0.0,0.0,0.0,0.0,0.0,0.0,0.0,0.0,0.0,0.0,0.0,0.0,0.0,0.0,0.0,0.0,0.0,0.0,0.0,0.0,0.0,0.0,0.0,0.0,0.0,0.0,0.0,0.0,0.0,0.0,0.0,0.0,0.0,0.0,0.0,0.0,0.0,0.0,0.0,0.0,0.0,0.0,0.0,0.0,0.0,0.0,0.0,0.0,0.0,0.0,0.0,0.0,0.0,0.0,0.0,0.0,0.0,0.0,0.0,0.0,0.0,0.0,0.0,0.0,0.0,0.0,0.0,0.0,0.0,0.0,0.0,0.0,0.0,0.0,0.0,0.0,0.0,0.0,0.0,0.0,0.0,0.0,0.0,0.0,0.0,0.0,0.0,0.0,0.0,0.0,0.0,0.0,0.0,0.0,0.0,0.0,0.0,0.0,0.0,0.0,0.0,0.0,0.0,0.0,0.0,0.0,0.0,0.0,0.0,0.0,0.0,0.0,0.0,0.0,0.0,0.0,0.0,0.0,0.0,0.0,0.0,0.0,0.0,0.0,0.0,0.0,0.0,0.0,0.0,0.0,0.0,0.0,0.0,0.0,0.0,0.0,0.0,0.0,0.0,0.0,0.0,0.0,0.0,0.0,0.0,0.0,0.0,0.0,0.0,0.0,0.0,0.0,0.0,0.0,0.0,0.0,0.0,0.0,0.0,0.0,0.0,0.0,0.0,0.0,0.0,0.0,0.0,0.0,0.0,0.0,0.0,0.0,0.0,0.0,0.0,0.0,0.0,0.0,0.0,0.0,0.0,0.0,0.0,0.0,0.0,0.0,0.0,0.0,0.0,0.0,0.0,0.0,0.0,0.0,0.0,0.0,0.0,0.0,0.0,0.0,0.0,0.0,0.0,0.0,0.0,0.0,0.0,0.0,0.0,0.0,0.0,0.0,0.0,0.0,0.0,0.0,0.0,0.0,0.0,0.0,0.0,0.0,0.0,0.0,0.0,0.0,0.0,0.0,0.0,0.0,0.0,0.0,0.0,0.0,0.0,0.0,0.0,0.0,0.0,0.0,0.0,0.0,0.0,0.0,0.0,0.0,0.0,0.0,0.0,0.0,0.0,0.0,0.0,0.0,0.0,0.0,0.0,0.0,0.0,0.0,0.0,0.0,0.0,0.0,0.0,0.0,0.0,0.0,0.0,0.0,0.0,0.0,0.0,0.0,0.0,0.0,0.0,0.0,0.0,0.0,0.0,0.0,0.0,0.0,0.0,0.0,0.0,0.0,0.0,0.0,0.0,0.0,0.0,0.0,0.0,0.0,0.0,0.0,0.0,0.0,0.0,0.0,0.0,0.0,0.0,0.0,0.0,0.0,0.0,0.0,0.0,0.0,0.0,0.0,0.0,0.0,0.0,0.0,0.0,0.0,0.0,0.0,0.0,0.0,0.0,0.0,0.0,0.0,0.0,0.0,0.0,0.0,0.0,0.0,0.0,0.0,0.0,0.0,0.0,0.0,0.0,0.0,0.0,0.0,0.0,0.0,0.0,0.0,0.0,0.0,0.0,0.0,0.0,0.0,0.0,0.0,0.0,0.0,0.0,0.0,0.0,0.0,0.0,0.0,0.0,0.0,0.0,0.0,0.0,0.0,0.0,0.0,0.0,0.0,0.0,0.0,0.0,0.0,0.0,0.0,0.0,0.0,0.0,0.0,0.0,0.0,0.0,0.0,0.0,0.0,0.0,0.0,0.0,0.0,0.0,0.0,0.0,0.0,0.0,0.0,0.0,0.0,0.0,0.0,0.0,0.0,0.0,0.0,0.0,0.0,0.0,0.0,0.0,0.0,0.0,0.0,0.0,0.0,0.0,0.0,0.0,0.0,0.0,0.0,0.0,0.0,0.0,0.0,0.0,0.0,0.0,0.0,0.0,0.0,0.0,0.0,0.0,0.0,0.0,0.0,0.0,0.0,0.0,0.0,0.0,0.0,0.0,0.0,0.0,0.0,0.0,0.0,0.0,0.0,0.0,0.0,0.0,0.0,0.0,0.0,0.0,0.0,0.0,0.0,0.0,0.0,0.0,0.0,0.0,0.0,0.0,0.0,0.0,0.0,0.0,0.0,0.0,0.0,0.0,0.0,0.0,0.0,0.0,0.0,0.0,0.0,0.0,0.0,0.0,0.0,0.0,0.0,0.0,0.0,0.0,0.0,0.0,0.0,0.0,0.0,0.0,0.0,0.0,0.0,0.0,0.0,0.0,0.0,0.0,0.0,0.0,0.0,0.0,0.0,0.0,0.0,0.0,0.0,0.0,0.0,0.0,0.0,0.0,0.0,0.0,0.0,0.0,0.0,0.0,0.0,0.0,0.0,0.0,0.0,0.0,0.0,0.0,0.0,0.0,0.0,0.0,0.0,0.0,0.0,0.0,0.0,0.0,0.0,0.0,0.0,0.0,0.0,0.0,0.0,0.0,0.0,0.0,0.0,0.0,0.0,0.0,0.0,0.0,0.0,0.0,0.0,0.0,0.0,0.0,0.0,0.0,0.0,0.0,0.0,0.0,0.0,0.0,0.0,0.0,0.0,0.0,0.0,0.0,0.0,0.0,0.0,0.0,0.0,0.0,0.0,0.0,0.0,0.0,0.0,0.0,0.0,0.0,0.0,0.0,0.0,0.0,0.0,0.0,0.0,0.0,0.0,0.0,0.0,0.0,0.0,0.0,0.0,0.0,0.0,0.0,0.0,0.0,0.0,0.0,0.0,0.0,0.0,0.0,0.0,0.0,0.0,0.0,0.0,0.0,0.0,0.0,0.0,0.0,0.0,0.0,0.0,0.0,0.0,0.0,0.0,0.0,0.0,0.0,0.0,0.0,0.0,0.0,0.0,0.0,0.0,0.0,0.0,0.0,0.0,0.0,0.0,0.0,0.0,0.0,0.0,0.0,0.0,0.0,0.0,0.0,0.0,0.0,0.0,0.0,0.0,0.0,0.0,0.0,0.0,0.0,0.0,0.0,0.0,0.0,0.0,0.0,0.0,0.0,0.0,0.0,0.0,0.0,0.0,0.0,0.0,0.0,0.0,0.0,0.0,0.0,0.0,0.0,0.0,0.0,0.0,0.0,0.0,0.0,0.0,0.0,0.0,0.0,0.0,0.0,0.0,1.31,1.2,0.0,0.0,0.0,0.0,0.0,0.0,0.0,0.0,0.0,0.0,0.0,0.0,0.0,0.0,0.0,0.0,0.0,0.0,0.0,0.0,0.0,0.0,0.0,0.0,0.0,0.0,0.0,0.0,0.0,0.0,0.0,0.0,0.0,0.0,0.0,0.0,0.0,0.0,0.0,0.0,0.0,0.0,0.0,0.0,0.0,0.0,0.0,0.0,0.0,0.0,0.0,0.0,0.0,0.0,0.0,0.0,0.0,0.0,0.0,0.0,0.0,0.0,0.0,0.0,0.0,0.0,0.0,0.0,0.0,0.0,0.0,0.0,0.0,0.0,0.0,0.0,0.0,0.0,0.0,0.0,0.0,0.0,0.0,0.0,0.0,0.0,0.0,0.0,0.0,0.0,0.0,0.0,0.0,0.0,0.0,0.0,0.0,0.0,0.0,0.0,0.0,0.0,0.0,0.0,0.0,0.0,0.0,0.0,0.0,0.0,0.0,0.0,0.0,0.0,1.4337,1.3321,0.0,0.0,0.0,0.0,0.0,0.0,0.0,0.0,0.0,0.0,0.0,0.0,0.0,0.0,0.0,0.0,0.0,0.0,0.0,0.0,0.0,0.0,0.0,0.0,0.0,0.0,0.0,0.0,0.0,0.0,0.0,0.0,0.0,0.0,0.0,0.0,0.0,0.0,0.0,0.0,0.0,0.0,0.0,0.0,0.0,0.0,0.0,0.0,0.0,0.0,0.0,0.0,0.0,0.0,0.0,0.0,0.0,0.0,0.0,0.0,0.0,0.0,0.0,0.0,0.0,0.0,0.0,0.0,0.0,0.0,0.0,0.0,0.0,0.0,0.0,0.0,0.0,0.0,0.0,0.0,0.0,0.0,0.0,0.0,0.0,0.0,0.0,0.0,0.0,0.0,0.0,0.0,0.0,0.0,0.0,0.0,0.0,0.0,0.0,0.0,0.0,0.0,0.0,0.0,0.0,0.0,0.0,0.0,1.2541,1.3893,1.4313,1.5396,1.5917,1.5872,1.5031,1.4371,1.3679,1.1334,0.0,0.0,0.0,0.0,0.0,0.0,0.0,0.0,0.0,0.0,0.0,0.0,0.0,0.0,0.0,0.0,0.0,0.0,0.0,0.0,0.0,0.0,0.0,0.0,0.0,0.0,0.0,0.0,0.0,0.0,0.0,0.0,0.0,0.0,0.0,0.0,0.0,0.0,0.0,0.0,0.0,0.0,0.0,0.0,0.0,0.0,0.0,0.0,0.0,0.0,0.0,0.0,0.0,0.0,0.0,0.0,0.0,0.0,0.0,0.0,0.0,0.0,0.0,0.0,0.0,0.0,0.0,0.0,0.0,0.0,0.0,0.0,0.0,0.0,0.0,0.0,0.0,0.0,0.0,0.0,0.0,0.0,0.0,0.0,0.0,0.0,0.2343,0.2126,0.0,0.0,0.0,0.0,0.0,0.0,0.0,0.0,0.0,0.0,0.0,0.0,0.0,0.4763,0.7644,0.8796,0.9659,1.0327,1.3053,1.4841,1.5687,1.6362,1.6279,1.5671,1.5642,0.0,1.4389,1.2046,0.0,0.0,0.0,0.0,0.0,0.0,0.0,0.0,0.0,0.0,0.0,0.0,0.0,0.0,0.0,0.0,0.0,0.0,0.0,0.0,0.0,0.0,0.0,0.0,0.0,0.0,0.0,0.0,0.0,0.0,0.0,0.0,0.0,0.0,0.0,0.0,0.0,0.0,0.0,0.0,0.0,0.0,0.0,0.0,0.0,0.0,0.0,0.0,0.0,0.0,0.0,0.0,0.0,0.0,0.0,0.0,0.0,0.0,0.0,0.0,0.0,0.0,0.0,0.0,0.0,0.0,0.0,0.0,0.0,0.0,0.0,0.0,0.0,0.0,0.0,0.0,0.0,0.0,0.0,0.0,0.0,0.0,0.0,0.0,0.0,0.275,0.3246,0.3182,0.3572,0.329,0.0,0.0,0.0,0.0,0.0,0.0,0.0,0.0,0.0,0.296,0.5527,0.7944,1.0105,1.0472,1.1048,1.1995,1.3698,1.5068,1.6136,1.6735,1.6458,1.5478,1.5395,1.476,1.365,1.1903,1.0185,0.8448,0.0,0.0,0.0,0.0,-0.062,-0.2208,0.0,0.0,0.0,0.0,0.0,0.0,0.0,0.0,0.0,0.0,0.0,0.0,0.0,0.0,0.0,0.4118,0.0,0.0,0.0,0.0,0.0,0.0,0.0,0.0,0.0,0.0,0.0,0.0,0.0,0.0,0.0,0.0,0.0,0.0,0.0,0.0,0.0,0.0,0.0,0.0,0.0,0.0,0.0,0.0,0.0,0.0,0.0,0.0,0.0,0.0,0.0,0.0,0.0,0.0,0.0,0.0,0.0,0.0,0.0,0.0,0.0,0.0,0.0,0.0,0.0,0.0,0.0,0.0,0.0,0.0,0.0,0.0,0.0,0.0,0.0,0.0,0.0,0.3456,0.4139,0.4206,0.5078,0.5104,0.0,0.0,0.0,0.0,0.0,0.0,0.1586,0.2523,0.3668,0.4992,0.7962,1.0171,1.1397,1.1741,1.2213,1.2903,1.4112,1.5294,1.6353,1.6864,1.6449,1.5279,1.4982,1.4237,1.3226,1.2123,1.0771,0.9194,0.7027,0.5104,0.3368,0.2191,0.04,-0.1408,0.0,0.0,0.0,0.0,0.0,0.0,0.0,0.0,0.0,0.0,0.0,0.0,0.0,0.0,0.3718,0.4434,0.5174,0.5989,0.0,0.0,0.0,0.0,0.0,0.0,0.0,0.0,0.0,0.0,0.0,0.0,0.0,0.0,0.0,0.0,0.0,0.0,0.0,0.0,0.0,0.0,0.0,0.0,0.0,0.0,0.0,0.0,0.0,0.0,0.0,0.0,0.0,0.0,0.0,0.0,0.0,0.0,0.0,0.0,0.0,0.0,0.0,0.0,0.0,0.0,0.0,0.0,0.0,0.0,0.0,0.0,0.0,0.0,0.0,0.0,0.0,0.0,0.0,0.0,0.0,0.5329,0.6002,0.0,0.0,0.0,0.0,0.3122,0.3048,0.3635,0.5067,0.5185,0.5867,0.7224,0.8752,0.9788,1.0158,1.1931,1.2406,1.1747,1.4213,1.572,1.6374,1.6715,1.6168,1.5111,1.4573,1.4175,1.3831,1.3232,1.1804,0.9819,0.8553,0.6867,0.4952,0.3124,0.1309,-0.031,0.0,0.0,0.0,0.0,0.0,0.0,0.0,0.0,0.0,0.0,0.0,0.0,0.0,0.2703,0.4623,0.5329,0.6381,0.7127,0.7366,0.0,0.0,0.0,0.0,0.0,0.0,0.0,0.0,0.0,0.0,0.0,0.0,0.0,0.0,0.0,0.0,0.0,0.0,0.0,0.0,0.0,0.0,0.0,0.0,0.0,0.0,0.0,0.0,0.0,0.0,0.0,0.0,0.0,0.0,0.0,0.0,0.0,0.0,0.0,0.0,0.0,0.0,0.0,0.0,0.0,0.0,0.0,0.0,0.0,0.0,0.0,0.0,0.0,0.0,0.0,0.0,0.0,0.0,0.0,0.0,0.6666,0.7551,0.0,0.7173,0.6772,0.6179,0.5352,0.5453,0.5804,0.6249,0.7114,0.8079,0.9214,1.0467,1.1657,1.2756,1.4417,1.5323,1.5482,1.6441,1.696,1.7168,1.6539,1.5807,1.5026,1.4558,1.4012,1.339,1.309,1.2126,1.0696,0.9164,0.7535,0.5831,0.4229,0.2557,0.087,0.0,0.0,0.0,0.0,0.0,0.0,0.0,0.0,0.0,0.0,0.0,0.3078,0.2954,0.5386,0.7046,0.7022,0.7525,0.7944,0.8148,0.0,0.0,0.0,0.0,0.0,0.0,0.0,0.0,0.0,0.0,0.0,0.0,0.0,0.0,0.0,0.0,0.0,0.0,0.0,0.0,0.0,0.0,0.0,1.244,0.0,0.0,0.0,0.0,0.0,0.0,0.0,0.0,0.0,0.0,0.0,0.0,0.0,0.0,0.0,0.0,0.0,0.0,0.0,0.0,0.0,0.0,0.0,0.0,0.0,0.0,0.0,0.0,0.0,0.0,0.0,0.0,0.0,0.0,0.0,0.6747,0.7799,0.8742,0.9159,0.874,0.8647,0.8285,0.7584,0.7719,0.7897,0.7971,0.9092,1.0196,1.113,1.252,1.3638,1.4538,1.593,1.7217,1.8259,1.8206,1.8155,1.802,1.6873,1.6083,1.556,1.4928,1.4208,1.3462,1.3145,1.2442,1.1417,0.9929,0.8441,0.7043,0.5431,0.3685,0.1824,0.0,0.0,0.0,0.0,0.0,0.0,0.0,0.0,0.0,0.0,0.0,0.7599,0.7982,1.014,1.094,0.9411,0.8572,0.8434,0.9233,0.9534,0.0,0.0,0.0,0.0,0.0,0.0,0.0,0.0,0.0,0.0,0.0,0.0,0.0,0.0,0.0,0.0,0.0,0.0,0.0,0.0,0.0,0.0,1.6839,0.0,0.0,0.0,0.0,0.0,0.0,0.0,0.0,0.0,0.0,0.0,0.0,0.0,0.0,0.0,0.0,0.0,0.0,0.0,0.0,0.0,0.0,0.0,0.0,0.0,0.0,0.0,0.0,0.0,0.0,0.0,0.0,0.0,0.6518,0.7333,0.8007,0.8676,0.9703,1.0288,1.0085,1.0098,1.0034,0.9818,0.9781,1.0008,1.0353,1.1403,1.2283,1.2935,1.4623,1.5386,1.5113,1.6314,1.7852,1.9637,1.9285,1.908,1.8824,1.7594,1.692,1.6695,1.5592,1.475,1.4048,1.3413,1.2757,1.2049,1.0839,0.9757,0.8606,0.6721,0.4672,0.24,0.0,0.0,0.0,0.0,0.0,0.0,0.0,0.0,0.0,0.0,0.2555,0.6433,0.6046,1.0108,1.2418,1.1311,1.0684,1.0,0.9203,0.0,0.0,0.0,0.0,0.0,0.0,0.0,0.0,0.0,0.0,0.0,0.0,0.0,0.0,0.0,0.0,0.0,0.0,0.0,0.0,0.0,0.0,0.0,1.8106,0.0,0.0,0.0,0.0,0.0,0.0,0.0,0.0,0.0,0.0,0.0,0.0,0.0,0.0,0.0,0.0,0.0,0.0,0.0,0.0,0.0,0.0,0.0,0.0,0.0,0.0,0.0,0.0,0.0,0.0,0.0,0.0,0.6844,0.7422,0.8143,0.9135,1.0559,1.1291,1.1667,1.1685,1.2262,1.2377,1.1689,1.2183,1.2527,1.2541,1.3086,1.3609,1.4114,1.5009,1.5918,1.6866,1.791,1.8923,1.9881,1.9897,1.9426,1.8585,1.7627,1.6726,1.5874,1.5517,1.5023,1.442,1.4134,1.3771,1.3212,1.1266,0.9906,0.8776,0.7167,0.4772,0.2023,0.0,0.0,0.0,0.0,0.0,0.0,0.0,0.0,0.0,0.0,0.2276,0.6245,0.7228,1.1012,1.3131,1.225,1.1493,1.0621,0.9501,0.0,0.0,0.0,0.0,0.0,0.0,0.0,0.0,0.0,0.0,0.0,0.0,0.0,0.0,0.0,0.0,0.0,0.0,0.0,0.0,0.0,0.0,0.0,2.1404,1.9143,1.7255,1.5638,1.3887,1.345,1.3417,1.1875,0.0,0.0,0.0,0.0,0.0,0.0,0.0,0.0,0.0,0.0,0.0,0.0,0.0,0.0,0.0,0.0,0.0,0.0,0.0,0.0,0.0,0.0,0.0,0.0,0.831,0.8941,0.9883,0.999,1.0632,1.2212,1.2727,1.3092,1.3614,1.4092,1.4244,1.3978,1.4296,1.4542,1.4558,1.4909,1.5265,1.5525,1.656,1.7424,1.8209,1.9464,2.0344,2.0711,2.0664,2.027,1.9698,1.8312,1.7311,1.6613,1.6069,1.5601,1.5022,1.4882,1.4552,1.4001,0.0,0.0,0.0,0.0,0.4834,0.2513,0.0,0.0,0.0,0.0,0.0,0.0,0.0,0.0,0.0,0.0,0.0,0.65,0.95,1.1898,1.3062,1.2483,1.1455,1.0573,0.0,0.0,0.0,0.0,0.0,0.0,0.0,0.0,0.0,0.0,0.0,0.0,0.0,0.0,0.0,0.0,0.0,0.0,0.0,0.0,0.0,0.0,0.0,0.0,2.5433,2.2732,2.0826,1.929,1.7431,1.6444,1.5742,1.4095,0.0,0.0,0.0,0.0,0.0,0.0,0.0,0.0,0.0,0.0,0.0,0.0,0.0,0.0,0.0,0.0,0.0,0.0,0.0,0.0,0.0,0.0,0.0,0.0,1.1258,1.1353,1.3151,1.2596,1.2498,1.3739,1.403,1.4565,1.5625,1.5827,1.5974,1.623,1.6149,1.6187,1.634,0.0,0.0,0.0,0.0,1.9248,1.9143,2.0946,2.1711,2.1589,2.1463,2.1375,2.1216,1.9163,1.823,1.8062,1.6921,1.6182,1.5732,1.5636,1.5239,1.4465,1.2909,1.1639,1.0446,0.7287,0.5196,0.364,0.0,0.0,0.0,0.0,0.0,0.0,0.0,0.0,0.0,-0.0432,0.2759,0.5501,0.6851,0.9636,1.1711,1.2471,1.1239,1.0332,0.0,0.0,0.0,0.0,0.0,0.0,0.0,0.0,0.0,0.0,0.0,0.0,0.0,0.0,0.0,0.0,0.0,0.0,0.0,0.0,0.0,0.0,0.0,0.0,2.6442,2.4475,2.3105,2.2021,2.0232,1.9959,2.0124,1.8457,1.7287,1.6058,1.3595,0.0,0.0,0.0,0.0,0.0,0.0,0.0,0.0,0.0,0.0,0.0,0.0,0.0,0.0,0.0,0.0,0.0,0.0,0.0,0.0,1.2785,1.3435,1.4169,1.5117,1.554,1.5613,1.5155,1.5538,1.6015,1.6534,1.7312,1.7725,1.7402,1.773,1.7899,1.7629,1.7716,1.7773,1.7765,1.8884,1.9614,2.007,2.1637,2.2265,2.1866,2.2386,0.0,2.0415,1.9249,1.824,1.7438,1.6948,1.6482,1.6074,1.6275,1.5722,1.4599,1.3183,1.1923,1.0684,0.8871,0.7186,0.5513,0.0,0.0,0.0,0.0,0.0,0.0,0.0,0.0,0.0,0.0,0.3055,0.5296,0.6243,0.856,1.05,1.1617,1.0791,0.0,0.0,0.0,0.0,0.0,0.0,0.0,0.0,0.0,0.0,0.0,0.0,0.0,0.0,0.0,0.0,0.0,0.0,0.0,0.0,0.0,0.0,0.0,0.0,0.0,3.0269,2.8218,2.667,2.5377,2.4029,2.3525,2.3237,2.1448,2.0242,1.8981,1.6315,1.4271,1.2565,0.0,0.0,0.0,0.0,0.0,0.0,0.0,0.0,0.0,0.0,0.0,0.0,0.0,0.0,1.7035,0.0,0.0,1.5551,1.6515,1.6607,1.6754,1.7355,1.7676,1.7549,1.6675,1.6703,1.7219,1.8083,1.8718,1.9038,1.9168,1.938,1.9309,1.8911,1.8844,1.8879,1.9056,1.9624,2.0371,2.1258,2.2221,2.2707,2.2821,2.2768,2.2166,2.0974,1.9566,1.8507,1.7687,1.7069,1.6637,1.6446,1.6607,1.6318,1.567,1.443,1.2915,1.122,0.9999,0.8577,0.7001,0.0,0.0,0.0,0.0,0.0,0.0,0.0,0.0,0.0,0.0,0.0,0.5097,0.5896,0.7193,0.8453,0.0,0.0,0.0,0.0,0.0,0.0,0.0,0.0,0.0,0.0,0.0,0.0,0.0,0.0,0.0,0.0,0.0,0.0,0.0,0.0,0.0,0.0,0.0,0.0,0.0,0.0,0.0,3.4236,3.2511,3.0665,2.8851,2.7764,2.6815,2.5799,2.3909,2.2664,2.1438,1.8908,1.7041,1.5391,1.3485,1.2303,0.0,0.0,0.0,0.0,0.0,0.0,0.0,0.0,0.0,1.8212,1.9228,1.9456,1.9684,2.0633,1.9718,1.9154,2.0279,1.9737,1.9285,1.9581,1.9559,1.9297,1.8578,1.8107,1.8324,1.9573,1.9747,2.0009,2.0506,2.0442,2.0248,1.9922,1.9791,1.9831,2.008,2.0322,2.0982,2.1985,2.2502,2.2913,2.3213,2.2671,2.212,2.1567,1.9722,1.8616,1.8086,1.7096,1.6807,1.6976,1.6864,1.6807,1.6751,1.5758,1.4218,1.2364,1.1167,0.9836,0.837,0.0,0.0,0.0,0.0,0.0,0.0,0.0,0.0,0.0,0.0,0.0,0.0,0.0,0.0,0.0,0.0,0.0,0.0,0.0,0.0,0.0,0.0,0.0,0.0,0.0,0.0,0.0,0.0,0.0,0.0,0.0,0.0,0.0,0.0,0.0,0.0,0.0,0.0,0.0,0.0,0.0,0.0,3.5663,3.6159,3.4694,3.2066,3.039,2.9243,2.8224,2.6257,2.5039,2.3964,2.1909,2.0668,1.9412,1.672,0.0,1.4754,1.3819,1.3973,1.4328,1.4126,1.4737,1.594,0.0,0.0,1.8453,2.0033,2.1053,2.1487,2.0955,2.1667,2.2188,2.1759,2.184,2.1959,2.1922,2.1799,2.1661,2.1459,2.0221,1.9486,1.9857,2.014,2.0335,2.0399,2.0399,2.0399,2.0335,2.0183,2.0074,2.0118,2.0665,2.0953,2.0861,2.2182,2.2448,2.1486,2.2004,2.1675,2.0509,1.9157,1.8312,1.778,1.6825,1.6885,1.7534,1.7032,1.6864,1.6899,1.6104,1.5586,1.4958,1.2981,1.1381,1.0058,0.0,0.0,0.0,0.0,0.0,0.0,0.0,0.0,0.0,0.0,0.0,0.0,0.0,0.0,0.0,0.0,0.0,0.0,0.0,0.0,0.0,0.0,0.0,0.0,0.0,0.0,0.0,0.0,0.0,0.0,0.0,0.0,0.0,0.0,0.0,0.0,0.0,0.0,0.0,0.0,0.0,0.0,3.7239,3.7599,3.677,3.519,3.3483,3.1656,0.0,0.0,2.7363,2.6228,2.4317,2.2848,2.1407,1.9236,1.8034,0.0,1.6798,1.6583,0.0,0.0,1.6628,1.7345,1.8018,1.889,1.9882,2.1034,2.2157,2.2993,2.2927,2.34,2.3891,0.0,2.4291,2.4361,2.4346,2.3698,2.3119,2.2863,2.1688,2.086,2.0621,2.0489,2.0506,2.0658,2.0978,2.0978,2.0529,2.0571,2.0575,2.0599,2.0533,2.082,2.1397,2.1485,2.1524,2.1476,2.1362,2.0967,2.0377,1.8865,1.7832,1.7068,1.6691,1.7127,1.8126,1.7614,1.7673,1.8086,1.7319,1.684,1.6325,1.4329,1.3123,1.2318,0.0,0.0,0.0,0.0,0.0,0.0,0.0,0.0,0.0,0.0,0.0,0.0,0.0,0.0,0.0,0.0,0.0,0.0,0.0,0.0,0.0,0.0,0.0,0.0,0.0,0.0,0.0,0.0,0.0,0.0,0.0,0.0,0.0,0.0,0.0,0.0,0.0,0.0,0.0,0.0,0.0,0.0,3.7934,3.8003,3.7492,3.6552,3.5006,3.2756,0.0,0.0,2.8095,2.7361,2.5252,2.4172,2.3288,2.1362,1.9915,1.8889,1.8237,0.0,0.0,1.7773,1.8219,1.8687,1.8559,1.9593,2.0854,2.1601,2.2831,2.3922,2.4217,2.4878,2.5553,2.6149,2.6299,2.6217,2.6233,2.5217,2.4377,2.4054,2.296,2.2043,2.1618,2.0996,2.0776,2.1104,2.1316,2.1247,2.0859,2.0789,2.075,2.0709,2.038,2.0555,2.1371,2.0928,2.0879,2.1305,2.0815,2.0375,1.9899,1.8427,1.7444,1.677,1.6896,1.7615,1.8641,1.8313,1.8511,1.8999,1.8251,1.7905,1.7531,1.5876,1.4921,1.4213,0.0,0.0,0.0,0.0,0.0,0.0,0.0,0.0,0.0,0.0,0.0,0.0,0.0,0.0,0.0,0.0,0.0,0.0,0.0,0.0,0.0,0.0,0.0,0.0,0.0,0.0,0.0,0.0,0.0,0.0,0.0,0.0,0.0,0.0,0.0,0.0,0.0,0.0,0.0,0.0,0.0,0.0,3.7266,3.7526,3.6666,3.5214,3.4039,0.0,0.0,0.0,2.6489,2.6862,2.4111,2.4549,0.0,2.2998,2.0958,1.915,0.0,0.0,1.8817,1.8633,1.9029,1.9681,2.0412,2.052,2.0661,2.1491,2.298,2.4092,2.4112,2.5857,2.7316,2.7289,2.7283,2.7343,2.722,2.6388,2.5627,2.5274,2.3814,2.2902,0.0,2.1892,2.1398,2.1724,2.1215,2.0951,2.133,2.073,2.0335,2.0118,2.027,2.027,2.014,2.0635,2.0722,2.0422,2.0529,1.9942,1.8701,1.7738,1.7328,1.7273,1.7735,1.8434,1.9157,1.9037,1.9037,1.9119,1.8676,1.8652,1.8744,1.8019,1.6838,1.5256,0.0,0.0,0.0,0.0,0.0,0.0,0.0,0.0,0.0,0.0,0.0,0.0,0.0,0.0,0.0,0.0,0.0,0.0,0.0,0.0,0.0,0.0,0.0,0.0,0.0,0.0,0.0,0.0,0.0,0.0,0.0,0.0,0.0,0.0,0.0,0.0,0.0,0.0,0.0,0.0,0.0,3.6645,3.8136,3.8488,3.6572,3.3339,0.0,0.0,0.0,0.0,0.0,0.0,2.483,0.0,0.0,2.3069,2.1138,1.945,1.9378,0.0,1.9796,1.9559,1.9693,1.9937,2.0425,2.0697,2.0955,2.1383,2.2367,2.3319,2.3896,2.4967,2.6198,2.7348,2.7537,2.7759,2.84,2.7472,2.646,2.5767,2.4637,0.0,0.0,0.0,0.0,2.1441,2.1476,2.1388,2.1341,2.1461,2.1285,2.0687,2.082,2.0665,2.014,2.0399,2.0529,2.0399,2.0313,1.9727,1.868,1.847,1.8341,1.8338,1.843,1.9055,1.9977,1.961,1.9749,2.0165,1.9723,1.9554,1.949,1.9034,1.8405,1.7652,0.0,0.0,0.0,0.0,0.0,0.0,0.0,0.0,0.0,0.0,0.0,0.0,0.0,0.0,0.0,0.0,0.0,0.0,0.0,0.0,0.0,0.0,0.0,0.0,0.0,0.0,0.0,0.0,0.0,0.0,0.0,0.0,0.0,0.0,0.0,0.0,0.0,0.0,0.0,0.0,3.3674,3.5999,3.7367,3.71,3.4567,0.0,0.0,0.0,0.0,0.0,0.0,0.0,0.0,2.3364,2.3371,2.2668,2.143,2.0408,2.104,2.0919,2.067,2.0734,2.0577,2.0457,2.0689,2.0864,2.1,2.1065,2.1769,2.2516,2.3073,2.3765,2.4918,2.6938,2.7145,2.746,2.8766,2.7894,2.6824,2.6,2.4992,2.4082,0.0,0.0,0.0,2.1602,2.1767,2.1729,2.1467,2.1804,2.1724,2.1054,2.1151,2.0908,2.0402,2.073,2.0927,2.0992,2.0573,1.9856,1.9019,1.9145,1.9222,1.9243,1.9421,1.9997,2.085,2.0438,2.0493,2.085,2.0464,2.038,2.038,1.9916,1.9754,1.9499,0.0,0.0,0.0,0.0,0.0,0.0,0.0,0.0,0.0,0.0,0.0,0.0,0.0,0.0,0.0,0.0,0.0,0.0,0.0,0.0,0.0,0.0,0.0,0.0,0.0,0.0,0.0,0.0,0.0,0.0,0.0,0.0,0.0,0.0,0.0,0.0,0.0,0.0,0.0,0.0,3.1833,0.0,3.5062,3.3505,0.0,0.0,0.0,0.0,0.0,0.0,0.0,0.0,0.0,0.0,2.1965,2.1936,2.1853,2.181,2.202,2.1705,2.1406,2.1904,2.1541,2.1066,2.1274,2.1019,2.0696,2.0521,2.109,2.1586,0.0,0.0,2.3528,2.5797,2.6095,2.6598,2.8383,2.7656,2.6714,0.0,0.0,0.0,0.0,0.0,0.0,2.226,0.0,2.197,2.1722,2.1919,2.1773,2.1344,2.1303,2.1196,2.095,2.1553,2.1884,2.2082,2.1316,2.052,1.9695,1.9798,1.9986,2.0195,2.0756,2.1279,2.1761,2.1406,2.1302,2.1215,2.0918,2.1016,2.1353,2.0815,2.0754,2.0639,0.0,0.0,0.0,0.0,0.0,0.0,0.0,0.0,0.0,0.0,0.0,0.0,0.0,0.0,0.0,0.0,0.0,0.0,0.0,0.0,0.0,0.0,0.0,0.0,0.0,0.0,0.0,0.0,0.0,0.0,0.0,0.0,0.0,0.0,0.0,0.0,0.0,0.0,0.0,0.0,0.0,3.0503,3.1911,0.0,0.0,0.0,0.0,0.0,0.0,0.0,0.0,0.0,0.0,0.0,2.1756,2.2332,2.2007,2.1447,2.162,2.1315,2.1046,2.1166,2.0598,2.0104,2.0515,2.0194,1.9609,1.8982,1.8956,1.8582,0.0,0.0,0.0,2.2441,2.4569,0.0,2.881,2.8449,0.0,2.7162,0.0,2.5733,2.4614,2.4382,0.0,0.0,2.27,2.2307,2.2232,2.2856,2.2906,2.232,2.282,2.2777,2.2252,2.2791,2.3148,2.3214,2.3006,2.2601,2.2131,2.2131,2.2329,2.2592,2.2667,2.2568,2.2432,2.2704,2.2263,2.1593,2.1756,2.1777,2.1751,2.1268,2.1054,2.0836,0.0,0.0,0.0,0.0,0.0,0.0,0.0,0.0,0.0,0.0,0.0,0.0,0.0,0.0,0.0,0.0,0.0,0.0,0.0,0.0,0.0,0.0,0.0,0.0,0.0,0.0,0.0,0.0,0.0,0.0,0.0,0.0,0.0,0.0,0.0,0.0,0.0,0.0,0.0,0.0,0.0,0.0,0.0,0.0,0.0,0.0,0.0,0.0,0.0,0.0,0.0,2.032,2.1227,2.1581,2.1849,2.2665,0.0,2.1584,2.1863,2.1456,2.0924,2.0738,1.9976,1.9233,1.9004,1.8542,1.7786,1.6441,1.6333,0.0,0.0,0.0,0.0,0.0,0.0,0.0,2.8422,2.8552,2.8176,0.0,2.7037,0.0,2.5283,2.5228,2.5072,0.0,2.3656,2.3091,2.3079,2.3771,2.3948,2.3334,2.3812,2.391,2.3668,2.414,2.4432,2.4499,2.4475,2.4153,2.3513,2.3646,2.3779,2.3845,2.3803,2.3568,2.3304,2.3418,2.2905,2.2026,2.223,2.2271,2.2169,2.1838,2.1826,2.1782,0.0,0.0,0.0,0.0,0.0,0.0,0.0,0.0,0.0,0.0,0.0,0.0,0.0,0.0,0.0,0.0,0.0,0.0,0.0,0.0,0.0,0.0,0.0,0.0,0.0,0.0,0.0,0.0,0.0,0.0,0.0,0.0,0.0,0.0,0.0,0.0,0.0,0.0,0.0,0.0,0.0,0.0,0.0,0.0,0.0,0.0,0.0,0.0,0.0,0.0,1.6626,1.9754,2.0941,2.1579,2.2045,2.2759,2.2393,2.1883,2.213,2.165,2.0951,2.0321,1.95,1.8484,1.7247,1.6497,1.55,1.346,0.0,1.3219,1.1986,1.4365,1.7213,1.9224,0.0,2.5724,2.7842,2.8349,2.8222,2.7555,2.7179,2.6723,2.6031,2.6031,2.5977,2.5799,2.5028,2.4475,2.4327,2.4884,2.4992,2.4533,2.4704,2.4968,2.5296,2.556,2.5762,2.6063,2.5971,2.5428,2.4583,2.4921,2.4946,2.4748,2.4698,2.4492,2.422,2.4111,2.3506,2.2754,2.273,2.286,2.2928,2.2805,2.2922,2.3198,0.0,0.0,0.0,0.0,0.0,0.0,0.0,0.0,0.0,0.0,-0.094,-0.1068,0.0,0.0,0.0,0.0,0.0,0.0,0.0,0.0,0.0,0.0,0.0,0.0,0.0,0.0,0.0,0.0,0.0,0.0,0.0,0.0,0.0,0.0,0.0,0.0,0.0,0.0,0.0,0.0,0.0,0.0,0.0,0.0,0.0,0.0,0.0,0.0,0.0,0.0,1.5497,1.8879,1.9966,2.1117,2.1969,2.1821,2.1821,2.1645,2.0871,2.0862,2.0782,1.9356,1.8666,1.7958,1.6515,1.4727,0.0,0.0,1.0378,0.9687,0.8969,1.2448,1.6032,1.7892,0.0,0.0,0.0,0.0,2.8875,0.0,0.0,0.0,0.0,0.0,0.0,0.0,2.7514,2.7011,2.5777,2.6136,2.6351,2.6311,2.6478,2.6856,2.7341,2.7088,2.7291,2.7936,2.7756,2.7472,2.7189,2.7576,2.7519,2.7182,2.6901,2.6243,2.5338,2.5269,2.4919,2.4424,2.4434,2.4619,2.4921,2.4898,2.4735,2.4437,0.0,0.0,0.0,0.0,0.0,0.0,0.0,0.0146,-0.0144,0.065,-0.0686,-0.1131,0.0404,-0.0487,-0.1168,0.0,0.0,0.0,0.0,0.0,0.0,0.0,0.0,0.0,0.0,0.0,0.0,0.0,0.0,0.0,0.0,0.0,0.0,0.0,0.0,0.0,0.0,0.0,0.0,0.0,0.0,0.0,0.0,0.0,0.0,0.0,0.0,0.0,0.0,0.0,1.1746,1.5406,1.8511,1.9989,2.057,2.0553,2.0321,1.9957,1.9423,1.9287,1.9136,1.813,1.7366,1.6291,1.4165,0.0,0.0,0.0,0.6894,0.6502,0.6295,0.994,0.0,0.0,0.0,0.0,0.0,0.0,0.0,0.0,0.0,0.0,0.0,0.0,0.0,2.8964,2.9714,2.9267,2.7353,2.7403,2.7606,2.7903,2.7873,2.7982,2.8292,2.843,2.8638,2.9039,2.9108,2.8969,2.8575,2.8905,2.8677,2.8072,2.7821,2.7257,2.6432,2.6311,2.5872,2.5303,2.5437,2.5463,2.5483,2.589,2.5926,2.578,0.0,0.0,0.0,0.0,0.0,0.0,0.0,-0.011,-0.0589,0.0888,0.0165,-0.044,-0.0301,-0.042,-0.076,0.0,0.0,0.0,0.0,0.0,0.0,0.0,0.0,0.0,0.0,0.0,0.0,0.0,0.0,0.0,0.0,0.0,0.0,0.0,0.0,0.0,0.0,0.0,0.0,0.0,0.0,0.0,0.0,0.0,0.0,0.0,0.0,0.0,0.0,0.0,0.7473,1.0505,1.4835,1.705,1.8124,1.829,1.8075,1.7707,1.7588,1.7634,1.7549,1.6935,1.609,1.4619,1.1802,0.9539,0.0,0.0,0.3501,0.353,0.4108,0.716,0.0,0.0,0.0,0.0,0.0,0.0,0.0,0.0,0.0,0.0,0.0,0.0,0.0,3.017,3.1402,3.1229,2.9337,2.9303,2.9328,2.9349,2.9272,2.913,2.9073,2.9469,2.975,2.9954,3.0234,3.0094,2.96,2.9874,2.9542,2.8791,2.8543,2.8051,2.7506,2.7184,2.6728,2.638,2.6457,2.6364,2.6358,2.7092,2.7255,2.729,0.0,0.0,0.0,0.0,0.0,0.0,0.0,0.0,-0.0628,0.1672,0.1301,0.0222,-0.1369,-0.1565,-0.1696,0.0,0.0,0.0,0.0,0.0,0.0,0.0,0.0,0.0,0.0,0.0,0.0,0.0,0.0,0.0,0.0,0.0,0.0,0.0,0.0,0.0,0.0,0.0,0.0,0.0,0.0,0.0,0.0,0.0,0.0,0.0,0.0,0.0,0.0,0.0,0.0,0.4391,0.6702,1.0543,1.4128,1.424,0.0,0.0,1.51,1.6375,1.7296,1.5785,1.5044,1.3831,1.0681,0.7191,0.3966,0.1642,0.0702,0.0817,0.2581,0.4334,0.7344,0.0,0.0,1.8694,0.0,0.0,0.0,0.0,0.0,0.0,0.0,0.0,0.0,3.0959,3.2169,3.2699,3.2306,3.2724,3.2172,3.057,3.0719,3.0629,3.0224,2.9936,3.0244,3.1135,3.0993,3.078,3.0565,3.095,3.0817,3.0163,2.9602,2.9149,2.8675,2.7829,2.7846,2.8488,2.8092,2.8444,2.9103,2.9594,2.9534,2.9197,0.0,0.0,0.0,0.0,0.0,0.0,-0.0394,-0.1365,-0.1336,0.1111,0.1215,0.1052,0.1011,0.0463,-0.0758,-0.2911,0.0,0.0,0.0,0.0,0.0,0.0,0.0,0.0,0.0,0.0,0.0,-0.4608,-0.4502,0.0,0.0,0.0,0.0,0.0,0.0,0.0,0.0,0.0,0.0,0.0,0.0,0.0,0.0,0.0,0.0,0.0,0.0,0.0,0.0,0.0,0.0,0.0,0.1294,0.3359,0.0,0.0,1.0867,1.1719,1.2314,1.3621,1.46,1.3864,1.3112,1.1692,0.8361,0.0,0.219,0.0046,-0.1108,-0.105,0.1144,0.2711,0.5272,0.0,1.2523,0.0,0.0,0.0,0.0,0.0,0.0,0.0,0.0,0.0,3.1788,3.342,3.4848,3.5357,3.4952,3.4092,3.3218,3.2484,3.2087,3.1845,3.1681,3.1242,3.1227,3.1685,3.2182,3.2171,3.1755,3.2368,3.2328,3.1603,3.1215,3.0879,3.0565,2.9841,2.9696,2.9927,2.9542,2.9535,2.9857,3.0507,3.0628,3.0505,0.0,0.0,0.0,0.0,0.0,-0.2669,-0.1733,-0.1699,-0.0947,0.1375,0.2317,0.2766,0.2733,0.2199,0.0501,-0.2743,-0.3151,0.0,0.0,0.0,0.0,0.0,0.0,0.0,0.0,0.0,-0.4984,-0.4672,-0.4276,-0.4171,0.0,0.0,0.0,0.0,0.0,0.0,0.0,0.0,0.0,0.0,0.0,0.0,0.0,0.0,0.0,0.0,0.0,0.0,0.0,0.0,0.0,0.0,0.0,0.0,0.0,0.0,0.6761,0.7667,0.901,1.0397,1.1502,1.1564,1.1167,0.9797,0.0,0.0,0.0594,-0.1763,-0.282,-0.2647,-0.0498,0.1199,0.3594,0.7785,0.9793,1.2539,1.7417,0.0,0.0,0.0,0.0,0.0,0.0,0.0,3.3373,3.5032,3.6497,3.7066,3.6642,3.5664,3.478,3.417,3.3369,3.2943,3.2943,3.2267,3.2044,3.2233,3.2833,3.2874,3.2448,3.3138,3.3093,3.246,3.23,3.214,3.1898,3.1329,3.1158,3.1307,3.0832,3.0761,3.0931,3.1467,3.1614,3.1601,0.0,0.0,0.0,0.0,0.0,0.0,-0.162,-0.0355,0.1065,0.3032,0.5282,0.5695,0.292,0.2823,0.1787,-0.1164,-0.2578,0.0,0.0,0.0,0.0,0.0,0.0,0.0,0.0,0.0,-0.5237,-0.5277,-0.496,-0.4611,-0.4277,-0.3817,-0.3677,-0.3743,0.0,0.0,0.0,0.0,0.0,0.0,0.0,0.0,0.0,0.0,0.0,0.0,0.0,0.0,0.0,0.0,0.0,0.0,0.0,0.0,0.0,0.0,0.2372,0.3115,0.5027,0.6902,0.8377,0.874,0.9268,0.8577,0.0,0.0,-0.1027,-0.4045,-0.4545,-0.4017,-0.2462,-0.0357,0.2254,0.5685,0.78,1.1094,1.6945,0.0,0.0,0.0,0.0,0.0,0.0,0.0,3.4121,3.5304,3.6579,0.0,3.7268,3.7912,3.7265,3.526,3.4399,3.4023,3.4023,3.2631,3.2334,3.305,3.2799,3.2573,3.2448,3.2802,3.2909,3.2698,3.246,3.238,3.238,3.1979,3.2148,3.2548,3.2047,3.2226,3.2698,3.2698,3.255,3.2474,0.0,0.0,0.0,0.0,0.0,0.0,0.0,-0.3403,-0.2088,-0.0108,0.0958,0.1837,0.2591,0.1717,0.0712,-0.0223,-0.1933,0.0,0.0,0.0,0.0,0.0,0.0,0.0,0.0,0.0,-0.5414,-0.5169,-0.4728,-0.4251,-0.3761,-0.3501,-0.3348,-0.3237,-0.2595,0.0,0.0,0.0,0.0,0.0,0.0,0.0,0.0,0.0,0.0,0.0,0.0,0.0,0.0,0.0,0.0,0.0,0.0,0.0,0.0,0.0,0.0,0.0,0.1193,0.2619,0.3884,0.408,0.4053,0.3237,0.0491,0.0,-0.3246,-0.48,-0.4992,-0.4405,-0.2758,-0.1257,0.1467,0.6838,1.1048,1.4438,1.683,0.0,0.0,0.0,0.0,0.0,0.0,0.0,3.4888,3.6115,3.7619,3.844,3.862,3.9161,3.8596,3.6493,3.5648,3.5085,3.4804,3.4087,3.3786,3.3902,3.4082,3.4039,3.3831,3.4099,3.412,3.3849,3.3766,3.3792,3.3792,3.3462,3.3373,3.3326,3.3133,3.281,3.2512,3.2705,3.2519,3.2138,0.0,0.0,0.0,0.0,0.0,0.0,0.0,-0.4197,-0.2736,-0.1636,-0.0398,0.0828,0.1997,0.0748,-0.0158,-0.0107,-0.1864,0.0,0.0,0.0,0.0,0.0,0.0,0.0,0.0,-0.5634,-0.5397,-0.5016,-0.4164,-0.3422,-0.2888,-0.2156,-0.2097,-0.2566,-0.2068,0.0,0.0,0.0,0.0,0.0,0.0,0.0,-0.2414,0.0,0.0,0.0,0.0,0.0,0.0,0.0,0.0,0.0,0.0,0.0,0.0,0.0,-0.4695,0.0,0.0,-0.0725,0.0382,0.0647,0.0274,0.0,0.0,0.0,0.0,-0.5677,-0.534,-0.4557,-0.3149,-0.1815,0.0603,0.5337,1.0798,1.4845,1.5801,0.0,0.0,0.0,0.0,0.0,0.0,3.435,3.5381,3.6798,3.8142,3.9078,3.943,4.0191,3.9787,3.8097,3.6759,3.5906,3.5774,3.5002,3.4547,3.4503,3.473,3.4684,3.4393,3.4656,3.4673,3.4397,3.4314,3.4314,0.0,3.4063,3.3938,3.3999,3.3746,3.3444,3.3306,3.3293,3.3015,3.2723,0.0,0.0,0.0,0.0,0.0,0.0,0.0,-0.3348,-0.1597,-0.1965,0.0328,0.168,0.0913,-0.0263,-0.0955,-0.0822,0.0,0.0,0.0,0.0,0.0,0.0,0.0,0.0,0.0,-0.553,-0.524,-0.4898,-0.3317,-0.2269,-0.1681,-0.0,-0.0113,-0.1682,-0.0862,-0.1115,0.0,0.0,0.0,0.0,0.0,0.0,0.0,0.0,0.0,0.0,0.0,0.0,0.0,0.0,0.0,0.0,0.0,0.0,0.0,0.0,0.0,0.0,0.0,0.0,0.0,0.0,0.0,0.0,0.0,0.0,0.0,0.0,0.0,0.0,-0.3364,-0.1955,-0.0163,0.2376,0.8187,1.2981,0.0,0.0,0.0,0.0,0.0,0.0,3.3427,3.4603,3.5872,3.7261,3.8361,3.9244,3.9865,4.0866,4.0967,3.9923,3.7825,3.6694,3.6777,3.5554,3.494,3.4977,3.5004,3.4793,3.442,3.468,3.4726,3.445,3.4224,3.414,3.414,3.3913,3.4161,3.4561,3.401,3.4134,3.4495,3.404,3.3833,3.3808,0.0,0.0,0.0,0.0,0.0,0.0,0.0,0.0,0.0,0.0,-0.3406,-0.2898,-0.2776,-0.2888,-0.2948,0.0,0.0,0.0,0.0,0.0,0.0,0.0,0.0,0.0,0.0,-0.553,-0.5165,-0.4832,-0.3082,-0.1474,-0.0027,0.1753,0.1676,0.0036,0.0439,-0.0284,0.0,0.0,0.0,0.0,0.0,0.0,0.0,0.0,0.0,0.0,-0.7152,-0.7553,0.0,0.0,0.0,0.0,0.0,0.0,0.0,0.0,-0.7206,-0.7462,-0.6943,0.0,-0.5847,-0.5721,0.0,0.0,0.0,0.0,0.0,0.0,0.0,0.0,0.0,0.0,0.0846,0.6311,1.0431,1.3638,1.5644,0.0,0.0,0.0,0.0,0.0,3.5144,3.5981,3.6989,3.8144,3.9253,4.0231,4.1213,4.1492,4.1368,4.0799,4.001,3.8917,3.7714,3.7986,3.7613,3.6713,3.6825,3.671,3.6485,3.5574,3.5077,3.4821,3.471,3.465,3.4529,3.4853,3.4844,3.4614,3.4345,3.381,3.3203,3.2956,3.2599,3.2285,0.0,0.0,0.0,0.0,0.0,0.0,0.0,0.0,0.0,0.0,0.0,0.0,0.0,0.0,0.0,0.0,0.0,0.0,0.0,0.0,0.0,0.0,0.0,0.0,-0.6357,-0.5553,-0.484,-0.4308,-0.252,-0.0553,0.1582,0.2909,0.2799,0.1417,0.0081,-0.0831,-0.1329,0.0,0.0,0.0,-0.2105,0.0,0.0,0.0,0.0,0.0,-0.6932,-0.7304,0.0,-0.7222,-0.7052,-0.7118,0.0,0.0,0.0,0.0,-0.7603,-0.8187,-0.7985,-0.7592,-0.7237,-0.7348,-0.7148,-0.7013,0.0,0.0,0.0,0.0,0.0,0.0,0.0,0.0,0.0,0.6002,1.0146,0.0,0.0,0.0,0.0,0.0,0.0,3.6632,0.0,3.7564,3.8281,3.9391,4.0006,4.0793,4.1922,4.2122,4.2027,4.1709,4.1609,4.0445,3.8167,3.888,3.8473,3.7126,3.7564,3.7501,3.6989,3.6326,3.5765,3.5331,3.5156,3.4981,3.4831,3.5048,3.5057,3.4919,3.4619,3.4225,3.3805,3.3377,3.3256,3.3276,0.0,0.0,0.0,0.0,0.0,0.0,0.0,0.0,0.0,0.0,0.0,0.0,0.0,0.0,0.0,0.0,0.0,0.0,0.0,0.0,0.0,0.0,0.0,-0.5941,-0.6477,-0.536,-0.4399,-0.3709,-0.161,0.0638,0.3,0.414,0.3923,0.2415,-0.0886,-0.1984,-0.1328,-0.0713,-0.0997,-0.1923,-0.2755,0.0,0.0,0.0,0.0,0.0,0.0,0.0,0.0,-0.7547,-0.7167,-0.6829,-0.7419,0.0,0.0,0.0,0.0,0.0,-0.8246,-0.791,-0.7659,-0.7857,-0.7547,-0.7315,0.0,0.0,0.0,0.0,0.0,0.0,0.0,0.0,0.0,0.0,0.0,0.0,0.0,0.0,0.0,0.0,0.0,0.0,3.8689,3.894,3.9414,4.0506,4.0621,4.1237,4.2363,4.2607,4.2607,4.2415,4.2614,4.1366,3.871,3.9276,3.8697,3.6935,3.7923,3.7915,3.695,3.6864,3.6542,3.5952,3.5583,3.5315,3.5212,3.4942,3.4944,3.509,3.4686,3.4673,3.4823,3.41,3.4245,3.4775,0.0,0.0,0.0,0.0,0.0,0.0,0.0,0.0,0.0,0.0,0.0,0.0,0.0,0.0,0.0,0.0,0.0,0.0,0.0,0.0,0.0,0.0,-0.463,-0.4329,-0.4596,-0.4314,-0.3994,-0.3695,-0.0084,0.2398,0.3792,0.6868,0.635,0.2675,-0.1001,-0.2747,-0.2877,-0.1654,-0.1494,-0.2112,-0.2748,0.0,0.0,0.0,0.0,0.0,0.0,0.0,0.0,-0.759,-0.7226,-0.6869,-0.7411,0.0,0.0,0.0,0.0,0.0,-0.8143,-0.8086,-0.8218,-0.8344,-0.7747,-0.717,0.0,0.0,0.0,0.0,0.0,0.0,0.0,0.0,0.0,0.0,0.0,0.0,0.0,0.0,0.0,0.0,0.0,3.7685,3.8546,3.9247,4.0009,4.0723,4.1353,4.1947,4.2392,4.2607,4.2688,4.2688,4.2555,4.1762,4.0452,4.0879,3.9759,3.7235,3.8663,3.8749,3.759,3.7414,3.7059,3.6496,3.5737,3.5519,3.577,3.5336,3.5015,3.476,3.4015,3.3708,3.3546,3.2923,3.3068,3.3666,0.0,0.0,0.0,0.0,0.0,0.0,0.0,0.0,0.0,0.0,0.0,0.0,0.0,0.0,0.0,0.0,0.0,0.0,0.0,0.0,0.0,-0.4562,-0.4061,-0.4093,-0.4777,-0.3693,-0.2533,-0.1332,0.14,0.4057,0.6553,0.6748,0.5172,0.2052,-0.1348,-0.2938,-0.2996,-0.2289,-0.2226,-0.264,0.0,0.0,0.0,0.0,0.0,0.0,0.0,0.0,0.0,0.0,-0.7814,-0.7366,-0.809,0.0,0.0,0.0,0.0,0.0,-0.8511,-0.8353,-0.8143,-0.8187,-0.7589,-0.7026,0.0,0.0,0.0,0.0,0.0,0.0,0.0,0.0,0.0,0.0,0.0,0.0,0.0,0.0,0.0,0.0,0.0,3.8457,3.916,4.0139,4.0757,4.1076,4.193,4.2444,4.2555,4.2769,4.285,4.285,4.2688,4.1865,4.0358,4.0596,3.9703,3.7838,3.9059,3.8819,3.7243,3.7475,3.7006,3.6006,3.5968,3.576,3.5487,3.5412,3.5252,3.4942,3.4293,3.4006,3.3887,3.3743,3.3552,3.3434,0.0,0.0,0.0,0.0,0.0,0.0,0.0,0.0,0.0,0.0,0.0,0.0,0.0,0.0,0.0,0.0,0.0,0.0,0.0,0.0,-0.3846,-0.3887,-0.3696,-0.3915,-0.457,-0.268,-0.0776,0.11,0.3319,0.5918,0.8772,0.6419,0.3881,0.124,-0.1255,-0.2603,-0.3021,-0.2923,-0.299,-0.3231,0.0,0.0,0.0,0.0,0.0,0.0,0.0,0.0,0.0,0.0,0.0,0.0,0.0,0.0,0.0,-0.889,-0.8812,-0.8656,-0.8894,-0.8524,-0.7968,-0.7638,0.0,0.0,0.0,0.0,0.0,0.0,0.0,0.0,0.0,0.0,0.0,0.0,0.0,0.0,0.0,0.0,3.3262,3.5495,3.7365,3.8841,3.9618,4.0676,4.1331,4.1346,4.2173,4.2607,4.2688,4.285,4.2981,4.2981,4.2769,4.1807,4.0134,4.0028,3.9363,3.7972,3.9034,3.8663,3.7063,3.7457,3.698,3.5827,3.5788,3.5486,3.5208,3.4981,3.4844,3.475,3.4173,3.405,3.4169,3.4483,3.4098,3.3593,0.0,0.0,0.0,0.0,0.0,0.0,0.0,0.0,0.0,0.0,0.0,0.0,0.0,0.0,0.0,0.0,0.0,0.0,0.0,0.0,-0.3665,-0.3551,-0.34,-0.3053,-0.2436,-0.0573,0.1011,0.2277,0.613,0.8336,0.8862,0.7226,0.4365,0.0547,-0.0173,-0.1663,-0.364,-0.3703,-0.3725,-0.3819,-0.4719,0.0,0.0,0.0,0.0,0.0,0.0,0.0,0.0,0.0,0.0,0.0,0.0,0.0,-0.9371,-0.9724,-0.9804,-0.9646,-0.8998,-0.852,-0.79,-0.6706,0.0,0.0,0.0,0.0,0.0,0.0,0.0,0.0,0.0,0.0,0.0,0.0,0.0,0.0,0.0,0.0,3.3434,3.5305,3.6662,3.7883,3.9073,4.0187,4.094,4.1128,4.193,4.2474,4.2688,4.2688,4.285,4.2981,4.2607,4.1872,4.0757,4.0095,3.8956,3.7405,3.8339,3.8437,3.7665,3.7528,3.7246,3.6903,3.4945,3.451,3.5084,3.3387,3.3107,3.3659,3.2889,3.2912,3.3405,3.3997,3.3941,3.3744,0.0,0.0,0.0,0.0,0.0,0.0,0.0,0.0,0.0,0.0,0.0,0.0,0.0,0.0,0.0,0.0,0.0,0.0,0.0,0.0,-0.3431,-0.3382,-0.3203,-0.2648,-0.1666,0.024,0.225,0.4321,0.7176,0.8241,0.7546,0.5124,0.2538,-0.0112,-0.1306,-0.248,-0.3555,-0.4034,-0.4423,-0.4849,-0.5985,-0.6986,0.0,0.0,0.0,0.0,0.0,0.0,0.0,0.0,-1.0337,-0.9796,0.0,-1.0003,-0.9889,-1.015,-0.9926,-0.9496,-0.9211,-0.8191,-0.7083,-0.6289,0.0,0.0,0.0,0.0,0.0,0.0,0.0,0.0,0.0,0.0,0.0,0.0,0.0,0.0,2.9515,3.1443,3.3016,3.4313,3.597,3.7226,3.809,3.908,3.9731,4.012,4.1163,4.1858,4.1909,4.2533,4.285,4.285,4.2688,4.1726,4.0032,3.9482,3.8404,3.692,3.7648,3.7313,3.6106,3.6113,3.5827,3.5223,3.4285,3.3909,3.3873,3.33,3.3167,3.3387,3.3238,3.3301,3.336,3.4047,3.4133,3.4023,0.0,0.0,0.0,0.0,0.0,0.0,0.0,0.0,0.0,0.0,0.0,0.0,0.0,0.0,0.0,0.0,0.0,0.0,-0.3686,-0.3492,-0.3347,-0.331,-0.3074,-0.2437,-0.1354,0.0411,0.2602,0.5241,0.7454,0.7688,0.5983,0.3454,0.1238,-0.0679,-0.219,-0.3029,-0.3381,-0.4351,-0.5026,-0.5605,-0.6977,-0.8126,0.0,0.0,0.0,0.0,0.0,0.0,0.0,0.0,-1.1157,0.0,0.0,0.0,0.0,0.0,-0.9896,-0.9507,-0.9203,-0.8055,-0.6774,0.0,0.0,0.0,0.0,0.0,0.0,0.0,0.0,0.0,0.0,0.0,0.0,0.0,0.0,2.7427,2.9827,3.1292,3.2513,3.3635,3.5091,3.6305,3.695,3.7949,3.8695,3.9112,4.0147,4.0924,4.1317,4.2048,4.2452,4.2444,4.2444,4.1477,3.9321,3.9045,3.7997,3.6303,3.6634,3.6302,3.5482,3.5192,3.4743,3.408,3.3457,3.3053,3.2742,3.2626,3.2653,3.2827,3.336,3.3392,3.3238,3.3821,3.4004,3.4119,0.0,0.0,0.0,0.0,0.0,0.0,0.0,0.0,0.0,0.0,0.0,0.0,0.0,0.0,0.0,0.0,0.0,0.0,-0.3686,-0.3571,-0.3457,-0.3315,-0.299,-0.2379,-0.1452,-0.0052,0.1989,0.4685,0.7025,0.6842,0.4331,0.271,0.0869,-0.1187,-0.2442,-0.3031,-0.3197,-0.4671,-0.5531,-0.6052,-0.7572,-0.8693,-0.9424,0.0,0.0,0.0,0.0,0.0,0.0,0.0,-1.1885,0.0,0.0,0.0,0.0,0.0,-0.9842,-0.9826,-0.893,-0.8095,0.0,0.0,0.0,0.0,0.0,0.0,0.0,0.0,0.0,0.0,0.0,0.0,0.0,2.2423,2.5205,2.7798,3.0228,3.113,3.1979,3.3257,3.4065,3.4823,3.569,3.7069,3.8037,3.8252,3.9059,3.9929,4.1047,4.1317,4.1609,4.2005,4.1951,4.1015,3.8861,3.8861,3.781,3.571,3.5303,3.5473,3.6192,3.5107,3.4338,3.3882,3.2337,3.1689,3.1622,3.1112,3.1213,3.1771,3.2887,3.3092,3.2959,3.3128,3.3492,3.3994,0.0,0.0,0.0,0.0,0.0,0.0,0.0,0.0,0.0,0.0,0.0,0.0,0.0,0.0,0.0,0.0,0.0,0.0,-0.3571,-0.349,-0.3581,-0.3907,-0.3759,-0.3708,-0.3863,-0.1969,0.0538,0.3655,0.4396,0.3771,0.1839,0.0224,-0.1164,-0.2305,-0.2925,-0.3425,-0.3891,-0.5267,-0.6046,-0.6451,-0.8002,-0.8945,-0.9515,0.0,0.0,0.0,0.0,0.0,0.0,0.0,0.0,0.0,0.0,0.0,0.0,-1.0792,-1.0553,-1.0248,-0.9408,0.0,0.0,0.0,0.0,0.0,0.0,0.0,0.0,0.0,0.0,0.0,0.0,0.0,0.0,2.2693,2.4886,2.6887,2.8702,2.9984,3.0883,3.1264,3.2573,3.3841,3.4568,3.5338,3.6235,3.731,3.7901,3.8484,3.9269,4.0018,4.0336,4.0268,4.0268,3.9463,3.7782,3.7428,3.636,3.4564,3.4256,3.4412,3.4894,3.3989,3.3469,3.3314,3.2208,3.1545,3.1205,3.0796,3.0935,3.1426,3.1895,3.2565,3.3151,3.3309,3.3816,3.4493,0.0,0.0,0.0,0.0,0.0,0.0,0.0,0.0,0.0,0.0,0.0,0.0,0.0,0.0,0.0,0.0,0.0,0.0,0.0,-0.3323,-0.3586,-0.3996,-0.379,-0.3915,-0.4426,-0.2946,-0.1281,0.054,0.1842,0.1587,-0.0087,-0.0934,-0.1733,-0.2444,-0.2835,-0.3229,-0.3735,-0.492,-0.5862,-0.6663,-0.7987,-0.894,-0.9564,0.0,0.0,0.0,0.0,0.0,0.0,0.0,0.0,0.0,0.0,0.0,0.0,-1.0836,-1.0377,-0.9839,-0.903,0.0,0.0,0.0,0.0,0.0,0.0,0.0,0.0,0.0,0.0,0.0,0.0,0.0,0.0,2.2702,2.4317,2.5871,2.7538,2.8902,2.9821,3.006,3.1516,3.2631,3.3208,3.4014,3.4977,3.6041,3.648,3.7135,3.8303,3.8682,3.8996,3.924,3.913,3.8415,3.6935,3.6252,3.508,3.3476,3.303,3.2861,3.303,3.276,3.2494,3.2027,3.1038,3.0606,3.0516,3.0504,3.0678,3.114,3.1229,3.1788,3.2498,3.2768,3.3247,3.3945,0.0,0.0,0.0,0.0,0.0,0.0,0.0,0.0,0.0,0.0,0.0,0.0,0.0,0.0,0.0,0.0,0.0,0.0,0.0,0.0,-0.3476,-0.3719,-0.3549,-0.3607,-0.3985,-0.3466,-0.3363,-0.3741,-0.061,0.007,-0.1542,-0.1239,-0.1419,-0.2048,-0.2441,-0.2814,-0.3193,-0.4098,-0.5275,-0.6615,-0.758,-0.8586,-0.9506,-0.9629,0.0,0.0,0.0,0.0,0.0,0.0,0.0,0.0,0.0,0.0,0.0,-1.0411,-0.9757,-0.8994,0.0,0.0,0.0,0.0,0.0,0.0,0.0,0.0,0.0,0.0,0.0,0.0,0.0,0.0,2.0523,2.2496,2.3587,2.4822,2.6595,2.7812,2.8831,2.9321,3.0598,3.1526,3.1836,3.2962,3.3993,3.4654,3.4862,3.5747,3.7545,3.7303,3.7501,3.8415,3.817,3.7318,3.5948,3.4974,3.3788,3.2281,3.1635,3.1064,3.0659,3.1525,3.1368,3.0415,2.9508,2.9336,2.9731,2.9956,3.0296,3.0724,3.0681,3.0978,3.1381,3.1671,3.2243,3.2908,0.0,0.0,0.0,0.0,0.0,0.0,0.0,0.0,0.0,0.0,0.0,0.0,0.0,0.0,0.0,0.0,0.0,0.0,0.0,0.0,-0.3287,-0.3911,-0.4758,-0.5545,-0.6207,-0.559,-0.5369,-0.562,-0.2666,-0.1725,-0.2661,-0.2514,-0.2691,-0.3096,-0.3438,-0.3823,-0.4226,-0.4785,-0.546,-0.6178,-0.6711,-0.7649,-0.8688,-0.8267,-0.9034,0.0,0.0,0.0,0.0,0.0,0.0,0.0,-1.226,-1.1595,-1.1005,-1.1061,-1.0343,0.0,0.0,0.0,0.0,0.0,0.0,0.0,0.0,0.0,0.0,0.0,0.0,0.0,0.0,1.9651,2.0461,2.2239,2.2975,2.3798,2.5277,2.688,2.8003,2.8562,2.9931,3.0958,3.1319,3.1915,3.2541,3.3382,3.3565,3.4062,3.4826,3.4794,3.4744,3.4835,3.4627,3.3993,3.3034,3.2255,3.1307,3.0121,3.0036,2.9612,2.9014,3.0299,3.0441,2.9715,2.8861,2.8731,2.9125,2.8958,2.9307,2.9826,2.9942,3.0545,3.1324,3.1581,3.2055,3.2788,0.0,0.0,0.0,0.0,0.0,0.0,0.0,0.0,0.0,0.0,0.0,0.0,0.0,0.0,0.0,0.0,0.0,0.0,0.0,0.0,0.0,-0.4208,-0.5358,-0.6236,-0.6798,-0.6557,-0.6345,-0.6156,-0.4745,0.0,0.0,0.0,0.0,-0.2682,-0.3042,-0.3281,-0.3503,-0.422,-0.5028,-0.586,-0.6451,-0.7168,-0.7856,-0.7793,-0.8435,-0.9419,-0.9332,0.0,0.0,0.0,0.0,0.0,0.0,0.0,-1.0951,-1.1106,-1.0288,-0.9326,0.0,0.0,0.0,0.0,0.0,0.0,0.0,0.0,0.0,0.0,0.0,0.0,1.9243,1.956,2.0114,2.1581,2.2289,2.3078,2.4516,2.6114,2.7469,2.8167,2.9043,2.9704,3.0114,3.0394,3.0801,3.1315,3.1341,3.1832,3.2925,3.2505,3.2458,3.2935,3.2646,3.2089,3.1148,3.0351,2.9404,2.8333,2.8155,2.7922,2.7683,2.8987,2.9301,2.8746,2.8207,2.8199,2.8562,2.845,2.8798,2.9318,2.9411,2.9939,3.0721,3.0717,3.1182,3.1856,0.0,0.0,0.0,0.0,0.0,0.0,0.0,0.0,0.0,0.0,0.0,0.0,0.0,0.0,0.0,0.0,0.0,0.0,0.0,0.0,0.0,-0.4593,-0.5556,-0.6347,-0.6873,-0.701,-0.6814,-0.6317,0.0,0.0,0.0,0.0,0.0,-0.2227,0.0,-0.2468,-0.2576,-0.3417,-0.4383,-0.5412,-0.6133,-0.6603,-0.6951,-0.7328,-0.7871,-0.8438,-0.8382,-0.9184,-1.0338,-1.0892,0.0,0.0,0.0,0.0,-1.0643,-1.0858,-1.0019,-0.9038,0.0,0.0,0.0,0.0,0.0,0.0,0.0,0.0,0.0,0.0,0.0,0.0,1.9079,1.9343,1.969,2.0961,2.1667,2.2598,2.4124,2.561,2.6887,2.7823,2.8239,2.8492,2.8799,2.8999,2.9122,2.9269,2.9122,2.9678,3.1135,3.0419,3.0394,3.1284,3.0984,3.0384,2.9475,2.8657,2.7615,2.6538,2.6282,2.6338,2.666,2.7586,2.7934,2.7904,2.7641,2.7682,2.8147,2.8126,2.8381,2.8874,2.8914,2.9283,2.976,2.9794,3.0198,3.083,0.0,0.0,0.0,0.0,0.0,0.0,0.0,0.0,0.0,0.0,0.0,0.0,0.0,0.0,0.0,0.0,0.0,0.0,-0.2751,0.0,0.0,-0.5154,-0.5454,-0.6238,-0.7611,-0.7386,-0.7225,-0.7142,0.0,0.0,0.0,0.0,0.0,-0.3433,0.0,0.0,-0.3423,-0.3565,-0.3892,-0.4329,-0.4748,-0.5232,-0.5728,-0.5721,-0.6463,-0.7491,-0.7418,-0.8207,-0.9383,-1.0036,-1.0373,0.0,0.0,0.0,-0.986,-1.0472,-0.9791,0.0,0.0,0.0,0.0,0.0,0.0,0.0,0.0,0.0,0.0,0.0,0.0,1.6951,1.8518,1.8814,1.9396,2.1174,2.1416,2.2077,2.4042,2.5186,2.6239,2.7268,2.8012,2.8268,2.7952,2.8197,2.827,2.8149,2.8124,2.8174,2.8398,2.8374,2.8289,2.8281,2.8243,2.7836,2.6956,2.6451,2.5676,2.4592,2.4588,2.4876,2.5473,2.5898,2.6607,2.7357,2.7092,2.7293,2.7824,2.7642,2.7747,2.8145,2.8757,2.8991,2.8993,2.9659,2.9903,3.0054,0.0,0.0,0.0,0.0,0.0,0.0,0.0,0.0,0.0,0.0,0.0,0.0,0.0,0.0,0.0,-0.1305,-0.3098,-0.4235,-0.4255,-0.4149,-0.4767,-0.626,-0.6176,-0.6545,-0.7436,-0.7586,-0.7342,0.0,0.0,0.0,0.0,-0.2718,-0.2076,0.0,0.0,0.0,0.0,0.0,0.0,-0.3855,-0.4216,-0.4185,-0.3945,-0.4634,-0.521,-0.5701,-0.637,-0.7132,-0.8032,-0.9043,-0.8976,-0.8708,-0.9904,0.0,0.0,0.0,-0.9373,0.0,0.0,0.0,0.0,0.0,0.0,0.0,0.0,0.0,0.0,0.0,1.4608,1.636,1.8458,1.8827,1.9319,2.0976,2.1609,2.2318,2.3678,2.4883,2.5937,2.6716,2.6947,2.7008,2.6871,2.6626,2.6359,2.6311,2.6094,2.6068,2.6234,2.5948,2.5885,2.6143,2.5887,2.5557,2.5253,2.4808,2.4317,2.356,2.3574,2.3796,2.4193,2.4859,2.565,2.6533,2.6851,2.7221,2.7622,2.7677,2.7976,2.8276,2.8668,2.8937,2.9107,2.9362,2.9774,3.0174,0.0,0.0,0.0,0.0,0.0,0.0,0.0,0.0,0.0,0.0,0.0,0.0,0.0,0.0,0.0,0.0,-0.3575,-0.4598,-0.5306,-0.4813,-0.5244,-0.6943,-0.6497,-0.6483,-0.7026,-0.7247,0.0,0.0,0.0,0.0,-0.2279,-0.1575,-0.0238,0.0,0.0632,0.0,0.0,0.0,0.0,0.0,-0.328,-0.2944,-0.2398,-0.3144,-0.3492,-0.3769,-0.4961,-0.5824,-0.6562,-0.7786,-0.7685,-0.7294,-0.8733,-0.8496,0.0,0.0,0.0,0.0,0.0,0.0,0.0,0.0,0.0,0.0,0.0,0.0,0.0,0.0,1.3993,1.5905,1.8346,1.8875,1.9431,2.0913,2.1801,2.2553,2.3382,2.452,2.541,2.587,2.5728,2.5652,2.5613,2.5183,2.4874,2.4802,2.4467,2.4338,2.4534,2.3993,2.3916,2.4335,2.4012,2.3865,2.3714,2.3367,2.3038,2.2706,2.2674,2.2734,2.3005,2.3746,2.4504,2.5243,2.6426,2.7103,2.7337,2.7668,2.7873,2.8172,2.837,2.8615,2.8782,2.8891,2.9619,3.0259,0.0,0.0,0.0,0.0,0.0,0.0,0.0,0.0,0.0,0.0,0.0,0.0,-0.2434,-0.1624,-0.1601,-0.2932,-0.3124,-0.3776,-0.5125,-0.4693,-0.5119,-0.6727,-0.5773,0.0,-0.6622,-0.616,0.0,0.0,0.0,0.0,-0.1173,-0.0371,0.1614,0.4397,0.2716,0.1188,-0.0168,0.0,0.0,0.0,0.0,-0.1278,0.0,0.0,-0.1019,-0.1888,-0.3048,-0.4101,-0.5151,-0.6184,-0.6688,-0.6998,-0.7606,-0.7873,-0.8067,0.0,0.0,0.0,0.0,0.0,0.0,0.0,0.0,0.0,0.0,0.0,0.0,0.0,1.373,1.5726,1.7774,1.8655,1.9619,2.1378,2.1929,2.2433,2.3475,2.4019,2.4356,2.4678,2.4804,2.4647,2.4188,2.4354,2.4418,2.4273,2.3886,2.3542,2.3416,2.3058,2.2824,2.2798,2.2915,2.2847,2.2473,2.182,2.1571,2.1731,2.1589,2.1607,2.1786,2.2299,2.2889,2.358,2.5527,2.6621,2.7051,2.7149,2.715,2.7101,2.7903,2.7976,2.7563,2.8608,2.9489,3.0185,0.0,0.0,0.0,0.0,0.0,0.0,0.0,0.0,0.0,0.0,0.0,0.0,0.0,-0.1402,-0.1218,-0.2237,-0.2996,-0.3919,-0.5131,-0.5071,-0.5452,-0.6483,-0.5807,-0.5546,-0.5806,-0.5697,0.0,0.0,0.0,-0.3987,-0.1649,-0.0332,0.1321,0.313,0.2419,0.192,0.1541,0.0042,0.0,0.0,0.0,0.0,0.0,0.0,0.0,0.0,0.0,0.0,0.0,-0.476,-0.538,-0.593,-0.6994,-0.7226,-0.7182,-0.7586,-0.7613,0.0,0.0,0.0,0.0,0.0,0.0,0.0,0.0,0.0,0.0,1.0579,1.2687,1.478,1.7157,1.8648,1.9817,2.0764,2.1925,2.2668,2.2644,2.345,2.4092,2.4124,2.4194,2.4259,2.4165,2.4158,2.4055,2.3813,2.3446,2.3132,2.2905,2.2455,2.203,2.1734,2.1492,2.1267,2.1153,2.0907,2.1051,2.1482,2.1284,2.1284,2.15,2.2244,2.2701,2.3185,2.4918,2.5996,2.6519,2.7045,2.7195,2.7216,2.7809,2.7787,2.764,2.86,2.9159,2.9562,0.0,0.0,0.0,0.0,0.0,0.0,0.0,0.0,0.0,-0.2024,0.0,0.0,0.0,0.0,-0.0605,-0.1606,-0.2618,-0.3672,-0.4812,-0.4706,-0.5053,-0.6125,-0.5504,-0.5078,-0.4902,-0.4922,0.0,0.0,0.0,0.0,0.0,-0.064,0.0816,0.2212,0.1647,0.192,0.0,0.0,0.0,0.0914,0.0,0.0,0.169,0.0,0.0,0.0,0.0,0.0,0.0,0.0,-0.4573,-0.5319,-0.6818,-0.7037,-0.6708,-0.6747,-0.676,0.0,-0.6611,0.0,0.0,0.0,0.0,0.0,0.0,0.0,0.0,0.9698,1.1789,1.3819,1.6355,1.8036,1.9276,2.0016,2.1354,2.2115,2.1738,2.274,2.3504,2.353,2.3759,2.3839,2.3758,2.3795,2.374,2.3446,2.315,2.2832,2.2387,2.1863,2.1191,2.055,2.0111,1.9968,2.0079,2.0114,2.0395,2.0837,2.0764,2.0995,2.1336,2.1946,2.251,2.3103,2.4202,2.5245,2.6107,2.6731,2.6967,2.7066,2.7549,2.7541,2.7419,2.8637,2.9083,2.9207,0.0,0.0,0.0,0.0,0.0,0.0,0.0,0.0,-0.0717,-0.0416,0.0,0.0,0.0,0.0,0.0,-0.1152,-0.1936,-0.2872,-0.4176,-0.3591,-0.3936,-0.5593,-0.4779,-0.4163,-0.3919,-0.383,-0.3895,0.0,0.0,0.0,0.0,0.0,0.0188,0.0,0.0569,0.1212,0.3234,0.0,0.2833,0.235,0.0,0.317,0.2672,0.0,0.0,0.0,0.2204,0.0648,0.0,-0.3322,0.0,0.0,0.0,-0.7277,-0.6717,-0.6071,-0.5772,-0.5704,0.0,0.0,0.0,0.0,0.0,0.0,0.0,0.0,0.0,0.8805,1.0933,1.2777,1.5327,1.6769,1.8001,1.9199,2.0199,2.0781,2.0803,2.184,2.259,2.2726,2.33,2.3442,2.2898,2.3469,2.3666,2.3075,2.3001,2.2628,2.1894,2.1282,2.0368,1.9342,1.8956,1.8887,1.9179,1.9346,1.955,1.9761,2.0138,2.0698,2.134,2.1375,2.2061,2.3178,2.3487,2.4461,2.5796,2.6206,2.6534,2.6713,2.7212,2.7092,2.6938,2.8446,2.9013,2.9185,0.0,0.0,0.0,0.0,0.0,0.2783,0.1629,0.1106,0.068,0.0,0.0,0.0,0.0384,0.0473,0.029,-0.044,-0.0784,-0.1496,-0.2781,-0.3287,-0.4015,-0.4995,-0.4566,-0.4281,-0.426,-0.3706,-0.3618,-0.4014,0.0,0.0,0.0,0.0,0.0,0.0,-0.0879,0.061,0.1791,0.0968,0.0,0.0,0.4214,0.4261,0.0,0.0,0.0,0.0,0.0,0.0915,-0.0077,0.0,-0.3228,-0.4212,0.0,0.0,-0.5714,-0.5258,-0.4707,-0.4395,-0.5041,0.0,0.0,0.0,0.0,0.0,0.0,0.0,0.0,0.5723,0.8189,1.0568,1.318,1.456,1.5747,1.7048,1.9356,2.0908,2.0696,2.146,2.2299,2.318,2.3182,2.3306,2.3758,2.3963,2.3909,2.3446,2.3298,2.3079,2.2717,2.1411,2.0353,1.957,1.8836,1.878,1.9401,1.9436,1.9939,2.0962,2.1354,2.1586,2.1821,2.2848,2.3231,2.3293,2.3956,2.4553,2.508,2.5693,2.6004,2.6002,2.6739,2.6664,2.6261,2.726,2.7638,2.7733,0.0,0.0,0.0,0.0,0.0,0.3473,0.2644,0.2243,0.1977,0.0,0.0,0.0,0.1599,0.1314,0.1065,0.0824,0.0267,-0.057,-0.1768,-0.2508,-0.3388,-0.4435,-0.4364,-0.4278,-0.4251,-0.3773,-0.3572,-0.3763,0.0,0.0,0.0,0.0,0.0,0.0,0.0,0.0,0.0,0.0,0.0,0.0,0.5546,0.0,0.0,0.6143,0.5512,0.0,0.0,0.0,0.2018,-0.0142,-0.2285,0.0,0.0,0.0,0.0,0.0,-0.3838,-0.3726,-0.4616,-0.4791,-0.4596,0.0,0.0,0.0,-0.1411,-0.0,0.1559,0.0,0.6792,0.9137,1.1743,1.3127,1.4439,1.6139,1.8245,1.9846,2.0162,2.1075,2.214,2.337,2.3414,2.3584,2.4108,2.4345,2.42,2.3666,2.3666,2.3356,2.2632,2.1253,2.0221,1.9641,1.9264,1.9299,1.9662,2.0153,2.0739,2.1581,2.2061,2.2428,2.2704,2.3616,2.4026,2.392,2.4436,2.4771,2.4997,2.5713,2.5945,2.586,2.631,2.6493,2.6355,2.6298,2.6628,2.72,0.0,0.0,0.5001,0.4596,0.4399,0.4218,0.397,0.3444,0.324,0.0,0.3294,0.3186,0.3794,0.2959,0.2355,0.2351,0.1295,0.0143,-0.1026,-0.1578,-0.2477,-0.3908,-0.422,-0.4273,-0.4059,-0.3984,-0.378,-0.3485,0.0,0.0,0.0,0.0,0.0,0.0,0.0,0.0,0.0,0.0,0.0,0.5975,0.6915,0.6858,0.0,0.0,0.6969,0.5731,0.5903,0.546,0.4445,0.2142,-0.0982,0.0,0.0,0.0,0.0,0.0,-0.2913,-0.3184,-0.4329,-0.4758,-0.4662,-0.3665,-0.4489,0.0,-0.0586,0.0066,0.0719,0.0,0.5963,0.7913,1.0538,1.1931,1.3413,1.5514,1.6829,1.8067,1.956,2.0748,2.2007,2.3412,2.3786,2.4073,2.4299,2.4634,2.4562,2.3813,2.3982,2.3519,2.2176,2.1031,2.0196,1.9822,1.9956,2.0116,2.0208,2.1147,2.1749,2.2141,2.2655,2.3258,2.386,2.4088,2.4485,2.4941,2.4941,2.5069,2.5163,2.5899,2.612,2.6008,2.6246,2.658,2.6832,2.57,2.612,2.72,0.0,0.5256,0.5193,0.4727,0.5152,0.5371,0.4848,0.4753,0.4655,0.4444,0.4149,0.4169,0.4845,0.4383,0.381,0.3291,0.2534,0.1357,-0.0364,-0.1565,-0.2681,-0.38,-0.4503,-0.4696,-0.4327,-0.4608,-0.4561,-0.4132,-0.5508,0.0,0.0,0.0,0.0,0.0,0.0,0.0,0.0,0.0,0.0,0.8288,0.7085,0.0,0.8127,0.8571,0.8312,0.7479,0.6209,0.6116,0.6284,0.432,0.2719,0.1431,0.0,0.0,0.0,-0.0978,0.0,0.0,0.0,0.0,0.0,0.0,0.0,0.0,-0.2211,-0.0715,0.0745,0.0,0.3309,0.5349,0.7631,0.9281,1.0787,1.2291,1.4209,1.6541,1.9585,2.0865,2.207,2.3692,2.3833,2.4062,2.4874,2.4992,2.4921,2.4562,2.4055,2.3298,2.2402,2.1645,2.1113,2.0895,2.0751,2.1053,2.1721,2.1978,2.2486,2.3446,2.4062,2.4531,2.4866,2.5391,2.5528,2.5235,2.5235,2.5366,2.5585,2.6002,2.5953,2.5739,2.6716,2.6725,2.6234,2.661,2.6881,2.7067,0.0,0.5462,0.5573,0.551,0.5889,0.6174,0.6104,0.6106,0.6087,0.6057,0.6102,0.6118,0.6015,0.5683,0.5178,0.4496,0.3595,0.2414,0.089,-0.0461,-0.1858,-0.3346,-0.4044,-0.4503,-0.4725,-0.4915,-0.4865,-0.4596,-0.5812,-0.6311,-0.6176,0.0,0.0,0.0,0.0,0.0,0.0,0.0,0.515,0.8118,0.8274,0.0,0.9369,0.9722,0.9431,0.8758,0.8164,0.7959,0.7718,0.6218,0.4924,0.0,0.0,0.2656,0.2355,0.0,0.0606,0.0371,0.0,0.0,0.0,-0.2291,0.0,0.0,0.0,0.0266,0.1019,0.2124,0.3269,0.4748,0.6866,0.8233,0.9681,1.1685,1.363,1.5815,1.8465,2.0167,2.1738,2.3293,2.3814,2.4183,2.4773,2.5085,2.5253,2.4992,2.4177,2.3519,2.3001,2.2252,2.1773,2.1829,2.191,2.2367,2.3393,2.372,2.425,2.5027,2.5473,2.5704,2.5664,2.5988,2.5897,2.5723,2.5761,2.5875,2.5824,2.666,2.6627,2.6273,2.7013,2.7187,2.684,2.7038,2.7151,2.7067,0.5443,0.5634,0.5872,0.6009,0.6318,0.6646,0.6959,0.7004,0.7085,0.7417,0.7895,0.7906,0.7208,0.6989,0.6608,0.5826,0.469,0.3539,0.2429,0.0993,-0.0512,-0.2106,-0.3202,-0.406,-0.4568,-0.4956,-0.5152,-0.5073,-0.5959,-0.6168,-0.5749,-0.6785,0.0,0.0,0.0,0.0,0.0,0.0,0.0,0.7839,0.0,1.0201,1.0061,1.0553,1.0389,0.9987,1.0417,1.0081,0.9227,0.8155,0.6964,0.588,0.5138,0.4566,0.0,0.0,0.0,0.0,0.0,0.0,0.0,0.0,0.0,0.0226,0.0,0.0,0.0,0.3321,0.388,0.0,0.0,0.0,0.0,1.1229,0.0,0.0,0.0,1.8778,0.0,2.2396,2.343,2.4124,2.4169,2.4699,2.5037,2.504,2.4158,2.3621,2.3653,2.2757,2.2499,2.2829,2.3041,2.368,2.474,2.5288,2.5836,2.6403,2.6576,2.6527,2.6443,2.624,2.6247,2.6346,2.6329,2.6384,2.6377,2.7279,2.7439,2.7138,2.7382,2.7639,2.7742,2.7498,2.7344,2.7229,0.5183,0.5548,0.574,0.5233,0.5996,0.6627,0.6439,0.6681,0.6996,0.728,0.8017,0.8485,0.8338,0.8603,0.0,0.7192,0.608,0.5054,0.4093,0.2265,0.1103,0.0824,-0.2148,-0.3456,-0.2709,-0.4725,-0.5718,-0.5616,-0.6313,-0.6727,-0.6898,-0.6586,0.0,0.0,-0.1183,0.0,0.0,0.0,0.7145,0.0,1.0211,1.0141,0.0,1.0651,1.1162,1.1512,1.186,1.1781,1.1414,0.0,1.0244,0.9931,0.0,0.7451,0.7466,0.5347,0.0,0.0,0.0,0.0,0.0,0.0,0.2332,0.0,0.0,0.0,0.4059,0.3106,0.0,0.4117,0.0,0.0,0.0,0.8559,1.0453,0.0,1.445,1.6449,1.8511,2.0807,2.2268,2.3158,2.3152,2.3062,2.3537,2.4707,2.3406,2.2886,2.3917,2.3328,2.3287,2.4011,2.4012,2.4409,2.515,2.5455,2.6004,2.6886,2.6743,2.6879,2.7463,2.6764,2.66,2.6981,2.6546,2.6816,2.7519,2.7637,2.7912,2.8282,2.8382,2.8071,2.7856,2.8564,2.8023,2.7148,0.5195,0.5621,0.0,0.5818,0.6359,0.6836,0.6922,0.7818,0.8516,0.8626,0.9295,0.9736,0.0,0.0,0.0,0.0,0.0,0.6796,0.0,0.0,0.2855,0.1423,-0.0204,-0.1069,-0.1069,-0.2633,-0.3465,-0.3449,-0.4796,-0.5542,-0.5646,-0.5305,0.0,0.0,-0.0057,0.0,0.6349,0.0,0.7327,0.0,0.0,0.0,0.0,1.1571,1.1757,1.2095,1.2295,1.2398,1.2263,0.0,1.0915,0.0,0.0,0.0,0.0,0.783,0.0,0.0,0.0,0.0,0.0,0.0,0.0,0.0,0.3804,0.0,0.4418,0.0,0.0,0.0,0.0,0.0,0.0,0.0,1.0187,1.2062,0.0,0.0,1.752,1.9814,2.0905,2.1729,2.2398,2.2887,2.3398,2.4002,2.3037,2.2988,2.4136,2.3722,2.3709,2.4344,2.4282,2.4681,2.5784,2.5962,2.6445,2.7348,2.7254,2.7264,2.7452,2.6976,2.6932,2.7357,2.7122,2.7396,2.7989,2.8035,2.8135,2.8358,2.8397,2.8426,2.8517,2.8865,2.8727,2.8332,0.5138,0.0,0.0,0.0,0.6457,0.688,0.7306,0.8345,0.9212,0.9581,1.0244,0.0,1.1115,1.0766,0.0,0.0,0.9715,0.8578,0.0,0.0,0.4839,0.2914,0.1835,0.0,0.0808,-0.0732,-0.1569,-0.1633,-0.3037,-0.3887,-0.4136,-0.3611,-0.2375,0.0,0.0,0.3713,0.6863,0.0,0.0,0.9003,1.1361,1.2538,1.2746,1.205,1.2101,1.2625,1.3057,1.3252,1.3183,1.2459,1.1926,1.1638,1.1633,1.0961,1.0115,0.0,0.0,0.0,0.6798,0.0,0.0,0.0,0.0,0.0,0.0,0.0,0.0,0.0,0.59,0.0,0.0,0.0,0.809,0.8657,0.0,1.2,1.2217,1.3934,0.0,1.8067,1.9214,2.0321,2.1601,2.2139,2.2592,2.3326,2.2506,2.2681,2.4314,2.3996,2.4061,2.4679,2.4555,2.4997,2.6145,2.6256,2.6718,2.7641,2.7547,2.7452,2.7357,2.7092,2.7207,2.7638,2.7462,2.7716,2.8167,2.827,2.8359,2.8457,2.834,2.8684,2.9245,2.9039,2.9385,2.9822,0.4782,0.5069,0.0,0.0,0.0,0.0,0.7207,0.0,0.0,0.0,0.0,0.0,0.0,0.0,0.0,0.0,0.0,1.0345,0.9893,0.0,0.7122,0.0,0.0,0.252,0.0,0.0321,-0.116,-0.1213,-0.1407,-0.2028,-0.3019,-0.1647,-0.0793,-0.0302,0.0,0.4339,0.5711,0.794,0.8454,0.7856,0.9114,1.0643,1.2075,0.0,1.2191,1.3346,1.4627,1.4879,1.4559,1.4643,1.4266,1.3541,1.2554,1.2253,1.2189,0.0,0.0,0.0,1.0749,1.1231,1.1137,0.744,0.7557,0.7851,0.5059,0.5982,0.7431,0.7491,0.8742,0.9951,1.0445,1.0761,1.0832,1.0462,1.1165,0.0,0.0,1.2278,0.0,1.4971,1.7142,1.9163,2.0565,1.9944,2.0414,2.2741,2.1254,2.1587,2.4525,2.4104,2.4232,2.5147,2.5168,2.5377,2.5875,2.6145,2.6697,2.7641,2.7452,2.7452,2.7547,2.7092,2.7272,2.7784,2.75,2.7791,2.8281,2.8281,2.8535,2.8848,2.8457,2.9004,2.9889,2.9263,3.0002,3.112,0.0,0.0,0.0,0.0,0.0,0.0,0.0,0.8864,0.0,0.0,0.0,0.0,0.0,1.3599,1.3363,0.0,0.0,1.1638,1.0148,0.9417,0.0,0.0,0.0,0.5516,0.0,0.4111,0.2941,0.2308,0.1688,0.0747,-0.048,0.0136,0.0637,0.105,0.0,0.4261,0.0,0.0,0.0,0.0,0.0,1.1368,1.1909,0.0,1.2306,1.3227,1.4059,1.4768,1.5295,1.5071,1.4787,1.4514,1.4343,1.3322,1.2377,1.2994,1.2734,1.2148,1.1771,1.202,1.1819,0.9649,0.899,0.8424,0.655,0.6941,0.7691,0.7715,0.9014,1.0117,1.0106,1.1059,1.1487,1.0456,1.1961,1.2785,0.0,1.2036,1.3268,1.4864,1.7036,0.0,1.8469,1.9852,2.093,2.1495,2.1439,2.2315,2.4219,2.4406,2.4866,2.5636,2.5851,2.6126,2.6626,2.6514,2.6734,2.7452,2.7167,2.7071,2.7167,2.6996,2.713,2.7381,2.6883,2.7172,2.7891,2.7951,2.8211,2.8616,2.8972,2.9375,2.9828,3.04,3.0589,3.0284,0.5542,0.0,0.0,0.0,0.0,0.0,0.0,0.0,0.0,0.0,1.2348,0.0,1.4765,0.0,1.383,0.0,1.3591,1.2341,1.0843,1.0443,0.0,0.8017,0.7677,0.0,0.0,0.6122,0.507,0.3891,0.3518,0.2434,0.0751,0.1398,0.1648,0.1605,0.0,0.4211,0.5609,0.0,0.7886,0.0,0.0,1.1227,0.0,0.0,1.2439,1.3345,1.3806,1.4563,1.5363,1.5476,1.5312,1.5053,1.5236,1.4349,1.3429,1.4373,1.419,1.3685,1.3584,1.3847,1.3785,1.2073,1.1204,1.0353,0.8962,0.9121,0.9625,0.9897,1.0984,1.2013,1.2414,1.297,1.3019,1.2008,1.3007,1.3288,0.0,1.2466,1.381,1.4976,1.6631,0.0,0.0,1.9031,2.0101,2.0694,2.104,2.2025,2.3764,2.4416,2.508,2.587,2.6087,2.6469,2.7112,2.6764,2.69,2.7452,2.7092,2.69,2.69,2.6805,2.6855,2.6884,2.6743,2.691,2.7361,2.7786,2.8199,2.8646,2.9478,2.9731,2.9891,3.0925,3.0946,3.032,0.0,0.0,0.0,0.0,0.7065,0.0,0.0,0.0,1.0656,0.0,1.2169,1.3116,1.4537,1.4117,1.41,1.5108,1.3728,1.2548,1.1947,1.1418,0.0,0.0,0.8594,0.8155,0.7296,0.0,0.0,0.3643,0.4117,0.3091,0.0789,0.2128,0.2245,0.1416,0.3029,0.0,0.4897,0.5936,0.7207,0.86,0.9502,1.0198,1.0787,1.1571,1.26,1.3667,1.3969,1.4379,1.486,1.5879,1.5834,1.5365,1.5306,1.5241,1.5345,1.6062,1.6252,1.6172,1.6082,1.6724,1.6866,1.4654,1.4022,1.3618,1.2135,1.2336,1.3075,1.3831,1.4541,1.5505,1.7094,1.6361,1.5395,1.498,1.413,1.3257,1.2508,1.3602,1.4697,1.5266,1.6001,0.0,0.0,1.7644,1.8133,2.049,2.0192,2.0974,0.0,2.4132,2.4977,2.5913,2.5955,2.6402,2.7317,2.6877,2.7014,2.7547,2.7092,2.69,2.69,2.6592,2.6446,2.6387,2.6676,2.6775,2.6797,2.7428,2.8096,2.8634,2.9582,3.0045,3.0138,3.0645,3.1104,3.1249,0.6966,0.763,0.8218,0.0,0.8451,0.8912,0.0,0.0,0.0,0.0,1.3104,1.3781,1.4631,1.4025,1.3934,1.489,1.3496,0.0,0.0,0.0,0.0,0.9677,0.934,0.8849,0.8184,0.7605,0.0,0.5575,0.5028,0.4141,0.2959,0.2348,0.2007,0.1917,0.0,0.0,0.3827,0.5463,0.7148,0.8745,0.9151,0.9995,1.1118,1.23,1.3278,1.3984,1.4082,1.4368,1.4785,1.5255,1.576,1.6077,1.5425,1.5201,1.5343,1.6086,1.6276,1.6429,1.7025,1.7394,1.7458,1.68,1.5908,1.5025,1.4559,1.4647,1.4908,1.5068,1.6086,1.7041,1.7206,1.7287,1.6905,1.5567,1.447,1.4173,1.524,1.52,0.0,1.7571,1.7668,1.7472,1.7245,1.8957,2.0112,1.9984,2.1805,2.3185,2.366,2.4596,2.5459,2.6445,2.7144,2.7597,2.7806,2.7713,2.7516,2.7357,2.7071,2.6688,2.6304,2.5994,2.5664,2.5309,2.5008,2.4969,2.5311,2.5908,2.6624,2.7326,2.8972,2.922,2.8737,2.9804,3.0738,3.1377,0.8226,0.0,0.0,1.0001,0.0,0.0,1.0576,1.1387,0.0,1.2377,1.3077,0.0,1.4003,1.3475,1.3258,1.3707,1.2659,0.0,1.1704,0.0,0.0,0.9764,0.954,0.8974,0.8036,0.743,0.0,0.5087,0.4772,0.3918,0.2606,0.2321,0.2419,0.0,0.0,0.3474,0.0,0.5974,0.7305,0.8473,0.8828,1.0071,0.0,1.2773,1.3479,1.397,1.3763,1.3206,1.2804,1.4479,1.5138,1.5299,1.5145,1.5145,1.5395,1.6483,1.6872,1.7179,1.8405,1.9057,1.931,1.8904,1.8293,1.7614,1.7187,1.7119,1.7137,1.708,1.7997,1.8881,1.893,1.8391,1.7491,1.6022,1.5381,1.5413,1.6437,0.0,0.0,0.0,1.8679,1.8621,1.794,1.9075,1.9748,1.9367,2.1352,2.2654,2.2792,2.4149,2.53,2.6325,2.705,2.7613,2.8186,2.8092,2.7904,2.7736,2.7336,2.686,2.6476,2.5897,2.5411,2.4843,2.4516,2.4509,2.4845,2.5376,2.5973,2.6829,2.815,2.8519,2.8206,2.86,2.9058,2.9672,0.0,0.0,0.0,0.0,0.0,0.0,0.0,1.1603,0.0,1.1854,0.0,1.3027,1.3008,1.2641,1.2363,1.2182,0.0,1.1146,1.0902,1.1025,1.0585,0.945,0.9301,0.8677,0.7399,0.6583,0.5383,0.0,0.4003,0.3246,0.1585,0.2424,0.0,0.0,0.0,0.0,0.0,0.6862,0.7592,0.8247,0.8717,1.0266,1.2343,1.2773,1.3295,1.3752,1.3295,1.1703,1.0239,1.3434,1.4228,1.4059,1.4737,1.5085,1.5541,1.706,1.7674,1.8183,1.978,2.0911,2.1455,2.0745,2.0698,2.0617,1.9722,1.9528,1.9536,1.9444,1.998,2.0625,2.1244,1.9731,1.8021,1.6933,1.6909,1.7163,0.0,0.0,0.0,0.0,0.0,0.0,1.9617,1.9096,1.8854,1.9104,2.0272,2.1236,2.1826,2.3478,2.4918,2.5944,2.6499,2.7308,2.8395,2.8186,2.8186,2.8301,2.7736,2.7241,2.686,2.6091,2.5411,2.4862,2.4701,2.4645,2.4819,2.527,2.5937,2.6767,2.7362,2.7768,2.8098,2.7452,2.7073,2.7347,0.0,0.0,0.0,0.0,0.0,1.1923,1.1572,1.1497,1.16,1.1927,1.2175,1.2214,1.2009,1.1639,1.1621,1.2003,1.1132,0.0,0.0,0.0,0.0,0.9504,0.8881,0.8142,0.7277,0.6115,0.5454,0.5236,0.421,0.3821,0.3999,0.3563,0.0,0.0,0.0,0.0,0.7047,0.7201,0.0,0.9175,0.9356,1.0195,1.1318,1.1824,1.2549,1.3243,1.3379,1.1777,0.9841,1.1693,1.3363,1.4623,1.4736,1.529,1.612,1.7103,1.7983,1.8833,1.9896,2.0932,2.1651,2.1562,2.2084,2.242,2.1523,2.1354,2.1318,2.124,2.1269,2.147,2.2019,2.1532,2.0732,1.9745,1.9531,2.0,0.0,0.0,0.0,0.0,0.0,2.2898,2.1701,2.1614,2.1293,2.0327,2.1637,2.2695,2.3169,2.3839,2.4982,2.6525,2.7179,2.7834,2.8395,2.8768,2.8653,2.8092,2.8207,2.7736,2.686,2.6284,2.5606,2.4843,2.4405,2.4081,2.4007,2.4521,2.5361,2.6376,2.7082,2.7229,2.7287,2.7305,2.7194,2.7052,0.0,0.0,0.0,0.0,0.0,0.0,0.0,1.1966,1.1646,1.1696,1.1687,1.1671,1.165,1.122,1.099,1.1179,1.0366,1.0091,1.0549,0.9896,0.9399,0.8978,0.8511,0.7828,0.685,0.5934,0.5456,0.5491,0.4312,0.416,0.5043,0.4283,0.4373,0.0,0.0,0.7325,0.0,0.0,0.8897,0.9867,1.0144,1.0768,1.1637,1.1583,1.1888,1.238,1.2838,1.2206,1.1301,1.2484,1.3361,1.4033,1.4455,1.5271,1.6204,1.7082,1.8061,1.9148,2.0512,2.161,2.2375,2.2461,2.312,2.3551,2.2639,2.2789,2.2804,2.1834,2.2632,2.3439,2.3347,2.2244,2.158,2.2329,2.1242,2.1215,2.3753,0.0,2.3002,0.0,0.0,0.0,2.3191,2.3237,2.2717,2.1036,2.1905,2.2597,2.3051,2.3573,2.4452,2.5878,2.6721,2.7424,2.7822,2.869,2.8822,2.8212,2.8451,2.8186,2.7431,2.6764,2.6187,2.5509,2.4627,2.4262,2.4336,2.4823,2.5631,2.6478,2.6535,2.6852,2.7176,2.6953,2.7125,2.7294,0.0,1.5769,0.0,0.0,1.4065,0.0,1.3058,1.2292,1.168,1.1525,1.1345,1.1299,1.1395,1.0901,1.0451,1.0243,0.9641,0.9447,0.9713,0.9337,0.8844,0.8397,0.8016,0.7414,0.6486,0.5826,0.5484,0.552,0.4651,0.4742,0.5673,0.5043,0.5537,0.0,0.0,0.0,0.8904,0.93,0.9858,1.0557,1.0768,1.1407,1.2183,1.1693,1.1687,1.197,1.2561,1.2767,1.2915,1.3749,1.3665,1.3413,1.4343,1.5347,1.6357,1.724,1.8269,1.9462,2.1074,2.2244,2.3046,2.3309,2.4022,2.4425,2.3494,2.3797,2.3867,2.2422,2.3735,2.5003,2.4377,2.3033,2.2536,2.4207,2.2892,2.2648,2.5362,2.5081,2.4888,0.0,0.0,0.0,2.4443,2.4467,2.3891,2.2088,2.211,2.2363,2.2735,2.3256,2.4082,2.5404,2.6246,2.699,2.7521,2.8561,2.8785,2.8341,2.8514,2.8278,2.7793,2.7149,2.6622,2.5972,2.5178,2.4827,2.5043,2.5372,2.5954,2.6664,2.6373,2.6659,2.7089,2.6699,2.7068,2.7655,0.0,0.0,0.0,0.0,0.0,1.385,1.3101,1.1822,1.1142,1.1773,1.1384,1.0983,1.0654,1.021,0.9865,0.9615,0.9317,0.9118,0.9093,0.8814,0.845,0.7968,0.74,0.6891,0.6431,0.5774,0.5605,0.5941,0.5727,0.5858,0.6331,0.6235,0.66,0.7279,0.7859,0.8852,1.0041,1.0214,1.0662,1.1261,1.1074,1.1548,1.2346,1.2053,1.2372,1.2969,1.3182,1.3327,1.3516,1.4133,1.3913,1.3567,1.4701,1.584,1.7014,1.7944,1.9017,2.0145,2.1213,2.2236,2.3192,2.4061,2.4893,2.5268,2.4363,2.4128,2.4036,2.383,2.4307,2.4625,2.4296,2.4844,2.5171,2.4692,2.5013,2.5742,2.7033,2.71,2.7023,2.7236,0.0,0.0,2.5879,2.5414,2.5011,2.4476,2.325,2.2631,2.3092,2.3361,2.4311,2.6172,2.6504,2.72,2.8244,2.8652,2.8543,2.8047,2.7832,2.7568,2.7054,2.7006,2.6527,2.5819,2.5624,2.5775,2.6012,2.5815,2.6194,2.7008,2.6881,2.683,2.6803,2.7137,2.7303,2.7505,0.0,0.0,0.0,0.0,0.0,0.0,0.0,1.1348,1.0347,1.016,0.9991,0.9831,0.9804,0.9472,0.9261,0.9222,0.89,0.8714,0.8827,0.8657,0.8226,0.7573,0.7471,0.7111,0.636,0.6035,0.6142,0.6654,0.6705,0.7158,0.8018,0.7743,0.8407,0.9826,1.004,1.0447,1.0981,1.104,1.1196,1.1458,1.1537,1.2097,1.2935,1.2729,1.309,1.3699,1.3493,1.346,1.3576,1.4099,1.409,1.4021,1.5105,1.6063,1.6962,1.7992,1.9141,2.0382,2.1905,2.2695,2.3393,2.4844,2.5398,2.5512,2.5098,2.4904,2.4648,2.4022,2.4255,2.4754,2.5353,2.5226,2.5559,2.7199,2.6523,2.6693,2.9371,2.891,0.0,2.8853,0.0,2.7762,2.6527,2.6005,2.5565,2.5409,2.3902,2.3289,2.3763,2.3685,2.4262,2.5417,2.6405,2.7104,2.7568,2.8411,2.8545,2.8033,2.7789,2.7414,2.6972,2.6806,2.631,2.555,2.57,2.5993,2.6378,2.5985,2.6473,2.753,2.7098,2.7381,2.7846,2.7398,2.804,2.8975,1.8108,0.0,1.638,0.0,1.4367,1.2756,1.1787,1.0195,0.8908,0.8042,0.7812,0.8016,0.87,0.8435,0.8281,0.8406,0.8209,0.8154,0.8306,0.8341,0.802,0.7233,0.7493,0.0,0.6351,0.6369,0.6634,0.7085,0.7266,0.7678,0.8321,0.8881,1.0146,1.192,1.192,1.1704,1.1346,1.1346,1.1362,1.1421,1.1623,1.2222,1.3029,1.3149,1.3618,1.4195,1.3884,1.3763,1.3865,1.4382,1.4503,1.4685,1.5649,1.6394,1.714,1.8282,1.9284,2.0479,2.2369,2.2955,2.3505,2.5273,2.5634,2.5556,2.549,2.5339,2.5067,2.4409,2.45,2.5114,2.6622,2.5886,2.5993,2.8829,2.7745,2.7532,3.0282,2.9707,2.9146,2.9539,2.8736,2.7857,2.7074,2.6615,2.6306,2.6093,2.5047,2.4551,2.4652,2.4241,2.4423,2.5422,2.6388,2.7063,2.7502,2.812,2.8319,2.8007,2.7478,2.7085,2.6715,2.6427,2.5999,2.5644,2.5658,2.6074,2.689,2.6294,2.6893,2.8174,2.7638,2.8077,2.8911,2.8295,2.8918,2.9909,1.6602,1.6387,1.5745,1.4688,1.3433,1.2037,1.0206,0.8234,0.6604,0.5688,0.5057,0.5493,0.7354,0.7132,0.6995,0.7095,0.7155,0.7249,0.738,0.7762,0.77,0.0,0.7398,0.7269,0.6423,0.6766,0.7002,0.7085,0.7343,0.7151,0.6502,0.9469,1.159,1.29,1.29,1.2163,1.093,1.093,1.1044,1.1195,1.1233,1.1697,1.2473,1.3138,1.3848,1.4465,1.4401,1.4389,1.4483,1.5155,1.54,1.5548,1.632,1.7004,1.7715,1.8947,1.9587,2.0332,2.2286,2.2908,2.3433,2.5234,2.559,2.549,2.5414,2.5262,2.5156,2.5411,2.5271,2.5724,2.7903,2.7232,2.6983,2.8801,2.8699,2.8575,2.9134,2.929,2.9207,2.902,2.8598,2.8074,2.747,2.755,2.7314,2.6744,2.6928,2.6665,2.5869,2.4919,2.5147,2.6818,2.6672,2.7282,2.8724,2.8007,2.7793,2.8007,2.679,2.6263,2.6179,2.57,2.5799,2.6133,2.5644,2.6287,2.7703,2.689,2.7604,2.9026,2.8495,2.8858,2.9816,2.9616,2.9746,3.0078,1.4683,1.4311,1.3664,1.2515,1.1147,0.9834,0.9031,0.7086,0.5409,0.4477,0.3659,0.3667,0.4882,0.5702,0.6069,0.5989,0.6643,0.7166,0.7319,0.7777,0.7948,0.7735,0.7864,0.7644,0.7141,0.7492,0.8027,0.8725,0.8472,0.8484,0.8683,0.9922,1.0956,1.1819,1.2578,1.2464,1.1731,1.2096,1.2683,1.3434,1.3716,1.3523,1.312,1.3368,1.3914,1.4588,1.4746,1.4852,1.5125,1.6188,1.6379,1.6459,1.817,1.8126,1.7664,1.8932,1.9587,2.0304,2.2268,2.2899,2.343,2.5233,2.5637,2.5551,2.549,2.557,2.5769,2.6246,2.6505,2.6958,2.786,2.8117,2.841,2.9041,2.9349,2.9542,2.9664,2.9448,2.9366,2.9576,2.8902,2.8505,2.8675,2.8398,2.8195,2.8298,2.7335,2.6685,2.6302,2.6333,2.6598,2.6997,2.752,2.8007,2.8322,2.7843,2.7589,2.7748,2.6864,2.6324,2.6012,2.5959,2.5988,2.5961,2.6064,2.6749,2.7804,2.75,2.8224,2.9489,2.9581,3.016,3.0785,3.084,3.1106,3.1506,1.2477,1.1961,1.1162,1.0212,0.9151,0.8183,0.7344,0.5568,0.3844,0.2671,0.1973,0.1803,0.235,0.3693,0.4648,0.4821,0.5627,0.6373,0.7074,0.7744,0.8192,0.8282,0.8351,0.8077,0.7531,0.8042,0.8894,0.9932,0.8928,0.8769,0.9375,0.9846,1.025,1.0694,1.1819,1.2234,1.2166,1.2871,1.3621,1.4419,1.4926,1.485,1.4601,1.4828,1.5461,1.6236,1.5773,1.5848,1.6303,1.7212,1.7472,1.7759,1.928,1.9213,1.8818,1.9788,2.0424,2.1111,2.2782,2.3334,2.3906,2.5694,2.5885,2.5634,2.5754,2.606,2.6448,2.6938,2.7126,2.7414,2.8187,2.8351,2.8587,2.9214,2.9231,2.9315,2.9657,2.9263,2.9046,2.947,2.895,2.8681,2.8837,2.8919,2.8996,2.908,2.8164,2.7606,2.7687,2.7198,2.7016,2.7352,2.7719,2.7969,2.8029,2.7697,2.7508,2.7606,2.7047,2.6467,2.5968,2.6021,2.6172,2.6277,2.6368,2.7076,2.8161,2.8145,2.8758,2.987,3.0327,3.1103,3.1972,3.1776,3.2142,3.2592,0.9929,0.9295,0.8575,0.7865,0.7447,0.6807,0.548,0.3723,0.1983,0.0217,-0.0152,-0.0235,-0.0079,0.1491,0.2851,0.3821,0.4201,0.5026,0.6667,0.7633,0.8313,0.8732,0.8891,0.8574,0.7617,0.8473,0.9472,1.0491,0.8833,0.8296,0.8804,0.942,0.9666,0.9718,1.0863,1.1669,1.2215,1.319,1.3952,1.4466,1.4971,1.5736,1.6607,1.7073,1.8028,1.8935,1.7374,1.7285,1.7844,1.819,1.8712,1.9293,1.985,2.0411,2.0912,2.1273,2.1812,2.2523,2.3666,2.4177,2.478,2.6532,2.6362,2.5896,2.6284,2.6782,2.7251,2.7624,2.7327,2.7465,2.877,2.8185,2.79,2.9213,2.8561,2.8238,2.9158,2.8737,2.848,2.8808,2.8777,2.859,2.8329,2.9389,2.9784,2.917,2.9065,2.9152,2.9603,2.7517,2.6854,2.7897,2.7483,2.7524,2.8026,2.7463,2.7295,2.7622,2.719,2.6715,2.6279,2.6052,2.6301,2.6885,2.6394,2.7197,2.87,2.8676,2.9237,3.0125,3.0675,3.1715,3.2984,3.2556,3.2696,3.3098,0.7043,0.6639,0.6262,0.5908,0.5082,0.4621,0.5188,0.3101,0.0208,-0.3271,-0.3267,-0.2431,-0.11,0.1097,0.2577,0.2857,0.4042,0.5041,0.5628,0.7183,0.8408,0.916,0.9241,0.8981,0.8411,0.8534,0.8958,0.974,0.9357,0.8986,0.8804,0.9836,1.03,1.03,1.1418,1.2234,1.2725,1.3334,1.414,1.4971,1.5424,1.6219,1.7073,1.7556,1.8411,1.9332,1.9386,1.8796,1.8097,1.9092,1.9682,2.029,2.1965,2.2917,2.3153,2.1778,2.2132,2.3229,2.4484,2.5428,2.6333,2.7593,2.7682,2.7652,2.8169,2.8547,2.878,2.864,2.915,2.9503,2.9122,2.9312,2.933,2.8799,2.8972,2.887,2.7981,2.8396,2.869,2.8539,2.8816,2.9145,2.9364,3.0003,2.9969,2.869,2.8666,2.8439,2.7678,2.7212,2.7478,2.8669,2.8244,2.8064,2.798,2.7281,2.7195,2.7533,2.7417,2.7185,2.694,2.6633,2.655,2.6715,2.6732,2.7323,2.8232,2.8988,2.9634,3.0231,3.0908,3.1658,3.2317,3.3093,3.279,3.2107,0.4439,0.4279,0.4196,0.4028,0.3727,0.3724,0.4261,0.1546,-0.1474,-0.4124,-0.3922,-0.3077,-0.1836,0.1026,0.2931,0.3297,0.4463,0.531,0.5706,0.671,0.8006,0.9656,1.0307,1.0496,1.0056,0.9332,0.9163,0.9484,0.9484,0.9246,0.8804,0.9435,1.0007,1.0573,1.1619,1.2382,1.3027,1.4633,1.5328,1.5424,1.5691,1.6219,1.6947,1.7611,1.8894,2.0338,2.0365,2.023,2.0107,2.0668,2.1343,2.2203,2.3493,2.4315,2.4635,2.379,2.419,2.5086,2.5901,2.6622,2.7311,2.7978,2.898,2.9728,2.9475,3.0007,3.0437,3.0051,3.0279,3.0339,2.9768,2.9647,2.9382,2.8771,2.8483,2.8084,2.7451,2.7879,2.8275,2.8275,2.8958,2.9395,2.9298,2.9813,2.9862,2.9125,2.8524,2.8155,2.8094,2.7631,2.7721,2.8443,2.8302,2.8093,2.7787,2.6953,2.6588,2.6678,2.6909,2.7025,2.6864,2.6707,2.6758,2.6907,2.6975,2.7403,2.8043,2.8804,2.9449,2.9947,3.0646,3.1315,3.1944,3.2311,3.2191,3.1709,0.1998,0.2068,0.2226,0.2342,0.2827,0.2984,0.2309,-0.0435,-0.2685,-0.3297,-0.2988,-0.2488,-0.1884,0.1066,0.3317,0.418,0.4851,0.5549,0.6242,0.6549,0.7617,0.9834,1.1204,1.1972,1.1996,1.0716,0.99,0.9484,0.9612,0.9442,0.9072,0.8884,0.9435,1.0675,1.1669,1.2431,1.3184,1.6181,1.6996,1.626,1.6351,1.647,1.6735,1.7841,1.9461,2.1129,2.0819,2.1414,2.2337,2.2296,2.3128,2.4247,2.4659,2.5305,2.6012,2.6368,2.701,2.7624,2.7679,2.8122,2.8567,2.8511,3.0273,3.1681,3.0484,3.118,3.1986,3.143,3.1109,3.0784,3.0498,2.9727,2.9082,2.8912,2.7747,2.6928,2.7114,2.7297,2.7549,2.7776,2.8746,2.9156,2.8734,2.9204,2.955,2.9449,2.8317,2.8074,2.9039,2.805,2.7681,2.7973,2.8041,2.7853,2.7278,2.6519,2.6027,2.5793,2.6207,2.6381,2.6473,2.6422,2.6624,2.7053,2.6933,2.7101,2.7713,2.8293,2.8774,2.9167,2.9925,3.0551,3.1121,3.0756,3.0874,3.0992,-0.0128,0.0,0.0434,0.1694,0.1591,0.0526,-0.1846,-0.2251,-0.2069,-0.1585,-0.0952,-0.0404,-0.0134,0.1222,0.2561,0.3804,0.437,0.5152,0.6293,0.7268,0.8083,0.8745,0.9807,1.1289,1.3171,1.2999,1.1764,0.9484,1.011,1.0412,1.0335,0.9272,0.9629,1.1217,1.1819,1.2608,1.3697,1.6691,1.817,1.8545,1.9006,1.8367,1.7293,1.9199,2.0047,2.0352,2.1386,2.1896,2.2197,2.2884,2.3979,2.508,2.5564,2.6918,2.8341,2.8164,2.9381,3.0576,2.9677,3.0802,3.1968,3.0613,3.1655,3.2672,3.1468,3.2222,3.2841,3.1704,3.2192,3.2349,3.09,3.0391,2.9905,2.906,2.7906,2.699,2.6516,2.6964,2.7115,2.655,2.758,2.8265,2.8052,2.8567,2.8633,2.7919,2.7945,2.7747,2.7189,2.7334,2.7561,2.785,2.76,2.7066,2.6155,2.6217,2.6223,2.623,2.5993,2.6037,2.6473,2.5739,2.5639,2.6122,2.6087,2.6062,2.6013,2.7126,2.7508,2.7501,2.8263,2.8663,2.8768,2.8469,2.8208,2.8121,-0.2594,-0.2014,-0.1227,0.0,-0.031,-0.1327,-0.2935,-0.2958,-0.2354,-0.1277,-0.0471,0.0199,0.0773,0.1706,0.2668,0.3701,0.4192,0.4833,0.5809,0.6828,0.7727,0.8441,0.8958,1.0568,1.3462,1.3492,1.2699,1.1019,1.1446,1.1685,1.1655,1.0354,1.03,1.1318,1.2184,1.29,1.3772,1.6501,1.8193,1.9052,1.9604,1.9677,1.9512,2.0099,2.0667,2.1314,2.182,2.2654,2.3555,2.3851,2.4767,2.5882,2.6347,2.7303,2.8276,2.8452,2.9758,3.115,3.1286,3.216,3.2889,3.2214,3.2965,3.3654,3.3014,3.3468,3.384,3.3003,3.3113,3.3081,3.211,3.1178,3.0487,3.0249,2.8359,2.6891,2.6716,2.6752,2.651,2.5817,2.6886,2.7561,2.7085,2.7324,2.7424,2.743,2.7002,2.6858,2.7006,2.7284,2.748,2.7717,2.7558,2.7031,2.6032,2.5808,2.5518,2.5187,2.5142,2.5301,2.5487,2.5113,2.5096,2.5295,2.5072,2.4907,2.49,2.543,2.5792,2.606,2.6778,2.714,2.7279,2.714,2.689,2.6576,-0.5304,-0.4201,-0.3151,-0.2281,-0.2552,-0.3159,-0.3828,-0.3694,-0.3025,-0.1747,-0.0671,0.0263,0.106,0.194,0.2845,0.3661,0.4201,0.4797,0.5584,0.6304,0.7233,0.8366,0.8907,1.0342,1.2812,1.3113,1.2971,1.2388,1.2497,1.2752,1.3025,1.1958,1.1506,1.1719,1.2676,1.3354,1.3894,1.6071,1.7583,1.8658,1.9131,1.9908,2.0726,2.0682,2.1209,2.1898,2.2232,2.3262,2.4467,2.4659,2.5425,2.6383,2.6858,2.7442,2.8029,2.8389,2.9559,3.0921,3.1765,3.2635,3.3219,3.2939,3.3828,3.4631,3.4212,3.4426,3.4576,3.4154,3.378,3.3452,3.3131,3.1893,3.0975,3.0965,2.8717,2.6894,2.6634,2.629,2.5727,2.4941,2.5827,2.6327,2.5846,2.5694,2.5913,2.6565,2.5895,2.5827,2.6771,2.7017,2.7233,2.7538,2.7501,2.6993,2.607,2.5488,2.4862,2.42,2.4408,2.4425,2.4522,2.4438,2.4388,2.4337,2.3879,2.3594,2.3384,2.3672,2.4127,2.4583,2.5252,2.5695,2.5952,2.6072,2.5759,2.5311,-0.8127,-0.6605,-0.5557,-0.516,-0.516,-0.5359,-0.6086,-0.5027,-0.3966,-0.3159,-0.1276,0.0199,0.0573,0.1559,0.2527,0.3554,0.4276,0.5107,0.6138,0.6401,0.7059,0.8172,0.9982,1.1034,1.1085,1.2092,1.2572,1.2586,1.2615,1.3164,1.4387,1.4278,1.37,1.2774,1.3334,1.3858,1.4441,1.5451,1.6441,1.7375,1.7837,1.8289,1.8951,2.106,2.1369,2.0864,2.2794,2.3418,2.3519,2.4879,2.5815,2.6487,2.6956,2.7886,2.877,2.8488,2.9478,3.0557,3.0278,3.2121,3.3759,3.2364,3.3862,3.5416,3.441,3.4602,3.4851,3.4372,3.3976,3.3595,3.3322,3.2409,3.1337,3.0194,2.8731,2.7192,2.5621,2.5062,2.4522,2.3645,2.3666,2.3931,2.42,2.3857,2.3862,2.4499,2.4688,2.5007,2.5241,2.6009,2.6696,2.7333,2.7348,2.6856,2.5889,2.5301,2.4706,2.42,2.386,2.3729,2.3828,2.3391,2.3123,2.2824,2.2599,2.1891,2.0942,2.2008,2.2593,2.2921,2.3956,2.4486,2.4622,2.4831,2.4436,2.3881,-1.0717,-0.9576,-0.8935,-0.9169,-0.8549,-0.7912,-0.7727,-0.6482,-0.516,-0.4028,-0.2449,-0.1062,0.0,0.1215,0.2383,0.3533,0.4476,0.5276,0.6048,0.6348,0.6956,0.8032,0.9369,1.0268,1.0604,1.1731,1.2845,1.3854,1.3345,1.3649,1.4506,1.4902,1.5078,1.5124,1.6741,1.6499,1.488,1.5824,1.7613,1.9825,2.0368,2.0983,2.1627,2.1145,2.1904,2.3274,2.3199,2.3658,2.4461,2.5314,2.5848,2.6243,2.6758,2.742,2.8027,2.8371,2.904,2.9704,2.9808,3.191,3.3931,3.2947,3.4289,3.5541,3.4515,3.4678,3.4925,3.4435,3.4005,3.3643,3.3244,3.1903,3.0769,3.0512,2.8389,2.6541,2.5759,2.4841,2.3938,2.3247,2.2991,2.2907,2.2975,2.2592,2.2414,2.2811,2.3179,2.3602,2.4093,2.5244,2.6164,2.6714,2.6779,2.6457,2.591,2.4969,2.425,2.3835,2.333,2.3024,2.292,2.2097,2.1832,2.1872,2.0962,2.0348,2.0019,2.0668,2.1002,2.1191,2.2127,2.2629,2.2858,2.3368,2.3206,2.2676,-1.3164,-1.2228,-1.1856,-1.2413,-1.1732,-1.078,-0.9907,-0.8613,-0.7075,-0.5165,-0.3861,-0.24,-0.0716,0.0648,0.205,0.3514,0.4487,0.5344,0.6239,0.6811,0.7437,0.8167,0.8997,0.9863,1.0615,1.169,1.2821,1.4118,1.407,1.435,1.4784,1.543,1.6124,1.7032,1.8951,1.8883,1.7364,1.8022,1.9235,2.0796,2.1238,2.2308,2.3353,2.1234,2.1855,2.3756,2.3142,2.3465,2.4281,2.4806,2.516,2.5509,2.5948,2.663,2.7356,2.8228,2.8749,2.9148,2.9514,3.1394,3.3157,3.2858,3.4086,3.5116,3.4167,3.4309,3.4483,3.3736,3.3463,3.3186,3.2787,3.171,3.0828,3.0629,2.8407,2.6484,2.5759,2.4358,2.3169,2.2587,2.2047,2.1791,2.1789,2.1369,2.1296,2.177,2.2094,2.2592,2.3484,2.4685,2.5438,2.5797,2.5901,2.5718,2.5293,2.466,2.4032,2.3372,2.2794,2.231,2.1918,2.1059,2.0695,2.0709,1.9712,1.9271,1.9396,1.9827,2.0179,2.0483,2.1148,2.17,2.2013,2.239,2.2275,2.2171,-1.5428,-1.4506,-1.413,-1.4465,-1.4506,-1.4088,-1.2813,-1.1498,-0.9593,-0.6717,-0.5457,-0.3892,-0.1453,-0.0057,0.1473,0.3392,0.4323,0.5395,0.6773,0.7977,0.8616,0.8601,0.926,1.0021,1.0948,1.1796,1.2458,1.2981,1.4588,1.541,1.541,1.6066,1.7032,1.8116,1.9267,2.067,2.217,2.217,2.1112,1.9457,1.9617,2.1246,2.3366,2.1521,2.1023,2.144,2.2617,2.2719,2.2507,2.3187,2.3719,2.4176,2.4489,2.5629,2.6987,2.7996,2.8626,2.9075,2.9379,3.0343,3.1366,3.1777,3.3207,3.4228,3.3313,3.3442,3.3456,3.2259,3.2157,3.221,3.1841,3.2039,3.1812,3.0302,2.8882,2.7219,2.5376,2.3479,2.2082,2.1459,2.0614,2.029,2.0745,2.035,2.0511,2.1506,2.155,2.2116,2.3548,2.4299,2.4614,2.4506,2.4801,2.4684,2.3979,2.4472,2.4131,2.3001,2.2408,2.1729,2.1089,2.0285,1.9792,1.9438,1.898,1.8796,1.8827,1.9654,2.0405,2.1194,2.1212,2.1737,2.247,2.1977,2.2031,2.2264,-1.8733,-1.7879,-1.7408,-1.8232,-1.6979,-1.5546,-1.4706,-1.3086,-1.0944,-0.8039,-0.6932,-0.5426,-0.2813,-0.1442,0.016,0.2348,0.3421,0.4597,0.6147,0.7355,0.8356,0.919,0.9262,0.9665,1.0442,1.0905,1.1686,1.2764,1.4227,1.5117,1.5421,1.6509,1.7233,1.7594,1.7525,1.839,1.9967,2.0934,2.1351,2.1283,2.0174,2.0168,2.0881,2.0976,2.1054,2.1279,2.221,2.2588,2.2808,2.3312,2.3583,2.3951,2.5133,2.5967,2.6632,2.7664,2.7923,2.7934,2.816,2.835,2.8859,3.0527,3.2257,3.3355,3.2396,3.2579,3.2797,3.2108,3.1713,3.1292,3.0868,3.0445,2.99,2.8967,2.7916,2.6734,2.5439,2.4057,2.2872,2.2197,2.1198,2.0604,2.0682,2.0242,2.003,2.0183,2.0917,2.1925,2.3327,2.374,2.4036,2.4306,2.4374,2.4302,2.3948,2.3795,2.335,2.2553,2.1961,2.135,2.0655,1.9724,1.9504,1.9792,1.9312,1.9389,1.9928,2.0817,2.114,2.1066,2.1428,2.1699,2.1953,2.1856,2.1924,2.2008,-2.1165,-2.0567,-2.0222,-2.1001,-1.9817,-1.8396,-1.7177,-1.543,-1.3254,-1.0479,-0.9131,-0.7411,-0.4898,-0.3359,-0.1629,0.061,0.2516,0.4039,0.5012,0.652,0.7726,0.8453,0.8818,0.9408,1.0322,1.0564,1.1082,1.1831,1.315,1.4336,1.529,1.6031,1.6365,1.6361,1.6447,1.7015,1.8074,1.9541,2.0359,2.0668,2.0391,2.0065,1.9797,2.0628,2.1054,2.1247,2.1664,2.2015,2.2232,2.2403,2.2604,2.2998,2.4399,2.5065,2.553,2.6486,2.6766,2.6838,2.7031,2.712,2.7434,2.8895,3.0469,3.1443,3.0546,3.0762,3.0911,3.0169,3.0042,2.9882,2.9313,2.9349,2.9259,2.8563,2.7668,2.6702,2.5627,2.4261,2.3071,2.2286,2.1391,2.0757,2.0677,2.027,2.0029,2.0283,2.122,2.2215,2.3032,2.3224,2.343,2.3541,2.37,2.3576,2.3251,2.2988,2.2628,2.2176,2.1544,2.0876,2.0242,1.9472,1.9451,1.9852,1.9627,2.0009,2.0781,2.1392,2.1565,2.1497,2.1839,2.2001,2.1989,2.2023,2.208,2.2208,-2.2926,-2.2596,-2.2496,-2.2911,-2.2751,-2.1843,-1.9975,-1.8215,-1.6217,-1.3661,-1.1804,-0.9864,-0.7478,-0.5647,-0.375,-0.1657,0.1449,0.3256,0.3262,0.5382,0.6642,0.6613,0.7829,0.9015,1.0188,1.0423,1.0484,1.0399,1.1622,1.3064,1.4697,1.4805,1.4752,1.4674,1.559,1.6118,1.6413,1.7804,1.8355,1.8534,2.024,2.043,1.9696,2.0338,2.0766,2.1022,2.0927,2.0926,2.1023,2.0893,2.115,2.1655,2.2812,2.3493,2.4033,2.4893,2.542,2.5732,2.5922,2.6193,2.6522,2.6844,2.7843,2.86,2.8171,2.8427,2.8441,2.7264,2.769,2.8102,2.7496,2.8665,2.9449,2.8637,2.7897,2.6988,2.5958,2.4319,2.2963,2.2072,2.1392,2.0919,2.0809,2.0401,2.0465,2.1237,2.2067,2.2528,2.2616,2.283,2.2878,2.2606,2.2783,2.2731,2.2317,2.2115,2.1949,2.1797,2.1185,2.0526,1.9861,1.958,1.9632,1.9858,2.0057,2.0578,2.1447,2.1714,2.2001,2.2307,2.2493,2.2585,2.2644,2.2358,2.2471,2.2537,-2.4929,-2.4259,-2.3691,-2.3839,-2.3464,-2.2889,-2.1904,-2.0604,-1.8797,-1.6016,-1.4379,-1.2492,-0.9931,-0.7544,-0.538,-0.3556,-0.0925,0.0586,0.0554,0.2568,0.4003,0.4517,0.6012,0.7141,0.7827,0.8822,0.9478,0.9707,1.0732,1.1603,1.2426,1.3105,1.3348,1.3223,1.2979,1.3379,1.4281,1.4808,1.6177,1.8043,1.8798,1.9171,1.9207,1.8857,1.884,1.896,1.903,1.9309,1.9664,2.0405,2.0828,2.1279,2.2564,2.3164,2.3629,2.4672,2.4828,2.4594,2.4135,2.3852,2.3619,2.3404,2.3687,2.4746,2.7419,2.7971,2.7758,2.7282,2.7426,2.7425,2.6775,2.7878,2.8528,2.756,2.7596,2.739,2.6213,2.508,2.3993,2.2934,2.238,2.1888,2.1416,2.0975,2.088,2.1258,2.162,2.1882,2.2121,2.2561,2.266,2.2477,2.236,2.2285,2.2104,2.1983,2.1721,2.1589,2.1128,2.0625,2.0153,2.0153,2.0381,2.0924,2.1369,2.205,2.2717,2.3465,2.3625,2.3346,2.3825,2.393,2.3741,2.3487,2.3378,2.3144,-2.7104,-2.6651,-2.6247,-2.61,-2.5521,-2.4742,-2.3907,-2.2545,-2.0641,-1.7969,-1.6295,-1.4495,-1.228,-1.0253,-0.8304,-0.6464,-0.4038,-0.2576,-0.2477,-0.0927,0.0269,0.0843,0.1855,0.2875,0.3855,0.4884,0.6481,0.8594,0.9271,0.9927,1.0625,1.1165,1.1514,1.1657,1.1844,1.2152,1.2563,1.3214,1.4367,1.5808,1.7538,1.7636,1.6837,1.6806,1.6969,1.7211,1.8038,1.8437,1.8763,1.9745,2.0225,2.0702,2.1946,2.2274,2.2361,2.2993,2.2877,2.2562,2.2599,2.2282,2.2061,2.2407,2.2464,2.2979,2.5074,2.5717,2.5782,2.5456,2.6171,2.661,2.5883,2.7233,2.8141,2.7084,2.7489,2.75,2.6283,2.5329,2.4474,2.3573,2.3004,2.2456,2.1936,2.1397,2.1303,2.1582,2.1789,2.1984,2.2146,2.2424,2.2478,2.2402,2.2176,2.2101,2.2101,2.1818,2.1589,2.1359,2.1205,2.0974,2.0566,2.0876,2.1051,2.1071,2.2102,2.2513,2.2576,2.358,2.3766,2.3401,2.3896,2.4057,2.4069,2.3949,2.3745,2.3359,-2.913,-2.9025,-2.8841,-2.8639,-2.7845,-2.6903,-2.5849,-2.4317,-2.2386,-1.988,-1.8154,-1.6431,-1.465,-1.3036,-1.1221,-0.9098,-0.6993,-0.574,-0.5769,-0.4518,-0.3806,-0.3825,-0.297,-0.1967,-0.0864,0.0156,0.276,0.7008,0.7432,0.8031,0.8839,0.9031,0.9391,0.9877,1.0686,1.0965,1.0838,1.182,1.248,1.3067,1.5801,1.5845,1.4268,1.4839,1.5268,1.5772,1.7091,1.7699,1.8037,1.8967,1.953,2.0026,2.1029,2.1144,2.0914,2.1053,2.0754,2.0545,2.1029,2.0975,2.0942,2.1789,2.1905,2.1933,2.2494,2.3348,2.3946,2.3689,2.5039,2.6041,2.5287,2.6961,2.8141,2.7158,2.7566,2.76,2.6361,2.555,2.4784,2.4137,2.3438,2.2869,2.2477,2.1868,2.1638,2.1927,2.2158,2.2258,2.2254,2.2285,2.2327,2.2327,2.2101,2.1949,2.2025,2.1665,2.1395,2.1161,2.1395,2.1262,2.0857,2.1334,2.1336,2.0859,2.2339,2.2644,2.2158,2.3245,2.3446,2.329,2.3787,2.4093,2.427,2.4257,2.3906,2.3461,-3.0508,-3.0344,-3.0178,-2.9956,-2.9335,-2.8534,-2.746,-2.6404,-2.4792,-2.2182,-2.0585,-1.9044,-1.7255,-1.4994,-1.2517,-0.9744,-0.855,-0.8313,-0.918,-0.7602,-0.7411,-0.9174,-0.6639,-0.5236,-0.5409,-0.3581,-0.0233,0.4642,0.5055,0.5685,0.6534,0.668,0.7002,0.7473,0.736,0.7866,0.8741,0.9128,1.0021,1.1309,1.245,1.3283,1.3874,1.3974,1.431,1.4817,1.5262,1.6095,1.7121,1.813,1.8775,1.9219,1.9712,1.9977,2.0093,2.0085,2.012,1.9991,1.9243,1.9141,1.9221,1.8972,1.9298,1.9994,2.1178,2.2773,2.4121,2.4618,2.5677,2.6359,2.5815,2.7442,2.8568,2.7672,2.8036,2.7997,2.6782,2.6065,2.5465,2.4865,2.3974,2.3417,2.3374,2.2562,2.1901,2.1731,2.1919,2.194,2.1786,2.1891,2.1949,2.2101,2.1589,2.1512,2.1818,2.1568,2.1384,2.1143,2.1384,2.1185,2.0624,2.0747,2.0751,2.0859,2.219,2.2644,2.259,2.3464,2.3909,2.4146,2.4853,2.5182,2.5217,2.4805,2.4282,2.3698,-3.1629,-3.1411,-3.1261,-3.106,-3.0374,-2.9517,-2.8594,-2.7528,-2.5821,-2.3073,-2.178,-2.0367,-1.8276,-1.6026,-1.4109,-1.2829,-1.1651,-1.1279,-1.2044,-1.1876,-1.1801,-1.1875,-1.1845,-1.1088,-0.942,-0.8477,-0.6115,-0.2337,0.0877,0.2939,0.3933,0.4295,0.4674,0.5027,0.5038,0.53,0.58,0.6403,0.7459,0.8812,0.967,1.1164,1.2896,1.3301,1.3656,1.4036,1.4328,1.4979,1.5911,1.7011,1.7704,1.8294,1.9432,1.9303,1.8751,1.8516,1.8119,1.769,1.7485,1.756,1.7852,1.8378,1.8626,1.9146,2.0679,2.2115,2.3334,2.4111,2.5589,2.6512,2.5889,2.7337,2.832,2.7405,2.756,2.7348,2.6217,2.5945,2.5572,2.4932,2.413,2.3592,2.3398,2.2389,2.1818,2.1782,2.161,2.1551,2.1765,2.1445,2.1398,2.1721,2.1436,2.1359,2.1665,2.1512,2.141,2.1357,2.0825,2.0515,2.0386,2.0858,2.0941,2.0834,2.2232,2.2739,2.2562,2.3632,2.4067,2.4116,2.4348,2.4601,2.4881,2.4523,2.4445,2.4409]},{"header":{"parameterUnit":"m.s-1","parameterCategory":1,"la1":30.6,"la2":28.766,"lo1":-90.7593,"lo2":-88.6598,"dy":0.0162,"dx":0.0183,"nx":116,"ny":114,"refTime":"2023-06-21T12:00:00:Z","depth":0,"parameterNumber":3,"parameterNumberName":"V-component_of_WINDS"},"data":[0.0,0.0,0.0,0.0,0.0,0.0,0.0,0.0,0.0,0.0,0.0,0.0,0.0,0.0,0.0,0.0,0.0,0.0,0.0,0.0,0.0,0.0,0.0,0.0,0.0,0.0,0.0,0.0,0.0,0.0,0.0,0.0,0.0,0.0,0.0,0.0,0.0,0.0,0.0,0.0,0.0,0.0,0.0,0.0,0.0,0.0,0.0,0.0,0.0,0.0,0.0,0.0,0.0,0.0,0.0,0.0,0.0,0.0,0.0,0.0,0.0,0.0,0.0,0.0,0.0,0.0,0.0,0.0,0.0,0.0,0.0,0.0,0.0,0.0,0.0,0.0,0.0,0.0,0.0,0.0,0.0,0.0,0.0,0.0,0.0,0.0,0.0,0.0,0.0,0.0,0.0,0.0,0.0,0.0,0.0,0.0,0.0,0.0,0.0,0.0,0.0,0.0,0.0,0.0,0.0,0.0,0.0,0.0,0.0,0.0,0.0,0.0,0.0,0.0,0.0,0.0,0.0,0.0,0.0,0.0,0.0,0.0,0.0,0.0,0.0,0.0,0.0,0.0,0.0,0.0,0.0,0.0,0.0,0.0,0.0,0.0,0.0,0.0,0.0,0.0,0.0,0.0,0.0,0.0,0.0,0.0,0.0,0.0,0.0,0.0,0.0,0.0,0.0,0.0,0.0,0.0,0.0,0.0,0.0,0.0,0.0,0.0,0.0,0.0,0.0,0.0,0.0,0.0,0.0,0.0,0.0,0.0,0.0,0.0,0.0,0.0,0.0,0.0,0.0,0.0,0.0,0.0,0.0,0.0,0.0,0.0,0.0,0.0,0.0,0.0,0.0,0.0,0.0,0.0,0.0,0.0,0.0,0.0,0.0,0.0,0.0,0.0,0.0,0.0,0.0,0.0,0.0,0.0,0.0,0.0,0.0,0.0,0.0,0.0,0.0,0.0,0.0,0.0,0.0,0.0,0.0,0.0,0.0,0.0,0.0,0.0,0.0,0.0,0.0,0.0,0.0,0.0,0.0,0.0,0.0,0.0,0.0,0.0,0.0,0.0,0.0,0.0,0.0,0.0,0.0,0.0,0.0,0.0,0.0,0.0,0.0,0.0,0.0,0.0,0.0,0.0,0.0,0.0,0.0,0.0,0.0,0.0,0.0,0.0,0.0,0.0,0.0,0.0,0.0,0.0,0.0,0.0,0.0,0.0,0.0,0.0,0.0,0.0,0.0,0.0,0.0,0.0,0.0,0.0,0.0,0.0,0.0,0.0,0.0,0.0,0.0,0.0,0.0,0.0,0.0,0.0,0.0,0.0,0.0,0.0,0.0,0.0,0.0,0.0,0.0,0.0,0.0,0.0,0.0,0.0,0.0,0.0,0.0,0.0,0.0,0.0,0.0,0.0,0.0,0.0,0.0,0.0,0.0,0.0,0.0,0.0,0.0,0.0,0.0,0.0,0.0,0.0,0.0,0.0,0.0,0.0,0.0,0.0,0.0,0.0,0.0,0.0,0.0,0.0,0.0,0.0,0.0,0.0,0.0,0.0,0.0,0.0,0.0,0.0,0.0,0.0,0.0,0.0,0.0,0.0,0.0,0.0,0.0,0.0,0.0,0.0,0.0,0.0,0.0,0.0,0.0,0.0,0.0,0.0,0.0,0.0,0.0,0.0,0.0,0.0,0.0,0.0,0.0,0.0,0.0,0.0,0.0,0.0,0.0,0.0,0.0,0.0,0.0,0.0,0.0,0.0,0.0,0.0,0.0,0.0,0.0,0.0,0.0,0.0,0.0,0.0,0.0,0.0,0.0,0.0,0.0,0.0,0.0,0.0,0.0,0.0,0.0,0.0,0.0,0.0,0.0,0.0,0.0,0.0,0.0,0.0,0.0,0.0,0.0,0.0,0.0,0.0,0.0,0.0,0.0,0.0,0.0,0.0,0.0,0.0,0.0,0.0,0.0,0.0,0.0,0.0,0.0,0.0,0.0,0.0,0.0,0.0,0.0,0.0,0.0,0.0,0.0,0.0,0.0,0.0,0.0,0.0,0.0,0.0,0.0,0.0,0.0,0.0,0.0,0.0,0.0,0.0,0.0,0.0,0.0,0.0,0.0,0.0,0.0,0.0,0.0,0.0,0.0,0.0,0.0,0.0,0.0,0.0,0.0,0.0,0.0,0.0,0.0,0.0,0.0,0.0,0.0,0.0,0.0,0.0,0.0,0.0,0.0,0.0,0.0,0.0,0.0,0.0,0.0,0.0,0.0,0.0,0.0,0.0,0.0,0.0,0.0,0.0,0.0,0.0,0.0,0.0,0.0,0.0,0.0,0.0,0.0,0.0,0.0,0.0,0.0,0.0,0.0,0.0,0.0,0.0,0.0,0.0,0.0,0.0,0.0,0.0,0.0,0.0,0.0,0.0,0.0,0.0,0.0,0.0,0.0,0.0,0.0,0.0,0.0,0.0,0.0,0.0,0.0,0.0,0.0,0.0,0.0,0.0,0.0,0.0,0.0,0.0,0.0,0.0,0.0,0.0,0.0,0.0,0.0,0.0,0.0,0.0,0.0,0.0,0.0,0.0,0.0,0.0,0.0,0.0,0.0,0.0,0.0,0.0,0.0,0.0,0.0,0.0,0.0,0.0,0.0,0.0,0.0,0.0,0.0,0.0,0.0,0.0,0.0,0.0,0.0,0.0,0.0,0.0,0.0,0.0,0.0,0.0,0.0,0.0,0.0,0.0,0.0,0.0,0.0,0.0,0.0,0.0,0.0,0.0,0.0,0.0,0.0,0.0,0.0,0.0,0.0,0.0,0.0,0.0,0.0,0.0,0.0,0.0,0.0,0.0,0.0,0.0,0.0,0.0,0.0,0.0,0.0,0.0,0.0,0.0,0.0,0.0,0.0,0.0,0.0,0.0,0.0,0.0,0.0,0.0,0.0,0.0,0.0,0.0,0.0,0.0,0.0,0.0,0.0,0.0,0.0,0.0,0.0,0.0,0.0,0.0,0.0,0.0,0.0,0.0,0.0,0.0,0.0,0.0,0.0,0.0,0.0,0.0,0.0,0.0,0.0,0.0,0.0,0.0,0.0,0.0,0.0,0.0,0.0,0.0,0.0,0.0,0.0,0.0,0.0,0.0,0.0,0.0,0.0,0.0,0.0,0.0,0.0,0.0,0.0,0.0,0.0,0.0,0.0,0.0,0.0,0.0,0.0,0.0,0.0,0.0,0.0,0.0,0.0,0.0,0.0,0.0,0.0,0.0,0.0,0.0,0.0,0.0,0.0,0.0,0.0,0.0,0.0,0.0,0.0,0.0,0.0,0.0,0.0,0.0,0.0,0.0,0.0,0.0,0.0,0.0,0.0,0.0,0.0,0.0,0.0,0.0,0.0,0.0,0.0,0.0,0.0,0.0,0.0,0.0,0.0,0.0,0.0,0.0,0.0,0.0,0.0,0.0,0.0,0.0,0.0,0.0,0.0,0.0,0.0,0.0,0.0,0.0,0.0,0.0,0.0,0.0,0.0,0.0,0.0,0.0,0.0,0.0,0.0,0.0,0.0,0.0,0.0,0.0,0.0,0.0,0.0,0.0,0.0,0.0,0.0,0.0,0.0,0.0,0.0,0.0,0.0,0.0,0.0,0.0,0.0,0.0,0.0,0.0,0.0,0.0,0.0,0.0,0.0,0.0,0.0,0.0,0.0,0.0,0.0,0.0,0.0,0.0,0.0,0.0,0.0,0.0,0.0,0.0,0.0,0.0,0.0,0.0,0.0,0.0,0.0,0.0,0.0,0.0,0.0,0.0,0.0,0.0,0.0,0.0,0.0,0.0,0.0,0.0,0.0,0.0,0.0,0.0,0.0,0.0,0.0,0.0,0.0,0.0,0.0,0.0,0.0,0.0,0.0,0.0,0.0,0.0,0.0,0.0,0.0,0.0,0.0,0.0,0.0,0.0,0.0,0.0,0.0,0.0,0.0,0.0,0.0,0.0,0.0,0.0,0.0,0.0,0.0,0.0,0.0,0.0,0.0,0.0,0.0,0.0,0.0,0.0,0.0,0.0,0.0,0.0,0.0,0.0,0.0,0.0,0.0,0.0,0.0,0.0,0.0,0.0,0.0,0.0,0.0,0.0,0.0,0.0,0.0,0.0,0.0,0.0,0.0,0.0,0.0,0.0,0.0,0.0,0.0,0.0,0.0,0.0,0.0,0.0,0.0,0.0,0.0,0.0,0.0,0.0,0.0,0.0,0.0,0.0,0.0,0.0,0.0,0.0,0.0,0.0,0.0,0.0,0.0,0.0,0.0,0.0,0.0,0.0,0.0,0.0,0.0,0.0,0.0,0.0,0.0,0.0,0.0,0.0,0.0,0.0,0.0,0.0,0.0,0.0,0.0,0.0,0.0,0.0,0.0,0.0,0.0,0.0,0.0,0.0,0.0,0.0,0.0,0.0,0.0,0.0,0.0,0.0,0.0,0.0,0.0,0.0,0.0,0.0,0.0,0.0,0.0,0.0,0.0,0.0,0.0,0.0,0.0,0.0,0.0,0.0,0.0,0.0,0.0,0.0,0.0,0.0,0.0,0.0,0.0,0.0,0.0,0.0,0.0,0.0,0.0,0.0,0.0,0.0,0.0,0.0,0.0,0.0,0.0,0.0,0.0,0.0,0.0,0.0,0.0,0.0,0.0,0.0,0.0,0.0,0.0,0.0,0.0,0.0,0.0,0.0,0.0,0.0,0.0,0.0,0.0,0.0,0.0,0.0,0.0,0.0,0.0,0.0,0.0,0.0,0.0,0.0,0.0,0.0,0.0,0.0,0.0,0.0,0.0,0.0,0.0,0.0,0.0,0.0,0.0,0.0,0.0,0.0,0.0,0.0,0.0,0.0,0.0,0.0,0.0,0.0,0.0,0.0,0.0,0.0,0.0,0.0,0.0,0.0,0.0,0.0,0.0,0.0,0.0,0.0,0.0,0.0,0.0,0.0,0.0,0.0,0.0,0.0,0.0,0.0,0.0,0.0,0.0,0.0,0.0,0.0,0.0,0.0,0.0,0.0,0.0,0.0,0.0,0.0,0.0,0.0,0.0,0.0,0.0,0.0,0.0,0.0,0.0,0.0,0.0,0.0,0.0,0.0,0.0,0.0,0.0,0.0,0.0,0.0,0.0,0.0,0.0,0.0,0.0,0.0,0.0,0.0,0.0,0.0,0.0,0.0,0.0,0.0,0.0,0.0,0.0,0.0,0.0,0.0,0.0,0.0,0.0,0.0,0.0,0.0,0.0,0.0,0.0,0.0,0.0,0.0,0.0,0.0,0.0,0.0,0.0,0.0,0.0,0.0,0.0,0.0,0.0,0.0,0.0,0.0,0.0,0.0,0.0,0.0,0.0,0.0,0.0,0.0,0.0,0.0,0.0,0.0,0.0,0.0,0.0,0.0,0.0,0.0,0.0,0.0,0.0,0.0,0.0,0.0,0.0,0.0,0.0,0.0,0.0,0.0,0.0,0.0,0.0,0.0,0.0,0.0,0.0,0.0,0.0,0.0,0.0,0.0,0.0,0.0,0.0,0.0,0.0,0.0,0.0,0.0,0.0,0.0,0.0,0.0,0.0,0.0,0.0,0.0,0.0,0.0,0.0,0.0,0.0,0.0,0.0,0.0,0.0,0.0,0.0,0.0,0.0,0.0,0.0,0.0,0.0,0.0,0.0,0.0,0.0,0.0,0.0,0.0,0.0,0.0,0.0,0.0,0.0,0.0,0.0,0.0,0.0,0.0,0.0,0.0,0.0,0.0,0.0,0.0,0.0,0.0,0.0,0.0,0.0,0.0,0.0,0.0,0.0,0.0,0.0,0.0,0.0,0.0,0.0,0.0,0.0,0.0,0.0,0.0,0.0,0.0,0.0,0.0,0.0,0.0,0.0,0.0,0.0,0.0,0.0,0.0,0.0,0.0,0.0,0.0,0.0,0.0,0.0,0.0,0.0,0.0,0.0,0.0,0.0,0.0,0.0,0.0,0.0,0.0,0.0,0.0,0.0,0.0,0.0,0.0,0.0,0.0,0.0,0.0,0.0,0.0,0.0,0.0,0.0,0.0,0.0,0.0,0.0,0.0,0.0,0.0,-1.0944,-0.9761,0.0,0.0,0.0,0.0,0.0,0.0,0.0,0.0,0.0,0.0,0.0,0.0,0.0,0.0,0.0,0.0,0.0,0.0,0.0,0.0,0.0,0.0,0.0,0.0,0.0,0.0,0.0,0.0,0.0,0.0,0.0,0.0,0.0,0.0,0.0,0.0,0.0,0.0,0.0,0.0,0.0,0.0,0.0,0.0,0.0,0.0,0.0,0.0,0.0,0.0,0.0,0.0,0.0,0.0,0.0,0.0,0.0,0.0,0.0,0.0,0.0,0.0,0.0,0.0,0.0,0.0,0.0,0.0,0.0,0.0,0.0,0.0,0.0,0.0,0.0,0.0,0.0,0.0,0.0,0.0,0.0,0.0,0.0,0.0,0.0,0.0,0.0,0.0,0.0,0.0,0.0,0.0,0.0,0.0,0.0,0.0,0.0,0.0,0.0,0.0,0.0,0.0,0.0,0.0,0.0,0.0,0.0,0.0,0.0,0.0,0.0,0.0,0.0,0.0,-1.274,-1.1228,0.0,0.0,0.0,0.0,0.0,0.0,0.0,0.0,0.0,0.0,0.0,0.0,0.0,0.0,0.0,0.0,0.0,0.0,0.0,0.0,0.0,0.0,0.0,0.0,0.0,0.0,0.0,0.0,0.0,0.0,0.0,0.0,0.0,0.0,0.0,0.0,0.0,0.0,0.0,0.0,0.0,0.0,0.0,0.0,0.0,0.0,0.0,0.0,0.0,0.0,0.0,0.0,0.0,0.0,0.0,0.0,0.0,0.0,0.0,0.0,0.0,0.0,0.0,0.0,0.0,0.0,0.0,0.0,0.0,0.0,0.0,0.0,0.0,0.0,0.0,0.0,0.0,0.0,0.0,0.0,0.0,0.0,0.0,0.0,0.0,0.0,0.0,0.0,0.0,0.0,0.0,0.0,0.0,0.0,0.0,0.0,0.0,0.0,0.0,0.0,0.0,0.0,0.0,0.0,0.0,0.0,0.0,0.0,-2.2167,-2.1393,-2.0067,-1.9098,-1.815,-1.7245,-1.4966,-1.3226,-1.1891,-1.0756,0.0,0.0,0.0,0.0,0.0,0.0,0.0,0.0,0.0,0.0,0.0,0.0,0.0,0.0,0.0,0.0,0.0,0.0,0.0,0.0,0.0,0.0,0.0,0.0,0.0,0.0,0.0,0.0,0.0,0.0,0.0,0.0,0.0,0.0,0.0,0.0,0.0,0.0,0.0,0.0,0.0,0.0,0.0,0.0,0.0,0.0,0.0,0.0,0.0,0.0,0.0,0.0,0.0,0.0,0.0,0.0,0.0,0.0,0.0,0.0,0.0,0.0,0.0,0.0,0.0,0.0,0.0,0.0,0.0,0.0,0.0,0.0,0.0,0.0,0.0,0.0,0.0,0.0,0.0,0.0,0.0,0.0,0.0,0.0,0.0,0.0,-2.1395,-2.2595,0.0,0.0,0.0,0.0,0.0,0.0,0.0,0.0,0.0,0.0,0.0,0.0,0.0,-2.6013,-2.5602,-2.5188,-2.4366,-2.3195,-2.3671,-2.3522,-2.2824,-2.1713,-2.0742,-1.9878,-1.9402,0.0,-1.3835,-1.3438,0.0,0.0,0.0,0.0,0.0,0.0,0.0,0.0,0.0,0.0,0.0,0.0,0.0,0.0,0.0,0.0,0.0,0.0,0.0,0.0,0.0,0.0,0.0,0.0,0.0,0.0,0.0,0.0,0.0,0.0,0.0,0.0,0.0,0.0,0.0,0.0,0.0,0.0,0.0,0.0,0.0,0.0,0.0,0.0,0.0,0.0,0.0,0.0,0.0,0.0,0.0,0.0,0.0,0.0,0.0,0.0,0.0,0.0,0.0,0.0,0.0,0.0,0.0,0.0,0.0,0.0,0.0,0.0,0.0,0.0,0.0,0.0,0.0,0.0,0.0,0.0,0.0,0.0,0.0,0.0,0.0,0.0,0.0,0.0,0.0,-2.0204,-2.3093,-2.3378,-2.5414,-2.6319,0.0,0.0,0.0,0.0,0.0,0.0,0.0,0.0,0.0,-2.8165,-2.8771,-2.8889,-2.8537,-2.8196,-2.7345,-2.587,-2.5897,-2.558,-2.4966,-2.4237,-2.3287,-2.2208,-2.1885,-2.013,-1.7393,-1.5583,-1.4613,-1.42,0.0,0.0,0.0,0.0,-1.4205,-1.456,0.0,0.0,0.0,0.0,0.0,0.0,0.0,0.0,0.0,0.0,0.0,0.0,0.0,0.0,0.0,-0.1358,0.0,0.0,0.0,0.0,0.0,0.0,0.0,0.0,0.0,0.0,0.0,0.0,0.0,0.0,0.0,0.0,0.0,0.0,0.0,0.0,0.0,0.0,0.0,0.0,0.0,0.0,0.0,0.0,0.0,0.0,0.0,0.0,0.0,0.0,0.0,0.0,0.0,0.0,0.0,0.0,0.0,0.0,0.0,0.0,0.0,0.0,0.0,0.0,0.0,0.0,0.0,0.0,0.0,0.0,0.0,0.0,0.0,0.0,0.0,0.0,0.0,-2.2786,-2.4734,-2.4802,-2.6749,-2.7539,0.0,0.0,0.0,0.0,0.0,0.0,-2.9058,-3.0364,-3.0995,-3.0651,-3.1066,-3.1073,-3.0686,-3.0389,-2.9485,-2.7989,-2.74,-2.6758,-2.617,-2.5844,-2.5089,-2.3984,-2.3293,-2.224,-2.0661,-1.7973,-1.6666,-1.6251,-1.56,-1.5592,-1.6017,-1.6102,-1.6675,-1.7404,0.0,0.0,0.0,0.0,0.0,0.0,0.0,0.0,0.0,0.0,0.0,0.0,0.0,0.0,-0.1823,-0.1261,-0.0475,-0.0564,0.0,0.0,0.0,0.0,0.0,0.0,0.0,0.0,0.0,0.0,0.0,0.0,0.0,0.0,0.0,0.0,0.0,0.0,0.0,0.0,0.0,0.0,0.0,0.0,0.0,0.0,0.0,0.0,0.0,0.0,0.0,0.0,0.0,0.0,0.0,0.0,0.0,0.0,0.0,0.0,0.0,0.0,0.0,0.0,0.0,0.0,0.0,0.0,0.0,0.0,0.0,0.0,0.0,0.0,0.0,0.0,0.0,0.0,0.0,0.0,0.0,-2.7416,-2.8236,0.0,0.0,0.0,0.0,-2.9091,-3.0944,-3.1903,-3.1549,-3.2281,-3.2443,-3.1927,-3.1826,-3.1768,-3.1734,-3.0483,-2.9404,-2.8536,-2.7303,-2.6555,-2.6203,-2.5987,-2.5502,-2.478,-2.3781,-2.3245,-2.2906,-2.1073,-1.984,-1.9065,-1.8553,-1.8867,-1.9498,-1.8923,-1.9331,-2.031,0.0,0.0,0.0,0.0,0.0,0.0,0.0,0.0,0.0,0.0,0.0,0.0,0.0,-0.3878,-0.3405,-0.3266,-0.2858,-0.2576,-0.2483,0.0,0.0,0.0,0.0,0.0,0.0,0.0,0.0,0.0,0.0,0.0,0.0,0.0,0.0,0.0,0.0,0.0,0.0,0.0,0.0,0.0,0.0,0.0,0.0,0.0,0.0,0.0,0.0,0.0,0.0,0.0,0.0,0.0,0.0,0.0,0.0,0.0,0.0,0.0,0.0,0.0,0.0,0.0,0.0,0.0,0.0,0.0,0.0,0.0,0.0,0.0,0.0,0.0,0.0,0.0,0.0,0.0,0.0,0.0,0.0,-2.7766,-2.9196,0.0,-2.8768,-2.9626,-3.0035,-2.9598,-3.1326,-3.2097,-3.1416,-3.3112,-3.3653,-3.2671,-3.2947,-3.2919,-3.2592,-3.1635,-3.0902,-3.0385,-2.8621,-2.7541,-2.6949,-2.6468,-2.5544,-2.4281,-2.411,-2.3435,-2.2396,-2.1893,-2.1324,-2.0767,-2.0463,-2.0703,-2.1205,-2.1263,-2.1607,-2.2131,0.0,0.0,0.0,0.0,0.0,0.0,0.0,0.0,0.0,0.0,0.0,-0.6754,-0.5991,-0.4935,-0.4276,-0.424,-0.4388,-0.4113,-0.3189,0.0,0.0,0.0,0.0,0.0,0.0,0.0,0.0,0.0,0.0,0.0,0.0,0.0,0.0,0.0,0.0,0.0,0.0,0.0,0.0,0.0,0.0,0.0,0.4651,0.0,0.0,0.0,0.0,0.0,0.0,0.0,0.0,0.0,0.0,0.0,0.0,0.0,0.0,0.0,0.0,0.0,0.0,0.0,0.0,0.0,0.0,0.0,0.0,0.0,0.0,0.0,0.0,0.0,0.0,0.0,0.0,0.0,0.0,0.0,-2.7062,-2.8361,-2.9514,-2.9959,-2.927,-2.9908,-3.0132,-2.959,-3.1248,-3.1969,-3.1386,-3.3637,-3.442,-3.3265,-3.3936,-3.3755,-3.2652,-3.2127,-3.1545,-3.0998,-2.9709,-2.8636,-2.7748,-2.7135,-2.6245,-2.5145,-2.4844,-2.4,-2.2853,-2.2767,-2.2446,-2.1933,-2.1661,-2.199,-2.2682,-2.284,-2.3265,-2.3837,0.0,0.0,0.0,0.0,0.0,0.0,0.0,0.0,0.0,0.0,0.0,-0.737,-0.6406,-0.5223,-0.4309,-0.3922,-0.4678,-0.4845,-0.4039,-0.3612,0.0,0.0,0.0,0.0,0.0,0.0,0.0,0.0,0.0,0.0,0.0,0.0,0.0,0.0,0.0,0.0,0.0,0.0,0.0,0.0,0.0,0.0,0.4316,0.0,0.0,0.0,0.0,0.0,0.0,0.0,0.0,0.0,0.0,0.0,0.0,0.0,0.0,0.0,0.0,0.0,0.0,0.0,0.0,0.0,0.0,0.0,0.0,0.0,0.0,0.0,0.0,0.0,0.0,0.0,0.0,0.0,-2.454,-2.622,-2.7694,-2.9289,-2.9212,-2.9052,-2.9082,-2.9119,-2.9141,-2.9132,-3.0788,-3.1741,-3.163,-3.3833,-3.4686,-3.3696,-3.4659,-3.4155,-3.2044,-3.1846,-3.1235,-3.0238,-3.0417,-2.9807,-2.8576,-2.802,-2.7611,-2.7244,-2.5949,-2.5041,-2.4455,-2.3828,-2.3254,-2.266,-2.2224,-2.2848,-2.3971,-2.3633,-2.4321,-2.5512,0.0,0.0,0.0,0.0,0.0,0.0,0.0,0.0,0.0,0.0,-0.8695,-0.7909,-0.654,-0.4848,-0.3738,-0.3485,-0.2988,-0.2962,-0.3602,0.0,0.0,0.0,0.0,0.0,0.0,0.0,0.0,0.0,0.0,0.0,0.0,0.0,0.0,0.0,0.0,0.0,0.0,0.0,0.0,0.0,0.0,0.0,0.3684,0.0,0.0,0.0,0.0,0.0,0.0,0.0,0.0,0.0,0.0,0.0,0.0,0.0,0.0,0.0,0.0,0.0,0.0,0.0,0.0,0.0,0.0,0.0,0.0,0.0,0.0,0.0,0.0,0.0,0.0,0.0,0.0,-2.2212,-2.5057,-2.6226,-2.7301,-2.8622,-2.9223,-2.9243,-2.8562,-2.9422,-2.9882,-2.9486,-3.0929,-3.1801,-3.1838,-3.3009,-3.3472,-3.305,-3.3125,-3.3002,-3.2572,-3.2144,-3.1649,-3.1057,-3.0348,-2.9349,-2.8078,-2.7536,-2.6766,-2.5778,-2.5447,-2.4879,-2.4238,-2.3407,-2.3033,-2.2999,-2.2972,-2.3336,-2.395,-2.4195,-2.5137,-2.6446,0.0,0.0,0.0,0.0,0.0,0.0,0.0,0.0,0.0,0.0,-0.8206,-0.7609,-0.6508,-0.5312,-0.4077,-0.2856,-0.2078,-0.1849,-0.2259,0.0,0.0,0.0,0.0,0.0,0.0,0.0,0.0,0.0,0.0,0.0,0.0,0.0,0.0,0.0,0.0,0.0,0.0,0.0,0.0,0.0,0.0,0.0,0.2913,0.3462,0.3354,0.2863,0.2449,0.1681,0.0733,-0.0052,0.0,0.0,0.0,0.0,0.0,0.0,0.0,0.0,0.0,0.0,0.0,0.0,0.0,0.0,0.0,0.0,0.0,0.0,0.0,0.0,0.0,0.0,0.0,0.0,-2.0699,-2.2844,-2.5579,-2.6542,-2.7341,-2.8595,-2.9096,-2.9233,-2.8865,-2.9545,-2.9863,-2.947,-3.0659,-3.1363,-3.1399,-3.2527,-3.2922,-3.2368,-3.3034,-3.3118,-3.2514,-3.2555,-3.2243,-3.1589,-3.0635,-2.977,-2.8931,-2.7931,-2.7043,-2.633,-2.5841,-2.5212,-2.4513,-2.4049,-2.3747,-2.3533,0.0,0.0,0.0,0.0,-2.6079,-2.7346,0.0,0.0,0.0,0.0,0.0,0.0,0.0,0.0,0.0,0.0,0.0,-0.6971,-0.6591,-0.6161,-0.4884,-0.2314,-0.184,-0.1392,0.0,0.0,0.0,0.0,0.0,0.0,0.0,0.0,0.0,0.0,0.0,0.0,0.0,0.0,0.0,0.0,0.0,0.0,0.0,0.0,0.0,0.0,0.0,0.0,0.1946,0.269,0.2511,0.1815,0.1947,0.115,-0.0034,-0.0431,0.0,0.0,0.0,0.0,0.0,0.0,0.0,0.0,0.0,0.0,0.0,0.0,0.0,0.0,0.0,0.0,0.0,0.0,0.0,0.0,0.0,0.0,0.0,0.0,-2.1399,-2.3277,-2.6092,-2.7012,-2.7745,-2.8805,-2.8925,-2.9054,-2.9386,-2.9455,-2.942,-2.9279,-3.0213,-3.0767,-3.0731,0.0,0.0,0.0,0.0,-3.3677,-3.2018,-3.2879,-3.2802,-3.1707,-3.1083,-3.0526,-3.016,-2.8679,-2.7938,-2.7814,-2.6689,-2.5771,-2.5176,-2.5144,-2.4747,-2.4074,-2.317,-2.3092,-2.3741,-2.5625,-2.7044,-2.8125,0.0,0.0,0.0,0.0,0.0,0.0,0.0,0.0,0.0,-0.6822,-0.7142,-0.73,-0.7444,-0.653,-0.5001,-0.2765,-0.2363,-0.1915,0.0,0.0,0.0,0.0,0.0,0.0,0.0,0.0,0.0,0.0,0.0,0.0,0.0,0.0,0.0,0.0,0.0,0.0,0.0,0.0,0.0,0.0,0.0,0.0,0.0404,0.0908,0.0958,0.0673,0.0309,-0.0305,-0.1143,-0.1899,-0.2161,-0.2221,-0.2735,0.0,0.0,0.0,0.0,0.0,0.0,0.0,0.0,0.0,0.0,0.0,0.0,0.0,0.0,0.0,0.0,0.0,0.0,0.0,0.0,-1.9876,-2.2141,-2.4295,-2.6184,-2.7607,-2.8459,-2.8352,-2.8767,-2.9041,-2.8929,-2.9244,-2.9499,-2.969,-3.0403,-3.0847,-3.1002,-3.1312,-3.1414,-3.124,-3.19,-3.2007,-3.1353,-3.2382,-3.2096,-3.0513,-3.0812,0.0,-2.8621,-2.8007,-2.7557,-2.724,-2.6348,-2.5997,-2.5976,-2.5062,-2.4443,-2.4176,-2.4534,-2.4997,-2.5636,-2.7101,-2.8039,-2.8694,0.0,0.0,0.0,0.0,0.0,0.0,0.0,0.0,0.0,0.0,-0.6028,-0.6569,-0.6783,-0.7056,-0.6032,-0.2977,-0.1782,0.0,0.0,0.0,0.0,0.0,0.0,0.0,0.0,0.0,0.0,0.0,0.0,0.0,0.0,0.0,0.0,0.0,0.0,0.0,0.0,0.0,0.0,0.0,0.0,0.0,-0.2715,-0.117,-0.0698,-0.0831,-0.1259,-0.18,-0.2391,-0.3158,-0.3524,-0.3689,-0.3992,-0.379,-0.3514,0.0,0.0,0.0,0.0,0.0,0.0,0.0,0.0,0.0,0.0,0.0,0.0,0.0,0.0,-1.1063,0.0,0.0,-1.8208,-2.0303,-2.265,-2.4839,-2.6596,-2.8015,-2.892,-2.9028,-2.9372,-2.9526,-2.9509,-2.9666,-2.9741,-2.9657,-2.9985,-3.0309,-3.0559,-3.0601,-3.0808,-3.125,-3.1404,-3.167,-3.2118,-3.2031,-3.1688,-3.1124,-3.0629,-2.9956,-2.9134,-2.8073,-2.7567,-2.7498,-2.6409,-2.599,-2.6066,-2.5451,-2.5127,-2.5077,-2.5766,-2.5904,-2.596,-2.7288,-2.8054,-2.8609,0.0,0.0,0.0,0.0,0.0,0.0,0.0,0.0,0.0,0.0,0.0,-0.5395,-0.587,-0.7225,-0.6754,0.0,0.0,0.0,0.0,0.0,0.0,0.0,0.0,0.0,0.0,0.0,0.0,0.0,0.0,0.0,0.0,0.0,0.0,0.0,0.0,0.0,0.0,0.0,0.0,0.0,0.0,0.0,-0.6268,-0.4136,-0.3088,-0.2778,-0.3041,-0.3411,-0.3913,-0.4539,-0.4973,-0.5246,-0.5199,-0.5048,-0.4964,-0.5414,-0.5002,0.0,0.0,0.0,0.0,0.0,0.0,0.0,0.0,0.0,-0.6138,-0.6668,-0.9913,-1.2722,-1.283,-1.5684,-1.874,-2.0817,-2.3007,-2.5133,-2.72,-2.8458,-2.9433,-3.0168,-3.0135,-3.0049,-3.014,-3.0119,-2.9946,-2.956,-2.9605,-2.9738,-2.9957,-3.0044,-3.0391,-3.1068,-3.1144,-3.1551,-3.2289,-3.1547,-3.125,-3.1514,-3.036,-2.9893,-2.9958,-2.8297,-2.7729,-2.7984,-2.6578,-2.5881,-2.577,-2.5844,-2.5881,-2.5917,-2.6487,-2.6461,-2.6215,-2.7296,-2.7969,-2.8483,0.0,0.0,0.0,0.0,0.0,0.0,0.0,0.0,0.0,0.0,0.0,0.0,0.0,0.0,0.0,0.0,0.0,0.0,0.0,0.0,0.0,0.0,0.0,0.0,0.0,0.0,0.0,0.0,0.0,0.0,0.0,0.0,0.0,0.0,0.0,0.0,0.0,0.0,0.0,0.0,0.0,0.0,-0.9223,-0.9015,-0.7374,-0.5294,-0.5359,-0.5552,-0.5871,-0.6425,-0.6768,-0.6985,-0.7277,-0.7167,-0.697,-0.7097,0.0,-0.5923,-0.6225,-0.6815,-0.7499,-0.8033,-0.838,-0.879,0.0,0.0,-0.9301,-0.9717,-1.149,-1.3232,-1.4268,-1.6551,-1.8951,-2.1104,-2.3217,-2.5372,-2.7684,-2.906,-3.0228,-3.137,-3.0696,-3.0149,-3.0,-2.9858,-2.9726,-2.9681,-2.9681,-2.9681,-2.9726,-2.9782,-2.9902,-2.9967,-3.0493,-3.0486,-2.9932,-3.0671,-3.0476,-2.9438,-2.9736,-2.9832,-2.9701,-2.8401,-2.7931,-2.818,-2.6796,-2.5877,-2.5394,-2.5733,-2.5844,-2.5775,-2.6279,-2.6996,-2.7837,-2.7996,-2.8347,-2.8802,0.0,0.0,0.0,0.0,0.0,0.0,0.0,0.0,0.0,0.0,0.0,0.0,0.0,0.0,0.0,0.0,0.0,0.0,0.0,0.0,0.0,0.0,0.0,0.0,0.0,0.0,0.0,0.0,0.0,0.0,0.0,0.0,0.0,0.0,0.0,0.0,0.0,0.0,0.0,0.0,0.0,0.0,-1.255,-1.2581,-1.1594,-0.9925,-0.8116,-0.7527,0.0,0.0,-0.8431,-0.8649,-0.8911,-0.8713,-0.8325,-0.8067,-0.7701,0.0,-0.7788,-0.8495,0.0,0.0,-1.0902,-1.1866,-1.1701,-1.2151,-1.2484,-1.2083,-1.3182,-1.4508,-1.5537,-1.7236,-1.9347,0.0,-2.3767,-2.5671,-2.8007,-2.9264,-3.0266,-3.0898,-3.1117,-3.0927,-3.0429,-2.9951,-2.956,-2.9502,-2.9275,-2.9275,-2.9592,-2.9515,-2.9797,-3.0396,-3.0299,-3.0435,-3.0844,-3.0401,-3.0037,-2.9832,-2.9673,-2.9667,-2.9649,-2.8502,-2.7591,-2.692,-2.6327,-2.5999,-2.5886,-2.6237,-2.6574,-2.6814,-2.7316,-2.7888,-2.8418,-2.8429,-2.8963,-2.9737,0.0,0.0,0.0,0.0,0.0,0.0,0.0,0.0,0.0,0.0,0.0,0.0,0.0,0.0,0.0,0.0,0.0,0.0,0.0,0.0,0.0,0.0,0.0,0.0,0.0,0.0,0.0,0.0,0.0,0.0,0.0,0.0,0.0,0.0,0.0,0.0,0.0,0.0,0.0,0.0,0.0,0.0,-1.6004,-1.5839,-1.5338,-1.4214,-1.0953,-0.9625,0.0,0.0,-0.9949,-1.0026,-1.0075,-0.9828,-0.9409,-0.8958,-0.8763,-0.8758,-0.8944,0.0,0.0,-1.1432,-1.2935,-1.4081,-1.3796,-1.4631,-1.5291,-1.4639,-1.54,-1.6365,-1.7036,-1.8325,-2.0145,-2.2731,-2.4204,-2.5876,-2.8254,-2.9525,-3.0373,-3.0926,-3.1602,-3.1775,-3.1308,-3.0693,-3.0229,-3.0,-2.961,-2.9515,-2.979,-2.9553,-2.9772,-3.0558,-3.0073,-3.0332,-3.1241,-3.0028,-2.9681,-3.0145,-2.9726,-2.9508,-2.9502,-2.8648,-2.7514,-2.6323,-2.6521,-2.6613,-2.6622,-2.6896,-2.7187,-2.7515,-2.797,-2.8378,-2.8748,-2.8939,-2.9443,-3.0137,0.0,0.0,0.0,0.0,0.0,0.0,0.0,0.0,0.0,0.0,0.0,0.0,0.0,0.0,0.0,0.0,0.0,0.0,0.0,0.0,0.0,0.0,0.0,0.0,0.0,0.0,0.0,0.0,0.0,0.0,0.0,0.0,0.0,0.0,0.0,0.0,0.0,0.0,0.0,0.0,0.0,0.0,-1.9607,-1.9018,-1.8381,-1.7175,-1.3666,0.0,0.0,0.0,-1.1176,-1.099,-1.0672,-1.0547,0.0,-1.0,-0.9773,-0.9652,0.0,0.0,-1.1307,-1.3229,-1.4145,-1.5033,-1.6752,-1.7295,-1.7491,-1.7716,-1.8361,-1.8907,-1.9008,-2.0201,-2.1631,-2.3204,-2.4458,-2.6061,-2.8559,-2.9696,-3.0814,-3.2204,-3.2478,-3.2556,0.0,-3.2304,-3.2024,-3.1757,-3.1158,-3.0771,-3.0605,-3.0023,-2.9726,-2.9826,-2.977,-2.977,-2.9858,-2.947,-2.9457,-2.9714,-2.9592,-2.9426,-2.9214,-2.8805,-2.8002,-2.7114,-2.7838,-2.785,-2.7358,-2.7442,-2.7442,-2.7432,-2.7688,-2.8315,-2.9141,-2.9549,-2.961,-2.9622,0.0,0.0,0.0,0.0,0.0,0.0,0.0,0.0,0.0,0.0,0.0,0.0,0.0,0.0,0.0,0.0,0.0,0.0,0.0,0.0,0.0,0.0,0.0,0.0,0.0,0.0,0.0,0.0,0.0,0.0,0.0,0.0,0.0,0.0,0.0,0.0,0.0,0.0,0.0,0.0,0.0,-2.191,-2.337,-2.2784,-2.165,-2.0131,0.0,0.0,0.0,0.0,0.0,0.0,-1.191,0.0,0.0,-1.1065,-1.0481,-1.0179,-1.1358,0.0,-1.2979,-1.4806,-1.6089,-1.7255,-1.8472,-1.9216,-1.9627,-1.9509,-1.9876,-2.0271,-2.05,-2.123,-2.2375,-2.409,-2.5455,-2.6924,-2.8775,-2.9981,-3.0981,-3.1962,-3.2547,0.0,0.0,0.0,0.0,-3.2089,-3.169,-3.156,-3.1639,-3.1227,-3.0826,-3.0526,-3.0435,-3.0209,-2.9858,-2.9681,-2.9592,-2.9681,-2.9694,-2.9524,-2.9181,-2.8992,-2.8378,-2.7445,-2.7713,-2.7856,-2.7878,-2.8137,-2.8469,-2.8798,-2.9103,-2.9404,-2.9727,-3.0021,-3.0182,-3.0268,0.0,0.0,0.0,0.0,0.0,0.0,0.0,0.0,0.0,0.0,0.0,0.0,0.0,0.0,0.0,0.0,0.0,0.0,0.0,0.0,0.0,0.0,0.0,0.0,0.0,0.0,0.0,0.0,0.0,0.0,0.0,0.0,0.0,0.0,0.0,0.0,0.0,0.0,0.0,0.0,-2.166,-2.4168,-2.6043,-2.526,-2.398,0.0,0.0,0.0,0.0,0.0,0.0,0.0,0.0,-1.2554,-1.2037,-1.2116,-1.1696,-1.1605,-1.3211,-1.4043,-1.488,-1.679,-1.8125,-1.9244,-2.0243,-2.0955,-2.137,-2.125,-2.1485,-2.1839,-2.1992,-2.2454,-2.3338,-2.501,-2.6099,-2.734,-2.9018,-3.0176,-3.1131,-3.1823,-3.2571,-3.3298,0.0,0.0,0.0,-3.3107,-3.2577,-3.2367,-3.2588,-3.2175,-3.1757,-3.1362,-3.0919,-3.0564,-3.0247,-3.0023,-2.9886,-2.984,-2.9656,-2.9437,-2.9009,-2.8925,-2.8498,-2.7869,-2.8126,-2.8295,-2.8306,-2.8653,-2.8997,-2.9366,-2.9637,-2.9932,-3.0214,-3.0522,-3.0859,-3.1205,0.0,0.0,0.0,0.0,0.0,0.0,0.0,0.0,0.0,0.0,0.0,0.0,0.0,0.0,0.0,0.0,0.0,0.0,0.0,0.0,0.0,0.0,0.0,0.0,0.0,0.0,0.0,0.0,0.0,0.0,0.0,0.0,0.0,0.0,0.0,0.0,0.0,0.0,0.0,0.0,-2.2706,0.0,-2.7517,-2.6651,0.0,0.0,0.0,0.0,0.0,0.0,0.0,0.0,0.0,0.0,-1.3198,-1.3246,-1.3457,-1.3894,-1.5134,-1.5915,-1.6951,-1.9041,-2.0087,-2.0974,-2.203,-2.254,-2.2785,-2.2891,-2.3219,-2.3454,0.0,0.0,-2.4577,-2.591,-2.6439,-2.7423,-2.9392,-3.0447,-3.1278,0.0,0.0,0.0,0.0,0.0,0.0,-3.4774,0.0,-3.3192,-3.3448,-3.2804,-3.2432,-3.2248,-3.1288,-3.084,-3.0914,-3.0496,-3.0259,-3.0116,-2.961,-2.917,-2.8791,-2.8672,-2.8542,-2.8443,-2.9098,-2.9154,-2.8747,-2.9061,-2.9186,-2.92,-2.9462,-3.0014,-3.0637,-3.1005,-3.1655,-3.2241,0.0,0.0,0.0,0.0,0.0,0.0,0.0,0.0,0.0,0.0,0.0,0.0,0.0,0.0,0.0,0.0,0.0,0.0,0.0,0.0,0.0,0.0,0.0,0.0,0.0,0.0,0.0,0.0,0.0,0.0,0.0,0.0,0.0,0.0,0.0,0.0,0.0,0.0,0.0,0.0,0.0,-2.5937,-2.8482,0.0,0.0,0.0,0.0,0.0,0.0,0.0,0.0,0.0,0.0,0.0,-1.5375,-1.571,-1.5697,-1.587,-1.7121,-1.7806,-1.8539,-2.0086,-2.1052,-2.1844,-2.2685,-2.3231,-2.3473,-2.313,-2.3201,-2.3153,0.0,0.0,0.0,-2.5365,-2.6813,0.0,-3.0227,-3.1046,0.0,-3.3244,0.0,-3.446,-3.5316,-3.5476,0.0,0.0,-3.4955,-3.4186,-3.4235,-3.3727,-3.3173,-3.2627,-3.1992,-3.1494,-3.1053,-3.066,-3.0441,-3.039,-3.0254,-3.0266,-3.0321,-3.0321,-3.0176,-2.998,-3.0217,-2.9949,-2.9366,-2.9993,-3.0225,-3.0132,-3.0783,-3.1246,-3.1501,-3.183,-3.2112,-3.2393,0.0,0.0,0.0,0.0,0.0,0.0,0.0,0.0,0.0,0.0,0.0,0.0,0.0,0.0,0.0,0.0,0.0,0.0,0.0,0.0,0.0,0.0,0.0,0.0,0.0,0.0,0.0,0.0,0.0,0.0,0.0,0.0,0.0,0.0,0.0,0.0,0.0,0.0,0.0,0.0,0.0,0.0,0.0,0.0,0.0,0.0,0.0,0.0,0.0,0.0,0.0,-1.8296,-1.797,-1.779,-1.7772,-1.8191,0.0,-1.8031,-1.9089,-1.9834,-2.0562,-2.1569,-2.2382,-2.3023,-2.3364,-2.3733,-2.3818,-2.3155,-2.3327,0.0,0.0,0.0,0.0,0.0,0.0,0.0,-3.1017,-3.1849,-3.27,0.0,-3.4296,0.0,-3.5609,-3.5696,-3.5806,0.0,-3.5072,-3.4558,-3.5034,-3.4426,-3.373,-3.3016,-3.2625,-3.2019,-3.1125,-3.076,-3.0578,-3.0525,-3.0495,-3.0501,-3.0505,-3.0402,-3.0299,-3.0247,-3.033,-3.0166,-2.9827,-3.0381,-3.0673,-3.0879,-3.1309,-3.1806,-3.2257,-3.2529,-3.2819,-3.3223,0.0,0.0,0.0,0.0,0.0,0.0,0.0,0.0,0.0,0.0,0.0,0.0,0.0,0.0,0.0,0.0,0.0,0.0,0.0,0.0,0.0,0.0,0.0,0.0,0.0,0.0,0.0,0.0,0.0,0.0,0.0,0.0,0.0,0.0,0.0,0.0,0.0,0.0,0.0,0.0,0.0,0.0,0.0,0.0,0.0,0.0,0.0,0.0,0.0,0.0,-2.0716,-2.0456,-2.0489,-2.0388,-2.0289,-2.0492,-2.043,-2.0407,-2.1,-2.1935,-2.2764,-2.3172,-2.3867,-2.4418,-2.4068,-2.4116,-2.3982,-2.3081,0.0,-2.3847,-2.3398,-2.4633,-2.6129,-2.7454,0.0,-3.0119,-3.1748,-3.2756,-3.3634,-3.4333,-3.4632,-3.4984,-3.5502,-3.5502,-3.5591,-3.5672,-3.4927,-3.4793,-3.5561,-3.4886,-3.4085,-3.3307,-3.3083,-3.2392,-3.1238,-3.087,-3.0702,-3.0651,-3.0678,-3.0573,-3.0357,-3.0232,-3.0262,-3.0425,-3.0364,-3.038,-3.0448,-3.0584,-3.1052,-3.1607,-3.172,-3.2347,-3.3205,-3.3337,-3.3824,-3.4392,0.0,0.0,0.0,0.0,0.0,0.0,0.0,0.0,0.0,0.0,0.1845,-0.0234,0.0,0.0,0.0,0.0,0.0,0.0,0.0,0.0,0.0,0.0,0.0,0.0,0.0,0.0,0.0,0.0,0.0,0.0,0.0,0.0,0.0,0.0,0.0,0.0,0.0,0.0,0.0,0.0,0.0,0.0,0.0,0.0,0.0,0.0,0.0,0.0,0.0,0.0,-2.1429,-2.2301,-2.1599,-2.1963,-2.2552,-2.1821,-2.2205,-2.281,-2.2678,-2.3893,-2.4987,-2.4334,-2.5111,-2.5766,-2.4717,-2.451,0.0,0.0,-2.3173,-2.3386,-2.2917,-2.4696,-2.6551,-2.7552,0.0,0.0,0.0,0.0,-3.4565,0.0,0.0,0.0,0.0,0.0,0.0,0.0,-3.6347,-3.5845,-3.5156,-3.4841,-3.4187,-3.3077,-3.2844,-3.2434,-3.1871,-3.1161,-3.0983,-3.1299,-3.1511,-3.1603,-3.1694,-3.2287,-3.2796,-3.2975,-3.2345,-3.1977,-3.1855,-3.191,-3.2183,-3.2707,-3.3477,-3.4355,-3.5099,-3.5068,-3.5326,-3.5723,0.0,0.0,0.0,0.0,0.0,0.0,0.0,0.6678,0.66,0.5705,0.3528,0.1396,-0.0424,-0.1972,-0.344,0.0,0.0,0.0,0.0,0.0,0.0,0.0,0.0,0.0,0.0,0.0,0.0,0.0,0.0,0.0,0.0,0.0,0.0,0.0,0.0,0.0,0.0,0.0,0.0,0.0,0.0,0.0,0.0,0.0,0.0,0.0,0.0,0.0,0.0,0.0,-2.0867,-2.2733,-2.2859,-2.3612,-2.4298,-2.3747,-2.3792,-2.3996,-2.3879,-2.4687,-2.5394,-2.5069,-2.5745,-2.6071,-2.4659,0.0,0.0,0.0,-2.2727,-2.3248,-2.2698,-2.4759,0.0,0.0,0.0,0.0,0.0,0.0,0.0,0.0,0.0,0.0,0.0,0.0,0.0,-3.6906,-3.6858,-3.6466,-3.5486,-3.4605,-3.4243,-3.4304,-3.3366,-3.2763,-3.2547,-3.1853,-3.1666,-3.183,-3.1766,-3.1893,-3.2299,-3.2528,-3.2989,-3.3455,-3.3155,-3.3065,-3.323,-3.3376,-3.3717,-3.4195,-3.4533,-3.5047,-3.5562,-3.5799,-3.6014,-3.631,0.0,0.0,0.0,0.0,0.0,0.0,0.0,0.7187,0.7085,0.6423,0.5036,0.3133,0.0592,-0.0612,-0.2176,0.0,0.0,0.0,0.0,0.0,0.0,0.0,0.0,0.0,0.0,0.0,0.0,0.0,0.0,0.0,0.0,0.0,0.0,0.0,0.0,0.0,0.0,0.0,0.0,0.0,0.0,0.0,0.0,0.0,0.0,0.0,0.0,0.0,0.0,0.0,-1.9725,-2.1779,-2.3063,-2.4351,-2.5409,-2.529,-2.5108,-2.4939,-2.5118,-2.5657,-2.614,-2.6077,-2.6516,-2.651,-2.4882,-2.4372,0.0,0.0,-2.2107,-2.2933,-2.2717,-2.4767,0.0,0.0,0.0,0.0,0.0,0.0,0.0,0.0,0.0,0.0,0.0,0.0,0.0,-3.7091,-3.693,-3.6565,-3.5906,-3.4767,-3.449,-3.5289,-3.3972,-3.3216,-3.3006,-3.2442,-3.2184,-3.2262,-3.1999,-3.2131,-3.2587,-3.2601,-3.2954,-3.3561,-3.3568,-3.3878,-3.4272,-3.4329,-3.4833,-3.5488,-3.543,-3.5791,-3.6279,-3.6613,-3.6833,-3.705,0.0,0.0,0.0,0.0,0.0,0.0,0.0,0.5898,0.6375,0.6467,0.503,0.3509,0.2138,0.034,-0.1674,0.0,0.0,0.0,0.0,0.0,0.0,0.0,0.0,0.0,0.0,0.0,0.0,0.0,0.0,0.0,0.0,0.0,0.0,0.0,0.0,0.0,0.0,0.0,0.0,0.0,0.0,0.0,0.0,0.0,0.0,0.0,0.0,0.0,0.0,0.0,0.0,-1.8831,-2.0782,-2.327,-2.5487,-2.5558,0.0,0.0,-2.6554,-2.7938,-2.9072,-2.8186,-2.8146,-2.7892,-2.6271,-2.4473,-2.2782,-2.1461,-2.1434,-2.2016,-2.3098,-2.4582,-2.6258,0.0,0.0,-3.1422,0.0,0.0,0.0,0.0,0.0,0.0,0.0,0.0,0.0,-3.7556,-3.6681,-3.6157,-3.6195,-3.5712,-3.5264,-3.4706,-3.4418,-3.3868,-3.3128,-3.2385,-3.2151,-3.2382,-3.2518,-3.272,-3.292,-3.3628,-3.4225,-3.4699,-3.4203,-3.4129,-3.4478,-3.4061,-3.4851,-3.6137,-3.6445,-3.7406,-3.8621,-3.8394,-3.849,-3.8746,0.0,0.0,0.0,0.0,0.0,0.0,0.7216,0.6219,0.5785,0.6468,0.5212,0.3762,0.2456,0.058,-0.1672,-0.4397,0.0,0.0,0.0,0.0,0.0,0.0,0.0,0.0,0.0,0.0,0.0,-1.4726,-1.3652,0.0,0.0,0.0,0.0,0.0,0.0,0.0,0.0,0.0,0.0,0.0,0.0,0.0,0.0,0.0,0.0,0.0,0.0,0.0,0.0,0.0,0.0,0.0,-1.8509,-2.0627,0.0,0.0,-2.5601,-2.6167,-2.6712,-2.8082,-2.9123,-2.8268,-2.828,-2.7882,-2.5541,0.0,-2.2746,-2.1016,-2.1143,-2.185,-2.2784,-2.4263,-2.5914,0.0,-2.8631,0.0,0.0,0.0,0.0,0.0,0.0,0.0,0.0,0.0,-3.7883,-3.7609,-3.7044,-3.6613,-3.6352,-3.5769,-3.5467,-3.5295,-3.4864,-3.445,-3.4123,-3.3357,-3.305,-3.3099,-3.3326,-3.3607,-3.4054,-3.4711,-3.528,-3.5878,-3.5751,-3.5836,-3.6104,-3.62,-3.6671,-3.7288,-3.7643,-3.8145,-3.8735,-3.8872,-3.9026,-3.9221,0.0,0.0,0.0,0.0,0.0,0.7384,0.7217,0.5689,0.4989,0.6137,0.4997,0.3589,0.2273,0.0348,-0.2169,-0.5442,-0.672,0.0,0.0,0.0,0.0,0.0,0.0,0.0,0.0,0.0,-1.4272,-1.4705,-1.3561,-1.265,0.0,0.0,0.0,0.0,0.0,0.0,0.0,0.0,0.0,0.0,0.0,0.0,0.0,0.0,0.0,0.0,0.0,0.0,0.0,0.0,0.0,0.0,0.0,0.0,0.0,0.0,-2.4798,-2.5677,-2.6354,-2.7807,-2.9014,-2.8442,-2.8349,-2.7859,0.0,0.0,-2.2687,-2.1216,-2.1062,-2.1557,-2.2807,-2.3876,-2.5174,-2.7148,-2.7653,-2.8837,-3.1747,0.0,0.0,0.0,0.0,0.0,0.0,0.0,-3.8223,-3.7567,-3.7302,-3.6904,-3.6166,-3.582,-3.5703,-3.5695,-3.5164,-3.4867,-3.4867,-3.4002,-3.362,-3.3818,-3.4,-3.434,-3.4796,-3.5381,-3.5956,-3.6529,-3.667,-3.681,-3.702,-3.7503,-3.7797,-3.7978,-3.8415,-3.8672,-3.8886,-3.9207,-3.939,-3.9551,0.0,0.0,0.0,0.0,0.0,0.0,0.4482,0.3772,0.3839,0.5331,0.4277,0.2933,0.1661,-0.0403,-0.3208,-0.7053,-0.7993,0.0,0.0,0.0,0.0,0.0,0.0,0.0,0.0,0.0,-1.3555,-1.4499,-1.4611,-1.378,-1.2078,-1.1245,-1.0384,-0.9441,0.0,0.0,0.0,0.0,0.0,0.0,0.0,0.0,0.0,0.0,0.0,0.0,0.0,0.0,0.0,0.0,0.0,0.0,0.0,0.0,0.0,0.0,-2.3553,-2.4923,-2.5565,-2.7426,-2.9213,-2.927,-2.8738,-2.8054,0.0,0.0,-2.2398,-2.2371,-2.1158,-2.0907,-2.3426,-2.3396,-2.3957,-2.6746,-2.7428,-2.8713,-3.1869,0.0,0.0,0.0,0.0,0.0,0.0,0.0,-3.8397,-3.7366,-3.7223,0.0,-3.5521,-3.5977,-3.6144,-3.5725,-3.5311,-3.5078,-3.5078,-3.4086,-3.3776,-3.4225,-3.4412,-3.4626,-3.4796,-3.564,-3.6072,-3.6315,-3.6529,-3.6599,-3.6599,-3.695,-3.7475,-3.8109,-3.8532,-3.9094,-3.9666,-3.9666,-3.9839,-4.0102,0.0,0.0,0.0,0.0,0.0,0.0,0.0,0.3051,0.2219,0.3084,0.1747,0.0374,-0.0586,-0.2228,-0.4435,-0.7301,-0.8052,0.0,0.0,0.0,0.0,0.0,0.0,0.0,0.0,0.0,-1.3485,-1.4497,-1.4029,-1.3281,-1.2207,-1.0774,-0.9588,-0.8715,-0.7699,0.0,0.0,0.0,0.0,0.0,0.0,0.0,0.0,0.0,0.0,0.0,0.0,0.0,0.0,0.0,0.0,0.0,0.0,0.0,0.0,0.0,0.0,0.0,-2.3759,-2.5451,-2.679,-2.6129,-2.6331,-2.6364,-2.4995,0.0,-2.3093,-2.2581,-2.2059,-2.2144,-2.3747,-2.399,-2.4879,-2.7684,-2.8227,-2.9117,-3.1487,0.0,0.0,0.0,0.0,0.0,0.0,0.0,-3.8073,-3.7726,-3.7455,-3.7121,-3.6649,-3.6359,-3.5991,-3.5705,-3.5338,-3.5239,-3.5571,-3.4687,-3.4381,-3.465,-3.5293,-3.5713,-3.5963,-3.6888,-3.7399,-3.7593,-3.7666,-3.7695,-3.7695,-3.7989,-3.8223,-3.8677,-3.9661,-3.9979,-3.997,-4.0568,-4.0517,-4.0222,0.0,0.0,0.0,0.0,0.0,0.0,0.0,0.2173,0.1342,0.1786,0.0761,-0.044,-0.1568,-0.2792,-0.4528,-0.6991,-0.7547,0.0,0.0,0.0,0.0,0.0,0.0,0.0,0.0,-1.1551,-1.2562,-1.3971,-1.3514,-1.3115,-1.2763,-1.0962,-0.9658,-0.8732,-0.7331,0.0,0.0,0.0,0.0,0.0,0.0,0.0,-0.5976,0.0,0.0,0.0,0.0,0.0,0.0,0.0,0.0,0.0,0.0,0.0,0.0,0.0,-1.8153,0.0,0.0,-2.3739,-2.4997,-2.4718,-2.5155,0.0,0.0,0.0,0.0,-2.3423,-2.2901,-2.291,-2.4328,-2.4425,-2.511,-2.7455,-2.7947,-2.8824,-3.1011,0.0,0.0,0.0,0.0,0.0,0.0,-3.7982,-3.7776,-3.761,-3.7482,-3.7246,-3.693,-3.6507,-3.614,-3.5838,-3.5036,-3.5131,-3.5931,-3.5155,-3.5002,-3.5264,-3.5807,-3.6231,-3.6561,-3.7491,-3.8005,-3.8202,-3.8277,-3.8277,0.0,-3.8501,-3.887,-3.9284,-4.0217,-4.057,-4.0583,-4.1298,-4.1321,-4.0954,0.0,0.0,0.0,0.0,0.0,0.0,0.0,0.1194,0.0983,0.1204,0.0878,-0.0018,-0.1682,-0.2447,-0.3868,-0.6353,0.0,0.0,0.0,0.0,0.0,0.0,0.0,0.0,0.0,-0.9976,-1.1047,-1.3015,-1.3062,-1.3205,-1.345,-1.1719,-1.0351,-0.9302,-0.6899,-0.5872,0.0,0.0,0.0,0.0,0.0,0.0,0.0,0.0,0.0,0.0,0.0,0.0,0.0,0.0,0.0,0.0,0.0,0.0,0.0,0.0,0.0,0.0,0.0,0.0,0.0,0.0,0.0,0.0,0.0,0.0,0.0,0.0,0.0,0.0,-2.5127,-2.4845,-2.4843,-2.6495,-2.6989,-2.7996,0.0,0.0,0.0,0.0,0.0,0.0,-3.7288,-3.7433,-3.7473,-3.7261,-3.737,-3.7241,-3.669,-3.6635,-3.6404,-3.6105,-3.4812,-3.4821,-3.6141,-3.5709,-3.5711,-3.622,-3.6248,-3.6505,-3.691,-3.7681,-3.8063,-3.826,-3.8514,-3.8589,-3.8589,-3.8841,-3.9298,-3.9934,-4.0353,-4.086,-4.1475,-4.1849,-4.1967,-4.1936,0.0,0.0,0.0,0.0,0.0,0.0,0.0,0.0,0.0,0.0,-0.0873,-0.1776,-0.328,-0.3441,-0.423,0.0,0.0,0.0,0.0,0.0,0.0,0.0,0.0,0.0,0.0,-0.8981,-1.0082,-1.2035,-1.2597,-1.2688,-1.2266,-1.1389,-1.0017,-0.8203,-0.6704,-0.5657,0.0,0.0,0.0,0.0,0.0,0.0,0.0,0.0,0.0,0.0,-0.5817,-0.7136,0.0,0.0,0.0,0.0,0.0,0.0,0.0,0.0,-1.5904,-1.686,-1.8088,0.0,-2.0389,-2.0628,0.0,0.0,0.0,0.0,0.0,0.0,0.0,0.0,0.0,0.0,-2.5845,-2.7889,-2.8086,-2.8594,-3.0213,0.0,0.0,0.0,0.0,0.0,-3.7034,-3.7422,-3.7641,-3.7648,-3.7741,-3.7846,-3.7764,-3.6871,-3.6599,-3.7059,-3.6184,-3.5817,-3.5789,-3.6522,-3.6962,-3.7035,-3.7802,-3.8347,-3.8615,-3.8822,-3.8957,-3.9186,-3.9232,-3.9337,-3.9547,-4.0094,-4.0618,-4.1069,-4.1295,-4.1382,-4.137,-4.1617,-4.1352,-4.0953,0.0,0.0,0.0,0.0,0.0,0.0,0.0,0.0,0.0,0.0,0.0,0.0,0.0,0.0,0.0,0.0,0.0,0.0,0.0,0.0,0.0,0.0,0.0,0.0,-0.7921,-0.808,-0.915,-1.115,-1.1605,-1.2058,-1.2439,-1.1352,-1.0007,-0.8357,-0.6171,-0.4176,-0.2434,0.0,0.0,0.0,0.1806,0.0,0.0,0.0,0.0,0.0,-0.4742,-0.6184,0.0,-0.9328,-1.0604,-1.1673,0.0,0.0,0.0,0.0,-1.5502,-1.6694,-1.6835,-1.7995,-1.9355,-2.0189,-2.1211,-2.2241,0.0,0.0,0.0,0.0,0.0,0.0,0.0,0.0,0.0,-2.7357,-2.8066,0.0,0.0,0.0,0.0,0.0,0.0,-3.7115,0.0,-3.74,-3.7619,-3.7709,-3.7799,-3.7874,-3.7913,-3.7103,-3.6856,-3.7391,-3.6975,-3.6577,-3.6219,-3.7057,-3.7479,-3.7451,-3.8226,-3.8833,-3.9321,-3.9298,-3.9547,-3.9934,-4.0088,-4.0241,-4.0423,-4.0855,-4.1411,-4.1986,-4.2183,-4.2453,-4.2689,-4.2529,-4.2375,-4.2211,0.0,0.0,0.0,0.0,0.0,0.0,0.0,0.0,0.0,0.0,0.0,0.0,0.0,0.0,0.0,0.0,0.0,0.0,0.0,0.0,0.0,0.0,0.0,-0.6371,-0.7257,-0.7113,-0.8102,-1.0331,-1.0463,-1.1232,-1.2617,-1.1297,-0.9958,-0.8491,-0.5159,-0.2313,0.0026,0.0547,0.2293,0.4615,0.3448,0.0,0.0,0.0,0.0,0.0,0.0,0.0,0.0,-0.932,-1.0526,-1.1254,-1.2721,0.0,0.0,0.0,0.0,0.0,-1.636,-1.7559,-1.9319,-2.0875,-2.1611,-2.2349,0.0,0.0,0.0,0.0,0.0,0.0,0.0,0.0,0.0,0.0,0.0,0.0,0.0,0.0,0.0,0.0,0.0,0.0,-3.7199,-3.7277,-3.7402,-3.7608,-3.7714,-3.7622,-3.7479,-3.7201,-3.7201,-3.7361,-3.7371,-3.7246,-3.6895,-3.7434,-3.7697,-3.7585,-3.8256,-3.8921,-3.9624,-3.9705,-4.0054,-4.0637,-4.0753,-4.0985,-4.1228,-4.1458,-4.2016,-4.2757,-4.2834,-4.3396,-4.3975,-4.3451,-4.3635,-4.3914,0.0,0.0,0.0,0.0,0.0,0.0,0.0,0.0,0.0,0.0,0.0,0.0,0.0,0.0,0.0,0.0,0.0,0.0,0.0,0.0,0.0,0.0,-0.3902,-0.4562,-0.6269,-0.57,-0.6714,-0.9502,-0.9609,-0.999,-1.0633,-1.0677,-0.9239,-0.6418,-0.3248,-0.1318,-0.0283,0.2879,0.4402,0.4661,0.4036,0.0,0.0,0.0,0.0,0.0,0.0,0.0,0.0,-0.8356,-0.9766,-1.1046,-1.1859,0.0,0.0,0.0,0.0,0.0,-1.6976,-1.795,-1.8789,-1.9075,-2.0583,-2.2067,0.0,0.0,0.0,0.0,0.0,0.0,0.0,0.0,0.0,0.0,0.0,0.0,0.0,0.0,0.0,0.0,0.0,-3.5762,-3.6102,-3.6439,-3.6823,-3.7316,-3.7727,-3.7769,-3.7505,-3.7201,-3.7108,-3.7108,-3.732,-3.7274,-3.6744,-3.7954,-3.8228,-3.7398,-3.9172,-4.0126,-4.031,-4.0474,-4.0799,-4.1251,-4.093,-4.1222,-4.1882,-4.2299,-4.2666,-4.2925,-4.2572,-4.2567,-4.2744,-4.214,-4.2325,-4.2898,0.0,0.0,0.0,0.0,0.0,0.0,0.0,0.0,0.0,0.0,0.0,0.0,0.0,0.0,0.0,0.0,0.0,0.0,0.0,0.0,0.0,-0.4329,-0.4224,-0.4878,-0.6427,-0.6528,-0.7514,-0.9477,-0.9507,-0.9735,-1.009,-0.9245,-0.749,-0.4985,-0.2733,-0.0808,0.0888,0.297,0.4346,0.5099,0.0,0.0,0.0,0.0,0.0,0.0,0.0,0.0,0.0,0.0,-0.9606,-1.0768,-1.1882,0.0,0.0,0.0,0.0,0.0,-1.6795,-1.7612,-1.8182,-1.8717,-2.0433,-2.2114,0.0,0.0,0.0,0.0,0.0,0.0,0.0,0.0,0.0,0.0,0.0,0.0,0.0,0.0,0.0,0.0,0.0,-3.5394,-3.526,-3.5983,-3.6698,-3.6985,-3.726,-3.7387,-3.732,-3.7015,-3.6922,-3.6922,-3.7108,-3.7039,-3.6498,-3.7856,-3.8174,-3.7346,-3.8889,-3.9676,-3.9939,-4.0363,-4.0741,-4.1057,-4.1195,-4.1685,-4.2479,-4.315,-4.3532,-4.3731,-4.3697,-4.3723,-4.3766,-4.3383,-4.3333,-4.3572,0.0,0.0,0.0,0.0,0.0,0.0,0.0,0.0,0.0,0.0,0.0,0.0,0.0,0.0,0.0,0.0,0.0,0.0,0.0,0.0,-0.3665,-0.4591,-0.504,-0.5887,-0.7139,-0.7463,-0.8245,-0.9468,-0.9309,-0.9245,-0.9285,-0.7718,-0.5863,-0.3787,-0.2252,-0.0268,0.2018,0.2988,0.4153,0.535,0.0,0.0,0.0,0.0,0.0,0.0,0.0,0.0,0.0,0.0,0.0,0.0,0.0,0.0,0.0,-1.4159,-1.4666,-1.5299,-1.6905,-1.7573,-1.8003,-1.8906,0.0,0.0,0.0,0.0,0.0,0.0,0.0,0.0,0.0,0.0,0.0,0.0,0.0,0.0,0.0,0.0,-3.2973,-3.3245,-3.4389,-3.4972,-3.4744,-3.5672,-3.6406,-3.6741,-3.6985,-3.7201,-3.7108,-3.6922,-3.6709,-3.6709,-3.7015,-3.6988,-3.6455,-3.7491,-3.7682,-3.7153,-3.8358,-3.9172,-3.9572,-4.0167,-4.0712,-4.1214,-4.1351,-4.1918,-4.2711,-4.3198,-4.3609,-4.3884,-4.4335,-4.4576,-4.4732,-4.4737,-4.4639,-4.458,0.0,0.0,0.0,0.0,0.0,0.0,0.0,0.0,0.0,0.0,0.0,0.0,0.0,0.0,0.0,0.0,0.0,0.0,0.0,0.0,-0.3571,-0.3792,-0.5521,-0.7021,-0.816,-0.7282,-0.755,-0.9134,-0.8438,-0.7842,-0.7305,-0.6393,-0.4848,-0.2719,-0.108,0.0569,0.2209,0.4077,0.4921,0.5046,0.5265,0.0,0.0,0.0,0.0,0.0,0.0,0.0,0.0,0.0,0.0,0.0,0.0,0.0,-1.3893,-1.4691,-1.5614,-1.6623,-1.7949,-1.8482,-1.884,-1.9339,0.0,0.0,0.0,0.0,0.0,0.0,0.0,0.0,0.0,0.0,0.0,0.0,0.0,0.0,0.0,0.0,-3.2855,-3.3503,-3.3595,-3.411,-3.5182,-3.5399,-3.5903,-3.6869,-3.726,-3.7413,-3.7108,-3.7108,-3.6922,-3.6709,-3.7201,-3.7208,-3.6698,-3.6902,-3.6807,-3.628,-3.8172,-3.9285,-3.9864,-4.0421,-4.1366,-4.2452,-4.1097,-4.131,-4.256,-4.1973,-4.1996,-4.2505,-4.3055,-4.3675,-4.433,-4.4911,-4.5247,-4.5395,0.0,0.0,0.0,0.0,0.0,0.0,0.0,0.0,0.0,0.0,0.0,0.0,0.0,0.0,0.0,0.0,0.0,0.0,0.0,0.0,-0.4107,-0.4785,-0.5548,-0.6472,-0.7513,-0.7848,-0.8253,-0.8714,-0.7729,-0.7132,-0.6914,-0.6052,-0.4308,-0.1833,-0.0785,0.0952,0.3173,0.4196,0.4848,0.5199,0.5202,0.4869,0.0,0.0,0.0,0.0,0.0,0.0,0.0,0.0,-0.8828,-1.0144,0.0,-1.2408,-1.3674,-1.4495,-1.5212,-1.6122,-1.7884,-1.8289,-1.8453,-1.9355,0.0,0.0,0.0,0.0,0.0,0.0,0.0,0.0,0.0,0.0,0.0,0.0,0.0,0.0,-3.0034,-3.1035,-3.1884,-3.2278,-3.3251,-3.3962,-3.3996,-3.4881,-3.5618,-3.5652,-3.6418,-3.687,-3.6753,-3.6811,-3.6922,-3.6922,-3.7108,-3.7079,-3.6682,-3.6817,-3.6764,-3.644,-3.7813,-3.8471,-3.8382,-4.0284,-4.1214,-4.1424,-4.104,-4.1503,-4.2585,-4.2241,-4.2643,-4.351,-4.4309,-4.4799,-4.529,-4.5802,-4.6127,-4.6402,0.0,0.0,0.0,0.0,0.0,0.0,0.0,0.0,0.0,0.0,0.0,0.0,0.0,0.0,0.0,0.0,0.0,0.0,-0.3606,-0.3794,-0.4226,-0.4977,-0.5352,-0.5883,-0.6581,-0.7528,-0.8067,-0.8148,-0.7012,-0.6394,-0.6223,-0.5395,-0.3622,-0.105,-0.0582,0.1155,0.3789,0.4486,0.4917,0.5158,0.5281,0.4907,0.0,0.0,0.0,0.0,0.0,0.0,0.0,0.0,-0.8561,0.0,0.0,0.0,0.0,0.0,-1.4951,-1.598,-1.7492,-1.8092,-1.8485,0.0,0.0,0.0,0.0,0.0,0.0,0.0,0.0,0.0,0.0,0.0,0.0,0.0,0.0,-2.8902,-3.022,-3.1021,-3.1673,-3.2199,-3.3446,-3.4152,-3.3859,-3.508,-3.577,-3.5372,-3.6149,-3.6687,-3.6715,-3.6713,-3.6903,-3.7387,-3.7387,-3.7182,-3.6989,-3.7053,-3.7016,-3.6781,-3.7606,-3.8088,-3.8216,-3.9953,-4.0859,-4.1159,-4.1316,-4.174,-4.2478,-4.2519,-4.3332,-4.4566,-4.529,-4.575,-4.5959,-4.655,-4.6803,-4.6961,0.0,0.0,0.0,0.0,0.0,0.0,0.0,0.0,0.0,0.0,0.0,0.0,0.0,0.0,0.0,0.0,0.0,0.0,-0.3606,-0.3665,-0.3773,-0.3898,-0.4856,-0.544,-0.5515,-0.6015,-0.6662,-0.739,-0.6325,-0.5516,-0.4982,-0.4295,-0.2716,-0.0391,-0.0305,0.1256,0.3895,0.5098,0.5294,0.4879,0.5527,0.4943,0.3571,0.0,0.0,0.0,0.0,0.0,0.0,0.0,-0.8361,0.0,0.0,0.0,0.0,0.0,-1.494,-1.6517,-1.6974,-1.8075,0.0,0.0,0.0,0.0,0.0,0.0,0.0,0.0,0.0,0.0,0.0,0.0,0.0,-2.883,-2.9123,-2.9679,-3.103,-3.1678,-3.2542,-3.3695,-3.4214,-3.4672,-3.5073,-3.5953,-3.6412,-3.63,-3.6583,-3.691,-3.6959,-3.6715,-3.6975,-3.7821,-3.7939,-3.7748,-3.7528,-3.7528,-3.7318,-3.6978,-3.7528,-3.8543,-3.9844,-3.9507,-4.0382,-4.2028,-4.1952,-4.2053,-4.2347,-4.2627,-4.3759,-4.5373,-4.5683,-4.5968,-4.6207,-4.7093,-4.7171,-4.7003,0.0,0.0,0.0,0.0,0.0,0.0,0.0,0.0,0.0,0.0,0.0,0.0,0.0,0.0,0.0,0.0,0.0,0.0,-0.3665,-0.3742,-0.403,-0.4574,-0.4944,-0.532,-0.5781,-0.6014,-0.6148,-0.6143,-0.5834,-0.5513,-0.5192,-0.3665,-0.1759,0.0422,0.1572,0.3425,0.5715,0.6032,0.5941,0.5559,0.5321,0.4558,0.344,0.0,0.0,0.0,0.0,0.0,0.0,0.0,0.0,0.0,0.0,0.0,0.0,-1.3875,-1.5499,-1.7311,-1.7693,0.0,0.0,0.0,0.0,0.0,0.0,0.0,0.0,0.0,0.0,0.0,0.0,0.0,0.0,-2.8916,-2.8882,-2.9086,-3.0114,-3.105,-3.1702,-3.2094,-3.3437,-3.4437,-3.4871,-3.5648,-3.6077,-3.5873,-3.6441,-3.668,-3.63,-3.635,-3.6639,-3.7061,-3.7061,-3.7123,-3.7291,-3.7591,-3.7817,-3.8052,-3.8381,-3.8556,-3.8754,-3.9447,-4.0601,-4.1882,-4.141,-4.1672,-4.2559,-4.3575,-4.4385,-4.509,-4.6191,-4.6724,-4.7125,-4.8015,-4.8519,-4.8807,0.0,0.0,0.0,0.0,0.0,0.0,0.0,0.0,0.0,0.0,0.0,0.0,0.0,0.0,0.0,0.0,0.0,0.0,0.0,-0.384,-0.418,-0.4957,-0.4722,-0.4922,-0.5614,-0.6212,-0.6157,-0.5481,-0.5274,-0.5111,-0.4999,-0.3105,-0.127,0.0525,0.2013,0.397,0.6186,0.6269,0.6123,0.5792,0.5413,0.4481,0.3177,0.0,0.0,0.0,0.0,0.0,0.0,0.0,0.0,0.0,0.0,0.0,0.0,-1.3442,-1.5098,-1.6872,-1.7626,0.0,0.0,0.0,0.0,0.0,0.0,0.0,0.0,0.0,0.0,0.0,0.0,0.0,0.0,-2.9058,-2.9109,-2.9371,-3.0185,-3.1266,-3.2119,-3.2377,-3.3796,-3.484,-3.4994,-3.5844,-3.622,-3.5884,-3.6163,-3.6333,-3.6189,-3.6071,-3.6364,-3.7075,-3.7133,-3.7259,-3.7585,-3.7704,-3.7949,-3.8341,-3.8674,-3.8817,-3.8674,-3.9565,-4.0487,-4.155,-4.1565,-4.2319,-4.3581,-4.3971,-4.4847,-4.595,-4.6738,-4.735,-4.7955,-4.881,-4.9523,-5.0089,0.0,0.0,0.0,0.0,0.0,0.0,0.0,0.0,0.0,0.0,0.0,0.0,0.0,0.0,0.0,0.0,0.0,0.0,0.0,0.0,-0.4273,-0.5072,-0.4563,-0.4617,-0.541,-0.6519,-0.6529,-0.5392,-0.4884,-0.4609,-0.4509,-0.2568,-0.097,0.0302,0.1757,0.37,0.5912,0.6281,0.6231,0.5904,0.5843,0.4735,0.2975,0.185,0.0,0.0,0.0,0.0,0.0,0.0,0.0,0.0,0.0,0.0,0.0,-1.2629,-1.4197,-1.5736,0.0,0.0,0.0,0.0,0.0,0.0,0.0,0.0,0.0,0.0,0.0,0.0,0.0,0.0,-2.864,-2.9317,-2.9653,-3.0111,-3.0865,-3.2136,-3.3166,-3.3878,-3.489,-3.5477,-3.5357,-3.6288,-3.6613,-3.6043,-3.5787,-3.5903,-3.6416,-3.571,-3.5899,-3.7259,-3.751,-3.781,-3.8047,-3.7835,-3.7856,-3.8132,-3.872,-3.9229,-3.9596,-3.9811,-4.0331,-4.1103,-4.2141,-4.3492,-4.4919,-4.4204,-4.5341,-4.7537,-4.7471,-4.7931,-4.8787,-4.9714,-5.0368,-5.0916,0.0,0.0,0.0,0.0,0.0,0.0,0.0,0.0,0.0,0.0,0.0,0.0,0.0,0.0,0.0,0.0,0.0,0.0,0.0,0.0,-0.4322,-0.5074,-0.5798,-0.6463,-0.7078,-0.6934,-0.666,-0.6241,-0.5954,-0.5231,-0.4001,-0.1579,0.0159,0.1403,0.4303,0.627,0.7393,0.7925,0.7907,0.7462,0.7041,0.5686,0.3823,0.2746,0.1109,0.0,0.0,0.0,0.0,0.0,0.0,0.0,-0.9239,-1.0532,-1.2115,-1.3359,-1.4979,0.0,0.0,0.0,0.0,0.0,0.0,0.0,0.0,0.0,0.0,0.0,0.0,0.0,0.0,-2.8726,-2.8685,-2.9512,-2.9539,-2.9785,-3.08,-3.1752,-3.2642,-3.3295,-3.428,-3.5146,-3.5712,-3.5758,-3.5825,-3.5955,-3.5837,-3.5582,-3.544,-3.5252,-3.5356,-3.5759,-3.6014,-3.6453,-3.7011,-3.7434,-3.7978,-3.8727,-3.9679,-4.0385,-4.0864,-4.0946,-4.1327,-4.1852,-4.2587,-4.3614,-4.4849,-4.5236,-4.6449,-4.8198,-4.886,-4.936,-4.9887,-5.0786,-5.1549,-5.1966,0.0,0.0,0.0,0.0,0.0,0.0,0.0,0.0,0.0,0.0,0.0,0.0,0.0,0.0,0.0,0.0,0.0,0.0,0.0,0.0,0.0,-0.4674,-0.5899,-0.6629,-0.6681,-0.6971,-0.6955,-0.6544,-0.6354,0.0,0.0,0.0,0.0,0.1957,0.4916,0.6918,0.8104,0.8328,0.8326,0.8103,0.7487,0.6042,0.4112,0.2914,0.1167,-0.0803,-0.1941,0.0,0.0,0.0,0.0,0.0,0.0,0.0,-1.1847,-1.3473,-1.4969,-1.6401,0.0,0.0,0.0,0.0,0.0,0.0,0.0,0.0,0.0,0.0,0.0,0.0,-2.7869,-2.7934,-2.8069,-2.8639,-2.918,-2.9805,-3.0411,-3.1679,-3.2736,-3.3272,-3.3706,-3.4322,-3.5103,-3.4964,-3.4815,-3.4932,-3.4961,-3.5045,-3.5153,-3.501,-3.5267,-3.5942,-3.6257,-3.6752,-3.7451,-3.7649,-3.8147,-3.8997,-3.9654,-4.0627,-4.1824,-4.198,-4.2238,-4.2618,-4.3023,-4.4052,-4.5487,-4.62,-4.7224,-4.8553,-4.9681,-5.0322,-5.0627,-5.1631,-5.2673,-5.3545,0.0,0.0,0.0,0.0,0.0,0.0,0.0,0.0,0.0,0.0,0.0,0.0,0.0,0.0,0.0,0.0,0.0,0.0,0.0,0.0,0.0,-0.4064,-0.5436,-0.6023,-0.5541,-0.6799,-0.7212,-0.6715,0.0,0.0,0.0,0.0,0.0,0.2463,0.0,0.6875,0.8362,0.8352,0.842,0.8455,0.7849,0.6377,0.4429,0.313,0.1247,-0.0812,-0.1897,-0.332,-0.482,-0.564,0.0,0.0,0.0,0.0,-1.1118,-1.3172,-1.4443,-1.5576,0.0,0.0,0.0,0.0,0.0,0.0,0.0,0.0,0.0,0.0,0.0,0.0,-2.6503,-2.6746,-2.6977,-2.7441,-2.8622,-2.9583,-2.9924,-3.1485,-3.2762,-3.3306,-3.3211,-3.3508,-3.417,-3.4103,-3.3947,-3.3819,-3.3947,-3.4292,-3.4884,-3.4839,-3.5274,-3.6467,-3.6926,-3.7521,-3.824,-3.8029,-3.8359,-3.9159,-3.952,-4.0557,-4.2253,-4.2682,-4.3015,-4.3174,-4.3388,-4.4517,-4.6157,-4.6809,-4.7704,-4.8774,-5.0333,-5.0977,-5.1288,-5.2394,-5.3647,-5.477,0.0,0.0,0.0,0.0,0.0,0.0,0.0,0.0,0.0,0.0,0.0,0.0,0.0,0.0,0.0,0.0,0.0,0.0,-0.6809,0.0,0.0,-0.3395,-0.4741,-0.5327,-0.4919,-0.6449,-0.7193,-0.7111,0.0,0.0,0.0,0.0,0.0,0.3418,0.0,0.0,0.8264,0.905,0.9339,0.9231,0.8978,0.7542,0.5483,0.4351,0.2226,-0.0376,-0.173,-0.3253,-0.473,-0.5421,-0.6545,0.0,0.0,0.0,-1.062,-1.2425,-1.36,0.0,0.0,0.0,0.0,0.0,0.0,0.0,0.0,0.0,0.0,0.0,0.0,-2.3655,-2.4686,-2.4854,-2.5392,-2.698,-2.7535,-2.8258,-2.9689,-3.0418,-3.127,-3.2497,-3.2943,-3.3391,-3.3758,-3.3604,-3.3543,-3.3696,-3.3666,-3.3726,-3.3844,-3.4574,-3.5247,-3.5554,-3.6477,-3.7277,-3.7966,-3.8129,-3.8609,-3.9355,-4.0321,-4.1197,-4.1977,-4.2679,-4.3207,-4.3568,-4.378,-4.4757,-4.6307,-4.6462,-4.7578,-4.9243,-5.0827,-5.1503,-5.177,-5.3232,-5.3946,-5.4219,0.0,0.0,0.0,0.0,0.0,0.0,0.0,0.0,0.0,0.0,0.0,0.0,0.0,0.0,0.0,-0.4665,-0.5156,-0.5856,-0.6876,-0.5482,-0.3982,-0.2545,-0.3441,-0.3741,-0.3176,-0.5238,-0.6439,0.0,0.0,0.0,0.0,-0.0983,0.1529,0.0,0.0,0.0,0.0,0.0,0.0,0.9481,0.9197,0.8214,0.6698,0.5079,0.3008,0.0687,-0.098,-0.2561,-0.4026,-0.5038,-0.5829,-0.6682,-0.8128,0.0,0.0,0.0,-1.2842,0.0,0.0,0.0,0.0,0.0,0.0,0.0,0.0,0.0,0.0,0.0,-2.0863,-2.1321,-2.3102,-2.3457,-2.3964,-2.5333,-2.6331,-2.7315,-2.8218,-2.9654,-3.0911,-3.1839,-3.2257,-3.2764,-3.348,-3.3175,-3.2989,-3.3077,-3.3249,-3.3517,-3.3882,-3.4591,-3.5464,-3.6483,-3.7142,-3.789,-3.8701,-3.8941,-3.9295,-3.9799,-4.0832,-4.1425,-4.1692,-4.2841,-4.3328,-4.3298,-4.4248,-4.5303,-4.6428,-4.6986,-4.8213,-4.9977,-5.1191,-5.1936,-5.2511,-5.3798,-5.4552,-5.5001,0.0,0.0,0.0,0.0,0.0,0.0,0.0,0.0,0.0,0.0,0.0,0.0,0.0,0.0,0.0,0.0,-0.4241,-0.4845,-0.5893,-0.4855,-0.3471,-0.186,-0.2127,-0.2169,-0.185,-0.3673,0.0,0.0,0.0,0.0,-0.1027,-0.0459,0.2528,0.0,0.8257,0.0,0.0,0.0,0.0,0.0,0.9198,0.8488,0.7271,0.576,0.4107,0.2298,0.0043,-0.1506,-0.2735,-0.4405,-0.5232,-0.5828,-0.7458,-0.824,0.0,0.0,0.0,0.0,0.0,0.0,0.0,0.0,0.0,0.0,0.0,0.0,0.0,0.0,-1.9527,-1.9641,-2.1575,-2.2099,-2.2651,-2.3952,-2.5301,-2.6406,-2.7136,-2.8836,-3.0283,-3.0968,-3.149,-3.2104,-3.2931,-3.2819,-3.2711,-3.2765,-3.3065,-3.3498,-3.408,-3.4748,-3.5792,-3.7294,-3.7873,-3.8565,-3.9662,-3.9868,-4.0104,-4.0337,-4.1116,-4.1439,-4.1289,-4.262,-4.309,-4.3069,-4.4639,-4.5782,-4.6641,-4.7443,-4.8768,-5.0305,-5.1446,-5.2158,-5.2735,-5.4052,-5.5124,-5.6022,0.0,0.0,0.0,0.0,0.0,0.0,0.0,0.0,0.0,0.0,0.0,0.0,-0.4368,-0.1952,-0.1251,-0.3856,-0.228,-0.1791,-0.3297,-0.4008,-0.3518,-0.1599,-0.1005,0.0,-0.1697,-0.1898,0.0,0.0,0.0,0.0,0.0776,0.107,0.3898,0.8676,0.8236,0.8196,0.8553,0.0,0.0,0.0,0.0,0.8301,0.0,0.0,0.5929,0.4587,0.1317,-0.0036,-0.0678,-0.3428,-0.4949,-0.582,-0.6612,-0.7536,-0.85,0.0,0.0,0.0,0.0,0.0,0.0,0.0,0.0,0.0,0.0,0.0,0.0,0.0,-1.8898,-1.9334,-2.0002,-2.0628,-2.1599,-2.3432,-2.4461,-2.558,-2.7004,-2.7876,-2.877,-2.9672,-3.063,-3.1405,-3.1809,-3.2613,-3.315,-3.3256,-3.3487,-3.3777,-3.3912,-3.5002,-3.6175,-3.7203,-3.8137,-3.9176,-4.0334,-4.0823,-4.1,-4.0871,-4.1034,-4.1069,-4.0974,-4.1719,-4.2377,-4.298,-4.489,-4.6109,-4.6853,-4.7742,-4.8728,-4.9914,-5.139,-5.1795,-5.1839,-5.3804,-5.546,-5.6771,0.0,0.0,0.0,0.0,0.0,0.0,0.0,0.0,0.0,0.0,0.0,0.0,0.0,-0.1523,-0.0849,-0.1358,-0.074,-0.1069,-0.2829,-0.3309,-0.2808,-0.1245,-0.0393,-0.0097,-0.0406,-0.1368,0.0,0.0,0.0,-0.38,-0.0485,0.0793,0.3131,0.6383,0.8165,0.8937,0.897,0.9726,0.0,0.0,0.0,0.0,0.0,0.0,0.0,0.0,0.0,0.0,0.0,-0.1088,-0.2861,-0.4592,-0.5639,-0.6393,-0.7182,-0.8726,-1.0012,0.0,0.0,0.0,0.0,0.0,0.0,0.0,0.0,0.0,0.0,-1.8699,-1.8203,-1.8089,-1.9139,-1.9998,-2.0883,-2.1977,-2.3512,-2.4846,-2.5707,-2.7335,-2.8839,-2.9924,-3.0966,-3.1902,-3.2657,-3.3098,-3.3414,-3.3539,-3.3797,-3.4295,-3.5102,-3.5761,-3.6664,-3.7835,-3.8376,-3.9169,-4.0205,-4.0377,-4.0654,-4.1047,-4.1105,-4.1105,-4.1081,-4.2279,-4.2921,-4.315,-4.5186,-4.6419,-4.7111,-4.7801,-4.9061,-5.0651,-5.1218,-5.1985,-5.2814,-5.4074,-5.4839,-5.5598,0.0,0.0,0.0,0.0,0.0,0.0,0.0,0.0,0.0,0.1721,0.0,0.0,0.0,0.0,0.1138,0.1599,0.1131,0.0048,-0.174,-0.201,-0.1877,-0.1428,0.0204,0.0895,0.044,0.0043,0.0,0.0,0.0,0.0,0.0,0.0513,0.2732,0.551,0.7916,0.8937,0.0,0.0,0.0,0.8349,0.0,0.0,0.8306,0.0,0.0,0.0,0.0,0.0,0.0,0.0,-0.1475,-0.3356,-0.4491,-0.5648,-0.6826,-0.8258,-0.9477,0.0,-1.2632,0.0,0.0,0.0,0.0,0.0,0.0,0.0,0.0,-1.8335,-1.7727,-1.7608,-1.8649,-1.9341,-2.0049,-2.0909,-2.2601,-2.4028,-2.4787,-2.6862,-2.8767,-2.9848,-3.1104,-3.2217,-3.3002,-3.336,-3.3591,-3.3797,-3.4,-3.4495,-3.5481,-3.5852,-3.6705,-3.8047,-3.8633,-3.919,-3.9835,-4.0123,-4.0463,-4.0896,-4.1196,-4.1429,-4.165,-4.261,-4.3242,-4.368,-4.5042,-4.6254,-4.7341,-4.7977,-4.9409,-5.1173,-5.127,-5.2071,-5.3237,-5.4143,-5.5277,-5.6709,0.0,0.0,0.0,0.0,0.0,0.0,0.0,0.0,0.3202,0.2742,0.0,0.0,0.0,0.0,0.0,0.4664,0.3303,0.1743,0.0164,-0.0149,-0.0837,-0.2105,0.0789,0.1886,0.0718,0.2347,0.1515,0.0,0.0,0.0,0.0,0.0,0.2963,0.0,0.7439,0.8113,0.8424,0.0,0.8113,0.8063,0.0,0.7946,0.8044,0.0,0.0,0.0,0.6098,0.6295,0.0,0.1822,0.0,0.0,0.0,-0.5336,-0.746,-0.8093,-0.906,-1.0237,0.0,0.0,0.0,0.0,0.0,0.0,0.0,0.0,0.0,-1.7565,-1.7581,-1.7996,-1.8347,-1.8542,-1.9052,-2.0231,-2.1756,-2.3182,-2.4357,-2.6494,-2.84,-2.9484,-3.106,-3.2266,-3.2702,-3.3208,-3.3642,-3.405,-3.4101,-3.4349,-3.4868,-3.5245,-3.6185,-3.7756,-3.8866,-3.9376,-3.9322,-4.0109,-4.0531,-4.0516,-4.1288,-4.1971,-4.2568,-4.2638,-4.3297,-4.4524,-4.4406,-4.5524,-4.7511,-4.8266,-4.9642,-5.1315,-5.145,-5.2042,-5.2869,-5.4067,-5.6941,-6.0171,0.0,0.0,0.0,0.0,0.0,0.6287,0.5588,0.5316,0.4914,0.0,0.0,0.0,0.2074,0.2614,0.3229,0.3645,0.3267,0.2565,0.1589,0.0691,-0.0254,-0.128,0.0199,0.09,0.0561,0.0788,0.0332,-0.0844,0.0,0.0,0.0,0.0,0.0,0.0,0.7291,0.8455,0.9003,0.9403,0.0,0.0,0.7802,0.7687,0.0,0.0,0.0,0.0,0.0,0.8034,0.707,0.0,0.2466,-0.1031,0.0,0.0,-0.6048,-0.7237,-0.7607,-0.797,-0.953,0.0,0.0,0.0,0.0,0.0,0.0,0.0,0.0,-1.662,-1.6606,-1.6749,-1.6719,-1.6897,-1.7412,-1.8605,-2.094,-2.312,-2.4447,-2.6149,-2.8033,-3.0072,-3.0904,-3.1785,-3.3002,-3.3287,-3.3519,-3.3797,-3.3899,-3.4378,-3.5317,-3.6169,-3.6908,-3.7594,-3.7574,-3.8082,-3.9126,-3.9413,-3.9992,-4.092,-4.1685,-4.2137,-4.2367,-4.3197,-4.3922,-4.4508,-4.4819,-4.5696,-4.6921,-4.7567,-4.8907,-5.0758,-5.1917,-5.2614,-5.3252,-5.4675,-5.7621,-6.0854,0.0,0.0,0.0,0.0,0.0,0.7042,0.6304,0.6292,0.6176,0.0,0.0,0.0,0.4365,0.3762,0.3596,0.4098,0.3819,0.3231,0.2336,0.1797,0.094,-0.0398,0.0315,0.0706,0.0626,0.1011,0.0662,-0.0445,0.0,0.0,0.0,0.0,0.0,0.0,0.0,0.0,0.0,0.0,0.0,0.0,0.7461,0.0,0.0,0.8573,0.9357,0.0,0.0,0.0,0.698,0.5936,0.2924,0.0,0.0,0.0,0.0,0.0,-0.6715,-0.7044,-0.816,-0.8644,-0.9319,0.0,0.0,0.0,-1.4659,-1.582,-1.6567,0.0,-1.6001,-1.6149,-1.6238,-1.6211,-1.6537,-1.769,-1.9998,-2.2236,-2.4029,-2.5909,-2.7959,-3.032,-3.1072,-3.1872,-3.3182,-3.3203,-3.3309,-3.3642,-3.3642,-3.4143,-3.5186,-3.6081,-3.6669,-3.6939,-3.7005,-3.7471,-3.8382,-3.892,-3.9628,-4.0375,-4.1492,-4.2181,-4.2477,-4.3494,-4.425,-4.4751,-4.5005,-4.5623,-4.6522,-4.7112,-4.854,-5.048,-5.1917,-5.3137,-5.4336,-5.5446,-5.8094,-6.1093,0.0,0.0,0.8795,0.8082,0.8102,0.7933,0.7089,0.71,0.7109,0.0,0.6868,0.6833,0.6605,0.5594,0.5022,0.5281,0.4708,0.3865,0.2744,0.2921,0.227,0.0541,0.0811,0.0938,0.0817,0.19,0.1489,-0.0466,0.0,0.0,0.0,0.0,0.0,0.0,0.0,0.0,0.0,0.0,0.0,0.7823,0.7006,0.765,0.0,0.0,1.0283,1.0445,0.8834,0.7907,0.7079,0.4647,0.1867,0.0,0.0,0.0,0.0,0.0,-0.6141,-0.679,-0.7424,-0.8078,-0.9199,-1.1623,-1.2167,0.0,-1.4128,-1.5156,-1.5687,0.0,-1.5535,-1.5871,-1.6305,-1.6051,-1.6128,-1.7306,-1.8855,-2.0784,-2.331,-2.5621,-2.7915,-3.0238,-3.128,-3.2092,-3.314,-3.2989,-3.3043,-3.3539,-3.3466,-3.3745,-3.4643,-3.535,-3.5878,-3.6131,-3.6947,-3.7438,-3.761,-3.8745,-3.944,-3.9535,-4.1081,-4.2176,-4.2825,-4.3681,-4.4399,-4.4995,-4.4995,-4.546,-4.6344,-4.6965,-4.8358,-5.0228,-5.1511,-5.3311,-5.532,-5.607,-5.8324,-6.1093,0.0,0.9991,0.9715,0.9033,0.9247,0.9303,0.8657,0.8486,0.8228,0.7583,0.694,0.6328,0.5878,0.5843,0.5676,0.5267,0.5283,0.4853,0.3693,0.3104,0.2393,0.1545,0.0784,0.0535,0.0871,0.009,-0.0299,-0.0262,-0.0048,0.0,0.0,0.0,0.0,0.0,0.0,0.0,0.0,0.0,0.0,0.6711,0.6664,0.0,0.778,0.8609,0.9231,0.9573,0.8909,0.8496,0.7829,0.4992,0.3226,0.1706,0.0,0.0,0.0,-0.5341,0.0,0.0,0.0,0.0,0.0,0.0,0.0,0.0,-1.1508,-1.2127,-1.2634,0.0,-1.419,-1.4598,-1.5139,-1.5295,-1.5622,-1.6611,-1.7546,-1.9367,-2.2931,-2.4866,-2.7013,-2.9919,-3.0505,-3.1217,-3.2563,-3.2718,-3.2773,-3.3043,-3.3414,-3.3899,-3.4497,-3.4977,-3.5664,-3.6559,-3.6865,-3.7592,-3.8785,-3.9044,-3.9744,-4.0815,-4.1677,-4.2489,-4.3288,-4.3978,-4.4439,-4.4831,-4.4831,-4.5295,-4.6157,-4.6908,-4.8048,-4.9444,-5.1049,-5.2451,-5.3787,-5.5168,-5.7977,-6.1152,0.0,1.0895,1.0706,1.0254,1.0357,1.0326,0.9912,0.9819,0.96,0.9107,0.8555,0.8009,0.7494,0.7209,0.681,0.6245,0.6133,0.5722,0.4801,0.439,0.3569,0.2163,0.1452,0.0784,0.0113,-0.0258,-0.0415,-0.0352,0.0317,0.1099,0.1977,0.0,0.0,0.0,0.0,0.0,0.0,0.0,0.6928,0.6486,0.6851,0.0,0.8216,0.9389,1.0113,1.0345,0.9517,0.817,0.6419,0.398,0.28,0.0,0.0,-0.1141,-0.1465,0.0,-0.3938,-0.3849,0.0,0.0,0.0,-0.7795,0.0,0.0,0.0,-1.1091,-1.1949,-1.2199,-1.2873,-1.3692,-1.4642,-1.4551,-1.4766,-1.6231,-1.7059,-1.8599,-2.1524,-2.3718,-2.6021,-2.8637,-2.9672,-3.0676,-3.1852,-3.2252,-3.2468,-3.2718,-3.3277,-3.3745,-3.4101,-3.4594,-3.5357,-3.6329,-3.6827,-3.7782,-3.9126,-3.9476,-4.016,-4.1243,-4.1977,-4.2568,-4.3138,-4.39,-4.4406,-4.4553,-4.5072,-4.5501,-4.6113,-4.7121,-4.8036,-4.8896,-5.0804,-5.1949,-5.2962,-5.4828,-5.7895,-6.1152,1.1943,1.1811,1.1651,1.136,1.1281,1.1227,1.1082,1.11,1.0909,1.0447,1.0289,0.9983,0.9437,0.8865,0.827,0.7593,0.7154,0.6657,0.6012,0.5854,0.4974,0.3197,0.2687,0.163,-0.016,0.0216,0.0214,-0.0233,0.0824,0.1871,0.2914,0.4178,0.0,0.0,0.0,0.0,0.0,0.0,0.0,0.6519,0.0,0.7687,0.8669,1.0103,1.0711,1.0663,0.9504,0.7324,0.4778,0.3171,0.233,0.1742,0.0438,0.0209,0.0,0.0,0.0,0.0,0.0,0.0,0.0,0.0,0.0,-0.9411,0.0,0.0,0.0,-1.1034,-1.1512,0.0,0.0,0.0,0.0,-1.5597,0.0,0.0,0.0,-2.2181,0.0,-2.7048,-2.8677,-2.9924,-3.0936,-3.1613,-3.2191,-3.2633,-3.3098,-3.3578,-3.3938,-3.4545,-3.5317,-3.6357,-3.7053,-3.8081,-3.94,-3.9886,-4.0555,-4.1445,-4.2121,-4.2659,-4.2941,-4.3887,-4.4337,-4.4505,-4.5375,-4.593,-4.6384,-4.7488,-4.8252,-4.8958,-5.0695,-5.1709,-5.2451,-5.4555,-5.7328,-6.0096,1.3157,1.2837,1.2451,1.1823,1.2026,1.227,1.237,1.2241,1.1701,1.0543,1.0736,1.062,0.9677,1.0118,0.0,0.8803,0.833,0.7896,0.7423,0.6532,0.5953,0.5683,0.4687,0.3338,0.1636,0.1377,0.1086,0.0739,0.193,0.3227,0.4653,0.6168,0.0,0.0,0.8551,0.0,0.0,0.0,0.7052,0.0,0.6288,0.6617,0.0,0.851,0.8681,0.8211,0.7483,0.6133,0.4699,0.0,0.3603,0.2778,0.0,0.1584,0.13,-0.0222,0.0,0.0,0.0,0.0,0.0,0.0,-0.546,0.0,0.0,0.0,-0.9225,-1.0569,0.0,-1.0386,0.0,0.0,0.0,-1.4316,-1.4998,0.0,-1.8004,-1.9954,-2.2455,-2.5925,-2.7255,-2.8344,-2.95,-3.0604,-3.1663,-3.2788,-3.2965,-3.3612,-3.48,-3.5245,-3.6204,-3.7689,-3.7873,-3.8685,-4.0249,-4.015,-4.0819,-4.2202,-4.2385,-4.2808,-4.3317,-4.3889,-4.449,-4.5127,-4.552,-4.6447,-4.7665,-4.7868,-4.8836,-5.0243,-5.068,-5.1432,-5.239,-5.4005,-5.5297,-5.6599,1.3988,1.3738,0.0,1.3145,1.311,1.3132,1.3087,1.3075,1.2867,1.2319,1.2169,1.197,0.0,0.0,0.0,0.0,0.0,0.9354,0.0,0.0,0.6978,0.5925,0.5504,0.4724,0.339,0.3591,0.3604,0.3345,0.4188,0.5168,0.627,0.7105,0.0,0.0,0.875,0.0,0.8126,0.0,0.6863,0.0,0.0,0.0,0.0,0.8919,0.9062,0.8469,0.7063,0.5947,0.4893,0.0,0.3311,0.0,0.0,0.0,0.0,0.0979,0.0,0.0,0.0,0.0,0.0,0.0,0.0,0.0,-0.7268,0.0,-0.9058,0.0,0.0,0.0,0.0,0.0,0.0,0.0,-1.4085,-1.4962,0.0,0.0,-2.1348,-2.4468,-2.6047,-2.7687,-2.9588,-3.093,-3.1911,-3.2437,-3.2748,-3.3448,-3.4792,-3.5169,-3.6163,-3.7847,-3.7933,-3.8929,-4.0866,-4.0753,-4.1511,-4.2927,-4.2987,-4.3211,-4.3509,-4.3805,-4.4382,-4.5083,-4.5816,-4.6743,-4.7754,-4.8314,-4.8978,-4.9616,-4.9684,-5.1281,-5.3632,-5.4287,-5.6078,-5.8413,1.4921,0.0,0.0,0.0,1.3927,1.3724,1.3457,1.3486,1.3529,1.3557,1.341,0.0,1.3365,1.2944,0.0,0.0,1.1275,1.0546,0.0,0.0,0.8257,0.6783,0.6788,0.0,0.4895,0.538,0.5564,0.5383,0.5993,0.6732,0.7578,0.797,0.8421,0.0,0.0,0.9075,0.8666,0.0,0.0,0.6072,0.6493,0.7422,0.8557,0.8998,0.8995,0.8596,0.6979,0.5866,0.4896,0.3309,0.3029,0.32,0.2182,0.286,0.3732,0.0,0.0,0.0,0.126,0.0,0.0,0.0,0.0,0.0,0.0,0.0,0.0,0.0,-0.8505,0.0,0.0,0.0,-1.2165,-1.225,0.0,-1.405,-1.5637,-1.7915,0.0,-2.2714,-2.504,-2.7337,-2.9596,-3.0894,-3.1819,-3.2254,-3.2594,-3.3468,-3.5048,-3.5408,-3.6352,-3.8002,-3.8175,-3.9237,-4.1238,-4.1214,-4.1939,-4.3388,-4.3449,-4.3509,-4.3568,-4.378,-4.4397,-4.5324,-4.6159,-4.7053,-4.8057,-4.872,-4.912,-4.9289,-4.9086,-5.0958,-5.3862,-5.4328,-5.675,-5.9814,1.6143,1.5151,0.0,0.0,0.0,0.0,1.3555,0.0,0.0,0.0,0.0,0.0,0.0,0.0,0.0,0.0,0.0,1.129,1.1482,0.0,0.9938,0.0,0.0,0.8052,0.0,0.6124,0.6181,0.6171,0.669,0.7504,0.8586,0.911,0.9302,0.9214,0.0,1.004,0.9647,0.9297,0.9471,0.9572,0.5612,0.6176,0.9224,0.0,0.7618,0.7744,0.6898,0.5711,0.4486,0.4061,0.3326,0.2602,0.2927,0.3169,0.3409,0.0,0.0,0.0,0.4153,0.3977,0.2958,-0.0553,-0.2131,-0.3682,-0.6995,-0.7867,-0.7865,-0.759,-0.7143,-0.6968,-0.7554,-0.837,-0.9211,-0.9972,-1.1263,0.0,0.0,-1.7056,0.0,-2.0797,-2.4143,-2.7115,-2.9233,-2.9989,-3.099,-3.2478,-3.2728,-3.3722,-3.5851,-3.6417,-3.7314,-3.8723,-3.8756,-3.9643,-4.1409,-4.1238,-4.1906,-4.3388,-4.3509,-4.3509,-4.3449,-4.378,-4.4723,-4.624,-4.6455,-4.7417,-4.8984,-4.8984,-4.9424,-4.9965,-4.9289,-5.0236,-5.2295,-5.3896,-5.6426,-5.9149,0.0,0.0,0.0,0.0,0.0,0.0,0.0,1.468,0.0,0.0,0.0,0.0,0.0,1.5713,1.5038,0.0,0.0,1.2701,1.1674,1.1424,0.0,0.0,0.0,0.985,0.0,0.9287,0.9189,0.8844,0.9698,1.005,0.9988,1.039,1.0802,1.1162,0.0,1.0958,0.0,0.0,0.0,0.0,0.0,0.8605,0.9687,0.0,0.8577,0.7791,0.6819,0.578,0.4749,0.3653,0.3143,0.292,0.2561,0.2893,0.3461,0.3573,0.3772,0.3947,0.3967,0.3704,0.2974,0.1227,-0.1144,-0.3446,-0.5003,-0.636,-0.7331,-0.7418,-0.6731,-0.6291,-0.6881,-0.7424,-0.8043,-0.9049,-1.1057,-1.3067,0.0,-1.7844,-2.0726,-2.2671,-2.5496,0.0,-2.8714,-3.0424,-3.1772,-3.2476,-3.3491,-3.4693,-3.6247,-3.6873,-3.7927,-3.9476,-3.9429,-4.023,-4.1997,-4.2022,-4.2576,-4.3509,-4.3687,-4.3747,-4.3687,-4.3839,-4.449,-4.557,-4.5866,-4.6828,-4.8308,-4.8904,-4.961,-5.0323,-5.0435,-5.0879,-5.1925,-5.599,-5.7529,-5.7867,1.9013,0.0,0.0,0.0,0.0,0.0,0.0,0.0,0.0,0.0,1.6763,0.0,1.8152,0.0,1.5979,0.0,1.4832,1.3646,1.2364,1.2501,0.0,1.0736,1.1171,0.0,0.0,1.0988,1.0997,1.0764,1.1506,1.1703,1.146,1.1596,1.1918,1.2397,0.0,1.2059,1.2597,0.0,1.1972,0.0,0.0,1.047,0.0,0.0,0.8996,0.7589,0.6622,0.5663,0.466,0.3466,0.2907,0.2587,0.2175,0.253,0.3131,0.3384,0.3637,0.386,0.3927,0.371,0.3151,0.167,-0.0391,-0.239,-0.3781,-0.4978,-0.5899,-0.6275,-0.5718,-0.5286,-0.5822,-0.6466,-0.7291,-0.8526,-1.0627,-1.3173,0.0,-1.9105,-2.1678,-2.3621,-2.5855,0.0,0.0,-3.0162,-3.1704,-3.2484,-3.3835,-3.5247,-3.6593,-3.7241,-3.8253,-3.9837,-3.9789,-4.0565,-4.215,-4.2418,-4.2841,-4.3509,-4.378,-4.3898,-4.3898,-4.3956,-4.4474,-4.5412,-4.5857,-4.6844,-4.8116,-4.8863,-4.9841,-5.089,-5.1315,-5.1756,-5.2564,-5.5791,-5.7294,-5.7936,0.0,0.0,0.0,0.0,1.5325,0.0,0.0,0.0,1.6647,0.0,1.7706,1.8473,1.9468,1.8069,1.7181,1.7456,1.5654,1.4246,1.3683,1.3975,0.0,0.0,1.2389,1.2262,1.0816,0.0,0.0,1.1916,1.2216,1.2514,1.2906,1.2714,1.2733,1.293,1.3252,0.0,1.3099,1.3733,1.3555,1.2811,1.2107,1.1527,1.0977,1.0148,0.8701,0.7077,0.6366,0.5376,0.4296,0.363,0.265,0.1785,0.1947,0.2142,0.2499,0.3341,0.3752,0.392,0.4122,0.4131,0.3508,0.0993,0.0214,-0.0624,-0.3308,-0.3742,-0.3718,-0.4328,-0.4135,-0.401,-0.4421,-0.5514,-0.6814,-0.8346,-1.0125,-1.3315,-1.9078,-2.0649,-2.1891,-2.3621,-2.5238,0.0,0.0,-2.9365,-3.0937,-3.2475,-3.394,-3.5429,0.0,-3.7518,-3.8461,-3.9902,-3.9968,-4.0656,-4.2064,-4.2393,-4.2815,-4.3449,-4.378,-4.3898,-4.3898,-4.4039,-4.4673,-4.5703,-4.6438,-4.7325,-4.8343,-4.8976,-5.0168,-5.1657,-5.2021,-5.2836,-5.3815,-5.3618,-5.5826,-5.9081,2.16,2.0543,1.9597,0.0,1.7521,1.6939,0.0,0.0,0.0,0.0,2.0275,2.0624,2.0607,1.9215,1.8407,1.8803,1.6967,0.0,0.0,0.0,0.0,1.4015,1.4382,1.4231,1.3356,1.4228,0.0,1.3377,1.4918,1.5188,1.4227,1.4419,1.451,1.4562,0.0,0.0,1.535,1.4514,1.3586,1.2665,1.2423,1.1703,1.0643,0.9185,0.7782,0.6521,0.6307,0.5515,0.4415,0.3557,0.285,0.2367,0.2236,0.2408,0.274,0.3419,0.3646,0.368,0.3697,0.346,0.3118,0.2548,0.0973,-0.0656,-0.121,-0.2156,-0.3135,-0.3827,-0.3603,-0.3622,-0.461,-0.5701,-0.6959,-0.8496,-1.1614,-1.5198,-1.9073,-2.0921,0.0,-2.4074,-2.5587,-2.7033,-2.8419,-3.0485,-3.2343,-3.3927,-3.5933,-3.7285,-3.7864,-3.8983,-3.9962,-4.0721,-4.101,-4.1694,-4.2818,-4.2879,-4.3191,-4.3568,-4.3747,-4.3981,-4.4212,-4.435,-4.4677,-4.5192,-4.5583,-4.6227,-4.7107,-4.8471,-4.955,-5.0592,-5.2809,-5.4097,-5.462,-5.4045,-5.6028,-5.9012,2.3069,0.0,0.0,2.1326,0.0,0.0,1.9682,2.0127,0.0,2.0908,2.1444,0.0,2.146,2.0358,1.9564,1.9395,1.8079,0.0,1.6793,0.0,0.0,1.5778,1.6277,1.6106,1.5193,1.5844,0.0,1.4774,1.5982,1.6012,1.497,1.5531,1.5713,0.0,0.0,1.5834,0.0,1.507,1.3812,1.2801,1.2607,1.1535,0.0,0.8656,0.751,0.6551,0.6975,0.5776,0.3945,0.361,0.3183,0.2766,0.2739,0.2739,0.2888,0.3616,0.3663,0.3534,0.3578,0.3275,0.2929,0.2741,0.156,0.0346,-0.0,-0.101,-0.2104,-0.3012,-0.3214,-0.3585,-0.4808,-0.5843,-0.738,-0.9963,-1.2906,-1.596,-1.8992,0.0,0.0,0.0,-2.5828,-2.7348,-2.9276,-3.0825,-3.2383,-3.4058,-3.6249,-3.7702,-3.812,-3.9215,-4.0293,-4.1124,-4.1259,-4.1917,-4.299,-4.3052,-4.3174,-4.3328,-4.3535,-4.3831,-4.4064,-4.4406,-4.4686,-4.5049,-4.5627,-4.6339,-4.7222,-4.8488,-4.963,-5.0725,-5.2942,-5.4205,-5.4765,-5.4648,-5.5819,-5.7612,0.0,0.0,0.0,0.0,0.0,0.0,0.0,2.1481,0.0,2.1833,0.0,2.2564,2.2304,2.1568,2.078,1.9977,0.0,1.855,1.7966,1.8531,1.8426,1.7405,1.8058,1.7889,1.6717,1.6929,1.6816,0.0,1.6514,1.6321,1.5741,1.6463,0.0,0.0,0.0,0.0,0.0,1.5502,1.4279,1.3133,1.2684,1.1203,0.9259,0.8656,0.7831,0.7083,0.7831,0.6027,0.3376,0.3884,0.3646,0.3181,0.3368,0.3241,0.3162,0.3899,0.3837,0.3493,0.3666,0.3312,0.2825,0.218,0.1856,0.1396,0.043,-0.0341,-0.1152,-0.2215,-0.2941,-0.3823,-0.5051,-0.6269,-0.8308,-1.1912,-1.3939,-1.6075,0.0,0.0,0.0,0.0,0.0,0.0,-3.0064,-3.0858,-3.2008,-3.3938,-3.6014,-3.7534,-3.8187,-3.9075,-4.0072,-4.1319,-4.1198,-4.1651,-4.2899,-4.299,-4.299,-4.2961,-4.3328,-4.3595,-4.3831,-4.4293,-4.4686,-4.5083,-4.5971,-4.6842,-4.7677,-4.8543,-4.9825,-5.1419,-5.2562,-5.3628,-5.4556,-5.5059,-5.5507,-5.6069,0.0,0.0,0.0,0.0,0.0,2.4997,2.4817,2.4938,2.502,2.4866,2.5526,2.5464,2.3955,2.3092,2.2443,2.2108,2.0935,0.0,0.0,0.0,0.0,2.0265,1.9948,1.9417,1.8713,1.896,1.8713,1.7963,1.8992,1.8994,1.8039,1.8329,0.0,0.0,0.0,0.0,1.6402,1.6078,0.0,1.3412,1.2416,1.1373,1.0371,0.9791,0.891,0.7918,0.7686,0.5968,0.3901,0.4635,0.4504,0.3987,0.4017,0.4061,0.4131,0.4225,0.4069,0.3832,0.3687,0.3175,0.2515,0.1839,0.1061,0.0293,-0.0188,-0.0746,-0.1444,-0.2326,-0.3036,-0.3979,-0.5337,-0.7997,-1.0678,-1.27,-1.4321,-1.6268,0.0,0.0,0.0,0.0,0.0,-2.7901,-3.0006,-3.1596,-3.3584,-3.6297,-3.7665,-3.8722,-3.9531,-4.027,-4.0767,-4.1041,-4.1455,-4.2053,-4.2899,-4.265,-4.268,-4.3052,-4.3023,-4.3328,-4.3831,-4.4179,-4.4575,-4.5049,-4.5421,-4.577,-4.6118,-4.7611,-4.9507,-5.1489,-5.1474,-5.2587,-5.4137,-5.4172,-5.5448,-5.7035,0.0,0.0,0.0,0.0,0.0,0.0,0.0,2.819,2.7944,2.5964,2.6096,2.6061,2.5126,2.4764,2.4397,2.3837,2.2878,2.2402,2.2622,2.2489,2.2278,2.1945,2.2172,2.1801,2.0775,2.0527,2.0012,1.915,1.925,1.8763,1.7734,1.8013,1.7871,0.0,0.0,1.7684,0.0,0.0,1.5566,1.4026,1.3043,1.2118,1.1286,1.0429,0.9713,0.9078,0.8417,0.7443,0.6361,0.5855,0.5196,0.4593,0.4558,0.456,0.457,0.4617,0.4253,0.3852,0.3571,0.2845,0.1958,0.1325,0.0454,-0.0411,-0.0889,-0.1693,-0.2397,-0.2633,-0.3433,-0.4503,-0.5984,-0.8096,-1.0467,-1.335,-1.3403,-1.4581,-1.8894,0.0,-2.3509,0.0,0.0,0.0,-2.9816,-3.1691,-3.368,-3.5891,-3.7374,-3.8553,-3.9328,-4.0019,-4.0495,-4.0621,-4.1147,-4.1434,-4.1638,-4.2137,-4.233,-4.2223,-4.258,-4.299,-4.3476,-4.3889,-4.4236,-4.4631,-4.5123,-4.563,-4.6254,-4.7939,-4.95,-5.0864,-5.0703,-5.1859,-5.3624,-5.3474,-5.5003,-5.7222,0.0,3.1115,0.0,0.0,2.9991,0.0,2.9676,3.0423,3.0035,2.7317,2.7054,2.6945,2.6523,2.6645,2.6363,2.5353,2.4793,2.4449,2.4345,2.4324,2.4134,2.3713,2.4133,2.3875,2.2807,2.1935,2.1015,2.0075,1.9371,1.8503,1.7461,1.7734,1.7832,0.0,0.0,0.0,1.8257,1.7308,1.6087,1.4733,1.3844,1.3065,1.2344,1.1341,1.0663,1.0224,0.9682,0.9276,0.8794,0.7504,0.6372,0.5487,0.5363,0.5098,0.4884,0.5066,0.4555,0.3871,0.3527,0.2485,0.1359,0.0712,-0.0262,-0.1173,-0.1694,-0.2659,-0.3354,-0.3251,-0.4185,-0.5429,-0.6818,-0.8213,-1.027,-1.3695,-1.3084,-1.3879,-1.8853,-2.2583,-2.5326,0.0,0.0,0.0,-2.9917,-3.1743,-3.3339,-3.4838,-3.6616,-3.7965,-3.8789,-3.948,-4.0079,-4.0459,-4.0803,-4.0971,-4.0994,-4.1752,-4.1882,-4.1429,-4.1878,-4.232,-4.2594,-4.3238,-4.3656,-4.4091,-4.4729,-4.5726,-4.6852,-4.8225,-4.9331,-5.0149,-5.0126,-5.1211,-5.2879,-5.2683,-5.429,-5.6701,0.0,0.0,0.0,0.0,0.0,3.1291,3.0679,3.0399,3.0406,3.067,3.0858,3.038,2.8879,2.8832,2.8249,2.6597,2.6495,2.6482,2.6408,2.5967,2.6005,2.6687,2.5389,2.464,2.4643,2.3158,2.1871,2.089,2.0828,2.0264,1.9342,1.9332,1.9169,1.8963,1.8857,1.8455,1.7747,1.7603,1.6736,1.5429,1.4497,1.4071,1.3955,1.3327,1.2211,1.0979,1.151,1.0792,0.9641,0.985,0.8694,0.71,0.6738,0.6041,0.5405,0.5701,0.5095,0.4236,0.3645,0.219,0.0709,0.0262,-0.1196,-0.2489,-0.2507,-0.3176,-0.3807,-0.4095,-0.55,-0.6945,-0.7894,-0.9724,-1.1738,-1.3547,-1.5178,-1.6877,-1.8666,-2.3662,-2.7499,-2.8327,0.0,0.0,-3.0705,-3.2093,-3.3341,-3.4314,-3.6321,-3.7852,-3.8623,-3.9463,-4.0261,-4.1082,-4.1009,-4.1488,-4.2671,-4.1689,-4.1337,-4.1581,-4.0877,-4.0679,-4.1069,-4.1986,-4.2659,-4.3183,-4.4159,-4.5558,-4.717,-4.7545,-4.8495,-4.9742,-4.9767,-5.0459,-5.1488,-5.1578,-5.3296,-5.5469,0.0,0.0,0.0,0.0,0.0,0.0,0.0,3.1826,3.2084,3.2471,3.1213,3.0033,2.9302,2.937,2.915,2.8383,2.8445,2.8502,2.8427,2.8764,2.8688,2.8018,2.7883,2.7251,2.5991,2.4663,2.375,2.3205,2.0945,1.9801,1.9721,1.9285,1.8663,1.7911,1.7837,1.7647,1.732,1.7329,1.6995,1.644,1.5953,1.5483,1.4946,1.4137,1.3205,1.2281,1.2043,1.1547,1.1043,1.1265,0.9911,0.8136,0.8201,0.7236,0.6048,0.5933,0.5084,0.4054,0.3274,0.1886,0.051,-0.0054,-0.1275,-0.24,-0.2971,-0.3555,-0.418,-0.4778,-0.6216,-0.7746,-0.8916,-1.0449,-1.2466,-1.5388,-1.789,-1.9483,-1.9533,-2.3203,0.0,-2.5866,0.0,-3.0297,-3.0923,-3.197,-3.3017,-3.3873,-3.5942,-3.7451,-3.8214,-3.9224,-3.9787,-3.9896,-4.0467,-4.0756,-4.0679,-4.0954,-4.0956,-4.0598,-4.0434,-4.0453,-4.075,-4.1278,-4.2104,-4.316,-4.4069,-4.5479,-4.7101,-4.7364,-4.8254,-4.9411,-4.9649,-5.0429,-5.1554,-5.1528,-5.2735,-5.4494,3.7541,0.0,3.473,0.0,3.3239,3.2383,3.2166,3.2583,3.2958,3.318,3.1627,3.0447,3.034,3.0415,3.0376,3.0057,3.0112,3.0167,3.0207,3.1128,3.1011,2.9558,2.9775,0.0,2.7238,2.6029,2.5196,2.4707,2.2036,2.04,1.9723,1.8831,1.8493,1.8621,1.8621,1.8109,1.7224,1.7224,1.7166,1.7174,1.6991,1.6517,1.5736,1.4862,1.4164,1.3529,1.2947,1.2502,1.2213,1.2392,1.1129,0.9446,0.945,0.8264,0.6795,0.6295,0.5303,0.4166,0.3343,0.2059,0.0718,-0.0165,-0.1231,-0.2348,-0.3299,-0.407,-0.4929,-0.6086,-0.7374,-0.877,-1.0219,-1.139,-1.3173,-1.6394,-1.8802,-2.0188,-2.0138,-2.2692,-2.4456,-2.435,-2.7033,-2.9355,-3.0602,-3.1719,-3.2631,-3.3398,-3.5441,-3.6918,-3.76,-3.8606,-3.9276,-3.9522,-4.0058,-4.0313,-4.0204,-4.0347,-4.0256,-3.9998,-3.9794,-3.978,-3.9982,-4.05,-4.1607,-4.3105,-4.3777,-4.5162,-4.6811,-4.7193,-4.8021,-4.9046,-4.935,-5.0134,-5.1099,-5.1309,-5.217,-5.3406,3.622,3.5545,3.455,3.3184,3.3248,3.3073,3.1883,3.2126,3.246,3.2673,3.2855,3.2825,3.2499,3.2508,3.2218,3.1356,3.1302,3.1401,3.1651,3.2645,3.2699,0.0,3.0522,2.9428,2.8384,2.7138,2.5906,2.4707,2.4591,2.2853,1.9573,1.8191,1.9194,2.2231,2.2231,2.0444,1.7491,1.7491,1.7419,1.7322,1.7298,1.694,1.6328,1.5797,1.5179,1.4592,1.4655,1.3835,1.287,1.3408,1.2638,1.1296,1.0297,0.9041,0.7749,0.699,0.5942,0.4834,0.408,0.2863,0.1433,0.0055,-0.1341,-0.2623,-0.3572,-0.4739,-0.6156,-0.8257,-0.926,-1.0263,-1.1844,-1.2771,-1.3897,-1.5883,-1.7159,-1.8468,-2.0023,-2.2273,-2.4076,-2.4786,-2.6205,-2.7831,-2.9717,-3.1276,-3.2408,-3.2879,-3.4778,-3.62,-3.6773,-3.747,-3.8723,-4.071,-3.9917,-4.0448,-4.2585,-3.9998,-3.9145,-3.9998,-3.8798,-3.8212,-3.827,-3.9575,-4.1087,-4.2856,-4.3105,-4.4404,-4.6334,-4.6811,-4.7571,-4.8547,-4.8861,-4.9236,-4.9622,-5.0784,-5.1522,-5.2097,3.6114,3.5421,3.425,3.2183,3.2145,3.1918,3.0487,3.1318,3.2324,3.29,3.4101,3.4886,3.4737,3.3185,3.1968,3.1546,3.2292,3.2661,3.2346,3.3684,3.4086,3.3173,3.2138,3.0945,2.9459,2.8969,2.846,2.7885,2.5505,2.2392,1.8622,1.7992,1.9563,2.2825,2.246,2.1807,2.1054,2.0846,2.0495,2.001,1.9771,1.9047,1.7893,1.6216,1.5118,1.4525,1.4365,1.3971,1.3559,1.3523,1.2854,1.1903,1.1464,0.9841,0.7865,0.7031,0.5942,0.4781,0.3726,0.2609,0.1484,0.022,-0.1175,-0.2404,-0.3299,-0.5202,-0.7207,-0.8718,-0.9976,-1.1167,-1.2623,-1.3638,-1.471,-1.6015,-1.7288,-1.855,-1.9727,-2.1005,-2.2432,-2.4057,-2.5458,-2.705,-2.9053,-3.0721,-3.2009,-3.2697,-3.3456,-3.462,-3.6368,-3.7783,-3.8882,-3.965,-3.967,-3.9998,-4.0825,-3.9396,-3.8858,-3.9081,-3.8366,-3.8123,-3.8383,-3.9406,-4.0597,-4.1953,-4.2532,-4.4081,-4.6274,-4.6455,-4.7206,-4.8358,-4.8988,-4.9459,-4.9992,-5.0326,-5.1261,-5.2434,3.499,3.4013,3.2884,3.1429,3.1144,3.0807,3.0013,3.079,3.1878,3.3017,3.4749,3.5892,3.586,3.4412,3.3073,3.2259,3.2326,3.2785,3.3639,3.4573,3.4791,3.4167,3.3184,3.1803,2.9926,2.9753,2.955,2.9259,2.5928,2.2994,2.0454,2.0188,2.1251,2.333,2.2825,2.2649,2.2642,2.2293,2.1797,2.1277,2.0925,2.016,1.9028,1.7439,1.6293,1.5407,1.4645,1.4332,1.4172,1.3876,1.3226,1.2435,1.2047,1.054,0.8725,0.7745,0.6538,0.5264,0.3966,0.2917,0.1934,0.0673,-0.0847,-0.2355,-0.3677,-0.5897,-0.8086,-0.9473,-1.0754,-1.1991,-1.3219,-1.4135,-1.4961,-1.5862,-1.6792,-1.7877,-1.9168,-2.0112,-2.1493,-2.3442,-2.5166,-2.6863,-2.8837,-3.0608,-3.1922,-3.2582,-3.3121,-3.4243,-3.5919,-3.6924,-3.7875,-3.8882,-3.8861,-3.9211,-4.003,-3.8829,-3.8388,-3.8702,-3.8093,-3.7976,-3.8319,-3.8943,-3.992,-4.1247,-4.1791,-4.333,-4.5507,-4.5929,-4.6699,-4.7571,-4.8299,-4.9057,-4.9707,-4.9879,-5.0942,-5.2412,3.2991,3.1631,3.0659,3.0688,3.0148,2.9779,2.9932,3.0319,3.1304,3.3202,3.4921,3.5976,3.6015,3.5946,3.5236,3.3533,3.1912,3.2188,3.5115,3.5157,3.4963,3.4699,3.3771,3.2279,3.0267,2.9795,2.937,2.9021,2.6208,2.4616,2.419,2.3915,2.3774,2.3753,2.3295,2.2902,2.2615,2.2061,2.1587,2.1246,2.0893,2.0323,1.9617,1.9213,1.8266,1.6974,1.5439,1.4828,1.4709,1.4405,1.372,1.2891,1.2164,1.1198,1.0143,0.8866,0.7564,0.6193,0.4761,0.3667,0.2659,0.1274,-0.0518,-0.2493,-0.4576,-0.674,-0.8789,-1.0328,-1.16,-1.2734,-1.3723,-1.4206,-1.4757,-1.5533,-1.5913,-1.6634,-1.8132,-1.9566,-2.1074,-2.3018,-2.5126,-2.7131,-2.8954,-3.07,-3.194,-3.2396,-3.3583,-3.4588,-3.528,-3.5062,-3.5962,-3.8397,-3.7828,-3.8233,-3.9841,-3.8324,-3.7916,-3.8547,-3.7943,-3.7801,-3.8059,-3.8262,-3.9178,-4.0619,-4.1033,-4.2282,-4.4194,-4.523,-4.5892,-4.6389,-4.701,-4.7916,-4.89,-4.942,-5.0588,-5.1954,3.1127,3.0577,2.9778,2.8096,2.8456,2.8376,2.6688,2.8897,3.1796,3.4768,3.5553,3.5894,3.5999,3.5921,3.5727,3.5314,3.4805,3.424,3.3634,3.4534,3.502,3.4791,3.4486,3.4111,3.3733,3.1035,2.9531,2.9323,2.8586,2.6857,2.419,2.3747,2.3549,2.3549,2.3028,2.2649,2.2377,2.1974,2.1464,2.0893,2.0561,1.994,1.9213,1.8827,1.7935,1.6879,1.5909,1.5086,1.4459,1.4322,1.391,1.3366,1.3198,1.2314,1.0981,0.9076,0.7946,0.6991,0.5428,0.4255,0.3175,0.1869,-0.0846,-0.364,-0.5348,-0.725,-0.9005,-1.0283,-1.2,-1.3445,-1.3891,-1.4217,-1.4623,-1.5313,-1.5486,-1.5921,-1.7063,-1.8529,-2.0183,-2.2097,-2.418,-2.6242,-2.8356,-3.0266,-3.1443,-3.1724,-3.2687,-3.3297,-3.3427,-3.4057,-3.5488,-3.7873,-3.7996,-3.8275,-3.8867,-3.807,-3.7603,-3.755,-3.7392,-3.7417,-3.7594,-3.786,-3.8631,-3.9794,-4.058,-4.1874,-4.3473,-4.4005,-4.4561,-4.5244,-4.5824,-4.6496,-4.7464,-4.9062,-5.0014,-5.0641,3.0617,2.9969,2.9389,2.8664,2.7838,2.7365,2.7682,3.0781,3.3757,3.5503,3.4426,3.3492,3.3622,3.3578,3.3505,3.3471,3.3335,3.3527,3.4096,3.3355,3.3028,3.3398,3.3979,3.433,3.4502,3.1254,2.9509,2.9407,2.9407,2.7635,2.419,2.3951,2.3718,2.3471,2.2927,2.2569,2.2338,2.3191,2.2407,2.0561,2.0357,1.994,1.9325,1.8721,1.8166,1.7448,1.6126,1.5664,1.5568,1.5016,1.4532,1.4077,1.3838,1.2929,1.1684,1.0037,0.8804,0.7729,0.6398,0.5115,0.3535,0.1283,-0.1582,-0.431,-0.5796,-0.769,-0.9597,-1.1087,-1.2542,-1.3587,-1.3802,-1.4061,-1.4251,-1.4345,-1.4907,-1.5647,-1.6657,-1.8105,-1.989,-2.1992,-2.3765,-2.5666,-2.7803,-2.9683,-3.1059,-3.1645,-3.224,-3.282,-3.3333,-3.3819,-3.485,-3.6569,-3.7219,-3.7621,-3.7897,-3.744,-3.6933,-3.6384,-3.6699,-3.6857,-3.6975,-3.7616,-3.8392,-3.9333,-4.0372,-4.1401,-4.257,-4.3518,-4.4074,-4.4399,-4.5435,-4.6209,-4.6915,-4.8129,-4.9099,-5.0014,3.0481,2.9576,2.9095,2.9752,2.7472,2.6709,3.0185,3.3239,3.5093,3.504,3.2519,3.0759,3.0802,3.0528,3.0288,3.022,3.0199,3.1468,3.4518,3.1833,3.0549,3.1427,3.2539,3.3345,3.3876,3.1344,2.9805,2.9407,2.9365,2.7816,2.4924,2.441,2.3951,2.3424,2.2902,2.2542,2.2382,2.4563,2.3719,2.0905,2.0834,2.0339,1.9508,1.8719,1.8307,1.7966,1.656,1.6432,1.6832,1.583,1.5236,1.4859,1.4165,1.3314,1.2337,1.1261,0.9964,0.8644,0.7481,0.5785,0.3571,0.0498,-0.2183,-0.4452,-0.5926,-0.7991,-1.0009,-1.1751,-1.2886,-1.3545,-1.342,-1.3705,-1.3794,-1.3328,-1.4291,-1.5469,-1.6534,-1.8067,-1.9832,-2.1995,-2.3591,-2.5345,-2.7149,-2.9077,-3.06,-3.1718,-3.2006,-3.2581,-3.3554,-3.3727,-3.4031,-3.4699,-3.5891,-3.6628,-3.6864,-3.65,-3.5989,-3.5338,-3.5906,-3.6311,-3.6437,-3.7387,-3.82,-3.8996,-4.0118,-4.0945,-4.1476,-4.3154,-4.3679,-4.3652,-4.5212,-4.6157,-4.6575,-4.691,-4.7998,-4.9358,2.9297,2.8984,2.8395,2.6743,2.6006,2.6792,3.0178,3.1208,3.1573,3.1562,3.1157,3.0857,3.082,2.9467,2.8557,2.8418,2.8811,2.9594,3.0929,3.0273,2.9903,3.0001,2.9959,3.1017,3.3437,3.3001,3.1675,2.9407,2.9156,2.8801,2.8205,2.5474,2.3831,2.3126,2.2825,2.2398,2.2026,2.4172,2.4555,2.3631,2.3262,2.1505,1.9121,1.8299,1.7427,1.6702,1.8025,1.7339,1.5833,1.5875,1.5647,1.5219,1.439,1.3938,1.3442,1.2028,1.1205,1.0305,0.8021,0.55,0.3008,0.0868,-0.1244,-0.3434,-0.5549,-0.7513,-0.9185,-1.0378,-1.2277,-1.3565,-1.2878,-1.3372,-1.3786,-1.3474,-1.4066,-1.4961,-1.609,-1.7932,-1.97,-2.0836,-2.304,-2.5117,-2.662,-2.8443,-2.991,-3.0736,-3.1448,-3.1779,-3.1694,-3.2288,-3.2557,-3.2464,-3.4698,-3.5755,-3.5508,-3.5269,-3.5117,-3.4966,-3.5288,-3.5837,-3.6437,-3.7102,-3.7834,-3.8545,-3.9601,-4.0132,-4.0442,-4.177,-4.2359,-4.255,-4.4151,-4.4776,-4.494,-4.6005,-4.6714,-4.7267,2.9652,2.9736,2.9584,2.8594,2.8436,2.8954,3.0484,3.0717,3.0769,3.0794,3.0817,3.0468,2.9521,2.8934,2.8351,2.7644,2.8048,2.8499,2.8875,2.9574,2.9876,2.9682,2.9531,3.0692,3.3321,3.3393,3.2866,3.1776,2.9624,2.8562,2.8489,2.5308,2.3549,2.3077,2.2676,2.2231,2.1933,2.4349,2.4926,2.4276,2.3782,2.2438,2.0472,1.7782,1.6811,1.6878,1.7434,1.7383,1.6957,1.6469,1.6084,1.5628,1.4831,1.4213,1.3487,1.215,1.0978,0.9672,0.7728,0.5671,0.3602,0.1829,-0.0503,-0.3018,-0.5303,-0.7496,-0.9385,-1.0803,-1.238,-1.3534,-1.363,-1.3719,-1.3733,-1.3785,-1.4294,-1.5059,-1.6212,-1.8386,-2.025,-2.1188,-2.3372,-2.5255,-2.6385,-2.7806,-2.928,-3.0598,-3.0925,-3.1308,-3.1901,-3.2229,-3.2318,-3.2167,-3.3879,-3.4599,-3.4234,-3.4404,-3.4328,-3.4038,-3.4604,-3.5308,-3.623,-3.7058,-3.7916,-3.8766,-3.9929,-4.0446,-4.0634,-4.2323,-4.2925,-4.2946,-4.4566,-4.5169,-4.5176,-4.6304,-4.6811,-4.7214,3.0083,3.0375,3.062,3.0697,3.0714,3.0697,3.0621,3.0637,3.0711,3.0771,3.0774,3.0194,2.8574,2.8645,2.8255,2.69,2.7296,2.7554,2.7445,2.8731,2.9558,2.9663,2.9831,3.0687,3.2319,3.2661,3.2718,3.2484,2.962,2.8144,2.7933,2.5499,2.3854,2.2876,2.2405,2.2007,2.181,2.3603,2.3871,2.3041,2.2599,2.1917,2.0816,1.7586,1.657,1.6956,1.6906,1.7291,1.7695,1.6948,1.6433,1.5931,1.5118,1.4285,1.3369,1.2197,1.0613,0.894,0.7407,0.5901,0.4447,0.2665,0.0074,-0.2574,-0.4961,-0.7317,-0.9508,-1.118,-1.2378,-1.3346,-1.432,-1.4033,-1.3791,-1.4193,-1.4711,-1.5449,-1.6643,-1.8839,-2.0741,-2.1681,-2.3563,-2.5202,-2.6301,-2.7314,-2.8653,-3.0425,-3.0589,-3.1054,-3.2047,-3.2198,-3.2169,-3.196,-3.3066,-3.3482,-3.3069,-3.3519,-3.3599,-3.3309,-3.4218,-3.5209,-3.6185,-3.7273,-3.8282,-3.9329,-4.0337,-4.0865,-4.1121,-4.2706,-4.3303,-4.345,-4.509,-4.5648,-4.5637,-4.6556,-4.6953,-4.7107,2.981,3.0104,3.0355,3.0425,3.0425,3.039,3.0253,3.0447,3.0643,3.0697,3.0755,3.0351,2.9174,2.8551,2.7501,2.5693,2.6256,2.6584,2.6325,2.7186,2.8313,2.9717,3.0272,3.0112,2.9259,3.0503,3.0351,2.8603,2.8334,2.7911,2.7345,2.7137,2.5365,2.2349,2.1974,2.1648,2.131,2.0881,2.0212,1.9467,1.9045,1.8611,1.8221,1.7987,1.6998,1.5865,1.7649,1.7408,1.6468,1.7179,1.6765,1.5758,1.4942,1.4362,1.3723,1.2461,1.0948,0.9342,0.7409,0.6098,0.482,0.2974,0.0591,-0.1934,-0.4378,-0.6648,-0.877,-1.0755,-1.1948,-1.298,-1.3973,-1.3924,-1.4034,-1.4726,-1.5357,-1.6178,-1.72,-1.9057,-2.0668,-2.1666,-2.2954,-2.4459,-2.6409,-2.7085,-2.8062,-2.972,-3.0624,-3.1019,-3.1031,-3.1411,-3.1395,-3.0894,-3.202,-3.2434,-3.2114,-3.253,-3.2935,-3.3309,-3.4555,-3.5682,-3.6692,-3.7985,-3.9059,-4.0136,-4.0353,-4.0741,-4.1324,-4.1829,-4.2492,-4.3335,-4.4819,-4.5333,-4.5348,-4.6212,-4.6201,-4.5875,2.8855,2.9254,2.9456,2.9302,2.957,2.9787,2.9876,3.0171,3.0425,3.0595,2.9469,2.8613,2.8555,2.7825,2.6573,2.4749,2.4755,2.4557,2.3814,2.4544,2.5959,2.8012,2.78,2.8022,2.8938,2.9217,2.9897,3.1118,2.8947,2.7677,2.7282,2.7023,2.6116,2.468,2.3469,2.2196,2.0958,2.0254,2.0351,2.0983,2.0457,1.9825,1.8883,1.7276,1.6884,1.7143,1.7245,1.7347,1.7368,1.7236,1.6786,1.6161,1.5294,1.4579,1.3821,1.2336,1.1002,0.958,0.7987,0.6565,0.4995,0.3027,0.0748,-0.1785,-0.4774,-0.6662,-0.8304,-1.0282,-1.1626,-1.2746,-1.3855,-1.4204,-1.443,-1.4964,-1.598,-1.7154,-1.8374,-1.9848,-2.1459,-2.3045,-2.444,-2.5892,-2.738,-2.7898,-2.8688,-2.9863,-3.076,-3.1321,-3.1685,-3.1879,-3.1739,-3.1278,-3.1632,-3.1953,-3.1996,-3.2687,-3.3224,-3.3571,-3.4915,-3.6141,-3.722,-3.8662,-3.9795,-4.0707,-4.1139,-4.149,-4.1736,-4.2377,-4.2822,-4.3208,-4.4139,-4.4411,-4.4381,-4.5129,-4.53,-4.5481,2.7911,2.8291,2.8448,2.821,2.85,2.8832,2.9185,2.9551,2.9756,2.9671,2.8371,2.7434,2.7334,2.6984,2.6052,2.4239,2.3919,2.3381,2.2308,2.263,2.395,2.6505,2.5945,2.638,2.8017,2.8222,2.9311,3.1342,2.8689,2.7276,2.7087,2.6725,2.6312,2.5733,2.4256,2.2604,2.0971,2.046,2.0358,2.0525,2.0067,1.9824,1.9509,1.6664,1.6172,1.6945,1.666,1.6814,1.7081,1.6732,1.6339,1.5863,1.5057,1.4234,1.3416,1.2274,1.1108,0.9894,0.8603,0.7104,0.54,0.3526,0.1041,-0.1687,-0.4726,-0.6514,-0.7961,-0.9753,-1.1278,-1.2739,-1.3833,-1.4535,-1.5119,-1.569,-1.6733,-1.7948,-1.9235,-2.0439,-2.1891,-2.3801,-2.514,-2.6434,-2.7888,-2.8358,-2.9045,-3.0101,-3.0974,-3.1819,-3.2621,-3.2462,-3.2124,-3.1434,-3.1702,-3.1901,-3.194,-3.2725,-3.3382,-3.3848,-3.5267,-3.6586,-3.7773,-3.9193,-4.0398,-4.1311,-4.1796,-4.2044,-4.2072,-4.2518,-4.2785,-4.2943,-4.336,-4.3523,-4.3672,-4.4182,-4.4677,-4.5207,2.7131,2.7282,2.7434,2.7348,2.7282,2.75,2.8116,2.8637,2.8672,2.7713,2.775,2.7263,2.5584,2.6172,2.5935,2.4138,2.3909,2.337,2.2152,2.1622,2.2592,2.5338,2.5271,2.5441,2.5949,2.7456,2.8147,2.7996,2.7149,2.6691,2.6691,2.6347,2.5733,2.4934,2.4006,2.2756,2.141,2.141,1.9687,1.6914,1.6607,1.7827,1.9433,1.6291,1.4789,1.4598,1.5984,1.5908,1.5181,1.564,1.533,1.4599,1.4068,1.32,1.237,1.2318,1.1421,1.0225,0.9052,0.7636,0.6097,0.4325,0.1522,-0.142,-0.4017,-0.6047,-0.7724,-0.8946,-1.0994,-1.2769,-1.3762,-1.494,-1.6035,-1.6883,-1.7612,-1.8533,-1.9737,-2.0682,-2.189,-2.3728,-2.4567,-2.5737,-2.7654,-2.8139,-2.8889,-3.029,-3.1355,-3.2482,-3.363,-3.314,-3.2369,-3.1366,-3.2176,-3.2315,-3.1821,-3.2476,-3.3214,-3.4101,-3.5514,-3.6888,-3.8242,-3.9599,-4.0805,-4.1924,-4.2133,-4.2216,-4.2287,-4.1909,-4.207,-4.2509,-4.2544,-4.2892,-4.3395,-4.3602,-4.4187,-4.49,2.713,2.714,2.6934,2.6904,2.6652,2.6657,2.7085,2.7904,2.8142,2.7359,2.6329,2.5803,2.6217,2.5389,2.4374,2.332,2.2554,2.1626,2.0423,1.9937,2.0174,2.1263,2.1954,2.2632,2.3315,2.4349,2.5496,2.676,2.6899,2.6184,2.4679,2.5422,2.4842,2.3033,2.1546,2.0969,2.1225,2.1868,2.1351,1.9847,1.7459,1.6923,1.7289,1.5521,1.4811,1.4762,1.5408,1.589,1.6119,1.5873,1.5609,1.5185,1.4437,1.3734,1.3206,1.3047,1.1996,1.0723,0.9765,0.8129,0.6266,0.3951,0.1761,-0.0509,-0.3048,-0.5306,-0.7271,-0.8904,-1.0842,-1.2643,-1.3743,-1.5014,-1.6235,-1.7319,-1.8477,-1.9692,-2.0971,-2.2141,-2.3582,-2.5423,-2.6412,-2.7467,-2.8862,-2.9315,-2.9696,-3.0206,-3.1453,-3.2659,-3.3783,-3.3591,-3.3235,-3.2698,-3.2939,-3.2992,-3.2961,-3.336,-3.3815,-3.4399,-3.5837,-3.6793,-3.7456,-3.892,-3.9989,-4.0805,-4.0948,-4.1343,-4.178,-4.13,-4.1267,-4.1568,-4.1383,-4.1462,-4.1726,-4.2437,-4.2797,-4.3193,2.6489,2.6562,2.6236,2.5819,2.571,2.5791,2.6199,2.686,2.7174,2.6772,2.5608,2.5223,2.6107,2.5089,2.4046,2.3312,2.2084,2.1022,2.0289,1.9485,1.9123,1.9326,1.9805,2.0525,2.152,2.2399,2.3364,2.4392,2.4994,2.4831,2.3885,2.4335,2.359,2.1811,2.0957,2.055,2.0519,2.1513,2.1175,1.9872,1.8041,1.6986,1.6392,1.5334,1.4811,1.4671,1.5029,1.5415,1.5785,1.5541,1.5247,1.4864,1.4301,1.368,1.322,1.3061,1.2198,1.1048,1.0241,0.8812,0.7031,0.4835,0.2666,0.0412,-0.2203,-0.4529,-0.657,-0.8296,-1.0418,-1.2377,-1.3669,-1.5359,-1.6978,-1.8197,-1.9463,-2.0768,-2.2082,-2.3124,-2.4418,-2.6325,-2.7257,-2.818,-2.9393,-2.977,-3.0261,-3.0936,-3.1908,-3.2935,-3.3986,-3.3949,-3.3617,-3.3157,-3.338,-3.3515,-3.3361,-3.3921,-3.4349,-3.4643,-3.5679,-3.6525,-3.7281,-3.8216,-3.9013,-3.9817,-3.9799,-3.9914,-4.0134,-3.9812,-3.9718,-3.98,-4.0014,-4.0103,-4.0288,-4.1202,-4.1747,-4.221,2.535,2.5541,2.5316,2.4355,2.4397,2.4798,2.5339,2.5536,2.5702,2.5828,2.5313,2.5041,2.5448,2.4955,2.4362,2.3692,2.2101,2.1157,2.1196,1.991,1.9154,1.9206,1.8785,1.9114,2.0324,2.1253,2.1615,2.1439,2.209,2.2858,2.375,2.3128,2.2183,2.1055,2.1458,2.0817,1.9474,2.0391,1.9684,1.7977,1.8385,1.776,1.6454,1.5395,1.4812,1.4516,1.4721,1.4789,1.472,1.4903,1.4536,1.4063,1.3911,1.3292,1.2711,1.2752,1.2125,1.1255,1.0605,0.9469,0.8109,0.6321,0.3975,0.1374,-0.1353,-0.3742,-0.5786,-0.7369,-0.9806,-1.2074,-1.3485,-1.5807,-1.7958,-1.9225,-2.0549,-2.1854,-2.3067,-2.3794,-2.4841,-2.6657,-2.7504,-2.84,-2.9444,-2.9823,-3.0628,-3.2085,-3.2563,-3.3242,-3.417,-3.4168,-3.3759,-3.3047,-3.3777,-3.3859,-3.3243,-3.4218,-3.4787,-3.4883,-3.5258,-3.6095,-3.7353,-3.7413,-3.7914,-3.8764,-3.8529,-3.8298,-3.7908,-3.7801,-3.7725,-3.7681,-3.8569,-3.8922,-3.9023,-4.0129,-4.0959,-4.1724,2.3554,2.3632,2.3485,2.3223,2.3159,2.3292,2.4009,2.3807,2.3631,2.397,2.3579,2.3619,2.4426,2.3219,2.241,2.2454,2.1191,2.0656,2.1165,2.0189,1.9675,1.9964,1.9361,1.9099,1.9251,1.9246,1.9541,2.0125,2.0616,2.1259,2.1963,2.2247,2.1782,2.0755,1.9796,1.9196,1.8781,1.8368,1.8285,1.8361,1.8153,1.7644,1.6844,1.5135,1.4653,1.488,1.4275,1.4683,1.5501,1.5306,1.4994,1.4625,1.4237,1.3781,1.3368,1.3257,1.2447,1.1403,1.0809,0.9577,0.8075,0.6381,0.4658,0.2601,-0.0419,-0.294,-0.5207,-0.6992,-0.9377,-1.1571,-1.2915,-1.5374,-1.774,-1.9208,-2.108,-2.278,-2.4125,-2.508,-2.6069,-2.721,-2.8517,-2.9579,-3.0163,-3.0518,-3.1102,-3.2118,-3.2205,-3.2594,-3.3421,-3.3925,-3.4235,-3.4121,-3.4431,-3.448,-3.4364,-3.4673,-3.493,-3.5058,-3.5337,-3.5723,-3.6171,-3.6171,-3.658,-3.7172,-3.6827,-3.688,-3.7253,-3.6832,-3.673,-3.7001,-3.776,-3.811,-3.8365,-3.9479,-4.0087,-4.0493,2.2145,2.2264,2.2318,2.249,2.2382,2.2376,2.2588,2.2643,2.2624,2.2692,2.2635,2.2862,2.3465,2.2629,2.2209,2.2731,2.2055,2.1762,2.2167,2.123,2.0545,2.0334,1.9718,1.9239,1.8948,1.8386,1.83,1.8749,1.8904,1.9274,1.9878,2.0563,2.0772,2.0603,1.9907,1.926,1.8713,1.8355,1.7821,1.7251,1.7925,1.7331,1.5908,1.4545,1.4113,1.4187,1.4029,1.447,1.5127,1.5014,1.4762,1.4429,1.4116,1.3516,1.291,1.2745,1.1972,1.1126,1.0961,0.9979,0.869,0.7389,0.5653,0.3486,0.0438,-0.2306,-0.472,-0.6406,-0.882,-1.109,-1.2694,-1.5407,-1.7842,-1.9408,-2.1284,-2.3075,-2.4509,-2.5439,-2.6476,-2.7846,-2.892,-2.9935,-3.0895,-3.0844,-3.1288,-3.2606,-3.2609,-3.2901,-3.3778,-3.4203,-3.4448,-3.4497,-3.4643,-3.4691,-3.4691,-3.4916,-3.5058,-3.5198,-3.5291,-3.5429,-3.5622,-3.5441,-3.5383,-3.5417,-3.5199,-3.5169,-3.5268,-3.5124,-3.5234,-3.5524,-3.6274,-3.6869,-3.742,-3.8513,-3.9324,-4.0054,2.0778,2.0991,2.1244,2.1581,2.1463,2.1209,2.1026,2.1326,2.1524,2.1413,2.1635,2.2003,2.2344,2.2242,2.2384,2.295,2.2697,2.2603,2.2716,2.1723,2.0787,2.0148,1.9581,1.9118,1.8847,1.7929,1.7676,1.8021,1.7724,1.7932,1.8635,1.9149,1.98,2.0477,2.042,1.9781,1.8866,1.8915,1.7823,1.6209,1.7626,1.6844,1.4839,1.4268,1.3808,1.3471,1.3964,1.4269,1.4347,1.4488,1.4189,1.3828,1.3591,1.2894,1.2135,1.1972,1.1386,1.0867,1.1122,1.0458,0.9434,0.8528,0.6645,0.4263,0.1425,-0.153,-0.4115,-0.5742,-0.8136,-1.0521,-1.2401,-1.5254,-1.7842,-1.9372,-2.1248,-2.2955,-2.4368,-2.5217,-2.6346,-2.8136,-2.9073,-3.0211,-3.1804,-3.123,-3.1484,-3.3127,-3.3161,-3.347,-3.4267,-3.448,-3.4546,-3.4546,-3.4691,-3.4787,-3.4739,-3.5011,-3.5085,-3.5044,-3.5085,-3.5211,-3.5407,-3.4985,-3.4479,-3.4039,-3.4072,-3.3729,-3.3161,-3.3508,-3.3797,-3.4046,-3.4936,-3.572,-3.6495,-3.7531,-3.8631,-3.9631,1.8696,1.8961,1.9225,1.964,1.9233,1.8887,1.8873,1.8747,1.8767,1.9198,1.945,1.9893,2.0655,2.1021,2.1143,2.1015,2.0516,2.0318,2.0499,1.9299,1.8576,1.8603,1.8119,1.7963,1.8116,1.7409,1.7772,1.9333,1.8542,1.889,2.0261,1.9678,1.9773,2.0393,1.9685,1.9108,1.8638,1.8408,1.7893,1.7248,1.6979,1.6185,1.5208,1.5117,1.469,1.4122,1.4047,1.4053,1.4051,1.4165,1.3766,1.3209,1.2679,1.2182,1.1836,1.1772,1.1558,1.131,1.1279,1.0829,1.0113,0.8948,0.7167,0.5217,0.3118,-0.0149,-0.3229,-0.5177,-0.7667,-0.9921,-1.1359,-1.4285,-1.6996,-1.849,-2.0557,-2.247,-2.3904,-2.4627,-2.5689,-2.7494,-2.9342,-3.1217,-3.3227,-3.2222,-3.2015,-3.3303,-3.3273,-3.3306,-3.3547,-3.4362,-3.4787,-3.4691,-3.5058,-3.5105,-3.4916,-3.5024,-3.4725,-3.4001,-3.4725,-3.5258,-3.5543,-3.47,-3.4196,-3.4039,-3.4169,-3.3729,-3.2868,-3.3355,-3.3519,-3.3541,-3.5004,-3.5632,-3.5847,-3.7124,-3.7933,-3.8484,1.6729,1.7055,1.7328,1.7842,1.7625,1.7387,1.7181,1.7202,1.7253,1.7151,1.7795,1.8419,1.8843,1.9441,1.978,1.9661,1.9294,1.9243,1.9558,1.8463,1.7578,1.7197,1.7075,1.6832,1.6482,1.6637,1.7269,1.8368,1.826,1.8558,1.9331,1.9573,1.9848,2.0164,1.9839,1.9609,1.9426,1.9277,1.8935,1.8475,1.7996,1.7109,1.5996,1.5712,1.53,1.4791,1.3897,1.3311,1.3,1.2994,1.2512,1.1994,1.2025,1.1484,1.0881,1.1126,1.1103,1.1054,1.1518,1.1403,1.094,1.0031,0.8488,0.6546,0.416,0.1207,-0.1734,-0.4306,-0.6976,-0.9388,-1.0989,-1.363,-1.6023,-1.7543,-1.9208,-2.089,-2.2293,-2.3258,-2.4803,-2.7328,-2.8757,-3.0197,-3.1911,-3.1388,-3.1598,-3.3223,-3.2961,-3.3186,-3.4164,-3.4319,-3.4579,-3.493,-3.5152,-3.5198,-3.5011,-3.5105,-3.4938,-3.4512,-3.4151,-3.3974,-3.4097,-3.4543,-3.4172,-3.3181,-3.3909,-3.3712,-3.2982,-3.3284,-3.3741,-3.4281,-3.4452,-3.5134,-3.6033,-3.6702,-3.7642,-3.85]}]]